<?xml version="1.0" encoding="UTF-8" standalone="no" ?>
<gpx xmlns="http://www.topografix.com/GPX/1/1" xmlns:xsi="http://www.w3.org/2001/XMLSchema-instance" xsi:schemaLocation="http://www.topografix.com/GPX/1/1 http://www.topografix.com/GPX/1/1/gpx.xsd" version="1.1" creator="VisuGPX - https://www.visugpx.com">
  <metadata>
    <name>Costebelle</name>
    <desc><![CDATA[A partir du parking de la Station de ski de laye suivre les panneaux direction Costebelle ,au sommet suivre les Crêtes jusqu\'à Coste Folle,descendre sur le bois, reprise du sentier et avant N.D de Bois Vert, prendre à droite ,retour sur la station.]]></desc>
  </metadata>
  <trk>
    <name><![CDATA[Tracé actuel: 30 OCT 2014 08:51]]></name>
    <trkseg>
      <trkpt lat="44.64237" lon="6.07241">
        <ele>1148.58</ele>
        <time>2014-10-30T07:51:53Z</time>
      </trkpt>
      <trkpt lat="44.64237" lon="6.07242">
        <ele>1148.58</ele>
        <time>2014-10-30T07:51:55Z</time>
      </trkpt>
      <trkpt lat="44.64239" lon="6.07267">
        <ele>1149.56</ele>
        <time>2014-10-30T07:52:43Z</time>
      </trkpt>
      <trkpt lat="44.64239" lon="6.07302">
        <ele>1151.33</ele>
        <time>2014-10-30T07:53:03Z</time>
      </trkpt>
      <trkpt lat="44.6424" lon="6.07305">
        <ele>1152.13</ele>
        <time>2014-10-30T07:53:18Z</time>
      </trkpt>
      <trkpt lat="44.64241" lon="6.0731">
        <ele>1153.43</ele>
        <time>2014-10-30T07:53:40Z</time>
      </trkpt>
      <trkpt lat="44.64239" lon="6.0731">
        <ele>1154.88</ele>
        <time>2014-10-30T07:54:01Z</time>
      </trkpt>
      <trkpt lat="44.6424" lon="6.07311">
        <ele>1157.03</ele>
        <time>2014-10-30T07:54:29Z</time>
      </trkpt>
      <trkpt lat="44.64238" lon="6.07311">
        <ele>1158.73</ele>
        <time>2014-10-30T07:54:52Z</time>
      </trkpt>
      <trkpt lat="44.64238" lon="6.0731">
        <ele>1160.13</ele>
        <time>2014-10-30T07:55:10Z</time>
      </trkpt>
      <trkpt lat="44.64239" lon="6.07312">
        <ele>1161.63</ele>
        <time>2014-10-30T07:55:31Z</time>
      </trkpt>
      <trkpt lat="44.64238" lon="6.07311">
        <ele>1163.73</ele>
        <time>2014-10-30T07:55:52Z</time>
      </trkpt>
      <trkpt lat="44.64233" lon="6.0731">
        <ele>1165.54</ele>
        <time>2014-10-30T07:56:18Z</time>
      </trkpt>
      <trkpt lat="44.6422" lon="6.07309">
        <ele>1165.76</ele>
        <time>2014-10-30T07:56:36Z</time>
      </trkpt>
      <trkpt lat="44.64217" lon="6.07307">
        <ele>1166.89</ele>
        <time>2014-10-30T07:56:53Z</time>
      </trkpt>
      <trkpt lat="44.64213" lon="6.07302">
        <ele>1167.82</ele>
        <time>2014-10-30T07:57:14Z</time>
      </trkpt>
      <trkpt lat="44.64201" lon="6.07286">
        <ele>1170.38</ele>
        <time>2014-10-30T07:57:39Z</time>
      </trkpt>
      <trkpt lat="44.64197" lon="6.07284">
        <ele>1171.3</ele>
        <time>2014-10-30T07:57:51Z</time>
      </trkpt>
      <trkpt lat="44.64197" lon="6.07272">
        <ele>1172.54</ele>
        <time>2014-10-30T07:58:08Z</time>
      </trkpt>
      <trkpt lat="44.64196" lon="6.07262">
        <ele>1174.5</ele>
        <time>2014-10-30T07:58:29Z</time>
      </trkpt>
      <trkpt lat="44.642" lon="6.07256">
        <ele>1176.85</ele>
        <time>2014-10-30T07:58:48Z</time>
      </trkpt>
      <trkpt lat="44.64197" lon="6.07244">
        <ele>1179.21</ele>
        <time>2014-10-30T07:59:04Z</time>
      </trkpt>
      <trkpt lat="44.64198" lon="6.07222">
        <ele>1182.34</ele>
        <time>2014-10-30T07:59:22Z</time>
      </trkpt>
      <trkpt lat="44.642" lon="6.07209">
        <ele>1185.4</ele>
        <time>2014-10-30T07:59:36Z</time>
      </trkpt>
      <trkpt lat="44.64204" lon="6.07193">
        <ele>1188.56</ele>
        <time>2014-10-30T07:59:53Z</time>
      </trkpt>
      <trkpt lat="44.6421" lon="6.07177">
        <ele>1191.63</ele>
        <time>2014-10-30T08:00:10Z</time>
      </trkpt>
      <trkpt lat="44.64218" lon="6.07163">
        <ele>1194.25</ele>
        <time>2014-10-30T08:00:28Z</time>
      </trkpt>
      <trkpt lat="44.64222" lon="6.07152">
        <ele>1197.41</ele>
        <time>2014-10-30T08:00:44Z</time>
      </trkpt>
      <trkpt lat="44.64224" lon="6.07138">
        <ele>1200.48</ele>
        <time>2014-10-30T08:01:00Z</time>
      </trkpt>
      <trkpt lat="44.64231" lon="6.07123">
        <ele>1203.51</ele>
        <time>2014-10-30T08:01:18Z</time>
      </trkpt>
      <trkpt lat="44.64233" lon="6.07106">
        <ele>1206.66</ele>
        <time>2014-10-30T08:01:34Z</time>
      </trkpt>
      <trkpt lat="44.64242" lon="6.07093">
        <ele>1209.69</ele>
        <time>2014-10-30T08:01:52Z</time>
      </trkpt>
      <trkpt lat="44.64248" lon="6.07078">
        <ele>1212.72</ele>
        <time>2014-10-30T08:02:09Z</time>
      </trkpt>
      <trkpt lat="44.64251" lon="6.0706">
        <ele>1215.83</ele>
        <time>2014-10-30T08:02:35Z</time>
      </trkpt>
      <trkpt lat="44.64253" lon="6.07047">
        <ele>1218.91</ele>
        <time>2014-10-30T08:02:50Z</time>
      </trkpt>
      <trkpt lat="44.64255" lon="6.07036">
        <ele>1222.06</ele>
        <time>2014-10-30T08:03:09Z</time>
      </trkpt>
      <trkpt lat="44.64255" lon="6.07021">
        <ele>1225.16</ele>
        <time>2014-10-30T08:03:27Z</time>
      </trkpt>
      <trkpt lat="44.64255" lon="6.07007">
        <ele>1228.38</ele>
        <time>2014-10-30T08:03:42Z</time>
      </trkpt>
      <trkpt lat="44.64254" lon="6.0699">
        <ele>1231.25</ele>
        <time>2014-10-30T08:04:02Z</time>
      </trkpt>
      <trkpt lat="44.64252" lon="6.06973">
        <ele>1234.37</ele>
        <time>2014-10-30T08:04:21Z</time>
      </trkpt>
      <trkpt lat="44.64252" lon="6.06955">
        <ele>1237.27</ele>
        <time>2014-10-30T08:04:41Z</time>
      </trkpt>
      <trkpt lat="44.64251" lon="6.06944">
        <ele>1240.38</ele>
        <time>2014-10-30T08:04:56Z</time>
      </trkpt>
      <trkpt lat="44.64249" lon="6.0693">
        <ele>1243.39</ele>
        <time>2014-10-30T08:05:13Z</time>
      </trkpt>
      <trkpt lat="44.64247" lon="6.06918">
        <ele>1246.44</ele>
        <time>2014-10-30T08:05:28Z</time>
      </trkpt>
      <trkpt lat="44.64246" lon="6.06904">
        <ele>1249.44</ele>
        <time>2014-10-30T08:05:48Z</time>
      </trkpt>
      <trkpt lat="44.64236" lon="6.06888">
        <ele>1252.4</ele>
        <time>2014-10-30T08:06:07Z</time>
      </trkpt>
      <trkpt lat="44.64227" lon="6.06879">
        <ele>1255.41</ele>
        <time>2014-10-30T08:06:26Z</time>
      </trkpt>
      <trkpt lat="44.64218" lon="6.06874">
        <ele>1258.45</ele>
        <time>2014-10-30T08:06:44Z</time>
      </trkpt>
      <trkpt lat="44.6421" lon="6.06864">
        <ele>1261.34</ele>
        <time>2014-10-30T08:07:04Z</time>
      </trkpt>
      <trkpt lat="44.64204" lon="6.06859">
        <ele>1263.32</ele>
        <time>2014-10-30T08:07:25Z</time>
      </trkpt>
      <trkpt lat="44.64204" lon="6.06858">
        <ele>1263.42</ele>
        <time>2014-10-30T08:07:26Z</time>
      </trkpt>
      <trkpt lat="44.64191" lon="6.06844">
        <ele>1265.36</ele>
        <time>2014-10-30T08:07:45Z</time>
      </trkpt>
      <trkpt lat="44.64183" lon="6.06836">
        <ele>1268.44</ele>
        <time>2014-10-30T08:08:01Z</time>
      </trkpt>
      <trkpt lat="44.64177" lon="6.06825">
        <ele>1271.35</ele>
        <time>2014-10-30T08:08:19Z</time>
      </trkpt>
      <trkpt lat="44.64167" lon="6.06814">
        <ele>1274.35</ele>
        <time>2014-10-30T08:08:37Z</time>
      </trkpt>
      <trkpt lat="44.64159" lon="6.06802">
        <ele>1276.72</ele>
        <time>2014-10-30T08:08:57Z</time>
      </trkpt>
      <trkpt lat="44.64153" lon="6.06792">
        <ele>1279.51</ele>
        <time>2014-10-30T08:09:15Z</time>
      </trkpt>
      <trkpt lat="44.6415" lon="6.06782">
        <ele>1281.48</ele>
        <time>2014-10-30T08:09:34Z</time>
      </trkpt>
      <trkpt lat="44.64143" lon="6.06769">
        <ele>1284.56</ele>
        <time>2014-10-30T08:09:53Z</time>
      </trkpt>
      <trkpt lat="44.64137" lon="6.06755">
        <ele>1287.75</ele>
        <time>2014-10-30T08:10:09Z</time>
      </trkpt>
      <trkpt lat="44.64131" lon="6.06737">
        <ele>1290.26</ele>
        <time>2014-10-30T08:10:29Z</time>
      </trkpt>
      <trkpt lat="44.64126" lon="6.06724">
        <ele>1293.4</ele>
        <time>2014-10-30T08:10:47Z</time>
      </trkpt>
      <trkpt lat="44.64125" lon="6.06703">
        <ele>1296.35</ele>
        <time>2014-10-30T08:11:07Z</time>
      </trkpt>
      <trkpt lat="44.64121" lon="6.06689">
        <ele>1299.03</ele>
        <time>2014-10-30T08:11:25Z</time>
      </trkpt>
      <trkpt lat="44.64116" lon="6.06677">
        <ele>1302.11</ele>
        <time>2014-10-30T08:11:43Z</time>
      </trkpt>
      <trkpt lat="44.64115" lon="6.06673">
        <ele>1302.83</ele>
        <time>2014-10-30T08:11:50Z</time>
      </trkpt>
      <trkpt lat="44.64109" lon="6.06659">
        <ele>1305.82</ele>
        <time>2014-10-30T08:12:09Z</time>
      </trkpt>
      <trkpt lat="44.64101" lon="6.06645">
        <ele>1308.94</ele>
        <time>2014-10-30T08:12:26Z</time>
      </trkpt>
      <trkpt lat="44.64094" lon="6.06632">
        <ele>1311.97</ele>
        <time>2014-10-30T08:12:44Z</time>
      </trkpt>
      <trkpt lat="44.64086" lon="6.06617">
        <ele>1314.83</ele>
        <time>2014-10-30T08:13:05Z</time>
      </trkpt>
      <trkpt lat="44.64086" lon="6.06596">
        <ele>1317.99</ele>
        <time>2014-10-30T08:13:24Z</time>
      </trkpt>
      <trkpt lat="44.64081" lon="6.06582">
        <ele>1320.74</ele>
        <time>2014-10-30T08:13:42Z</time>
      </trkpt>
      <trkpt lat="44.64076" lon="6.06571">
        <ele>1323.84</ele>
        <time>2014-10-30T08:14:01Z</time>
      </trkpt>
      <trkpt lat="44.64076" lon="6.0656">
        <ele>1327</ele>
        <time>2014-10-30T08:14:16Z</time>
      </trkpt>
      <trkpt lat="44.64077" lon="6.06548">
        <ele>1328.89</ele>
        <time>2014-10-30T08:14:29Z</time>
      </trkpt>
      <trkpt lat="44.64079" lon="6.06535">
        <ele>1331.82</ele>
        <time>2014-10-30T08:14:48Z</time>
      </trkpt>
      <trkpt lat="44.64077" lon="6.06522">
        <ele>1334.83</ele>
        <time>2014-10-30T08:15:06Z</time>
      </trkpt>
      <trkpt lat="44.64078" lon="6.06505">
        <ele>1337.83</ele>
        <time>2014-10-30T08:15:28Z</time>
      </trkpt>
      <trkpt lat="44.64081" lon="6.06498">
        <ele>1339.54</ele>
        <time>2014-10-30T08:15:44Z</time>
      </trkpt>
      <trkpt lat="44.64087" lon="6.06487">
        <ele>1341.79</ele>
        <time>2014-10-30T08:15:58Z</time>
      </trkpt>
      <trkpt lat="44.64092" lon="6.06484">
        <ele>1344.94</ele>
        <time>2014-10-30T08:16:15Z</time>
      </trkpt>
      <trkpt lat="44.641" lon="6.06479">
        <ele>1348.09</ele>
        <time>2014-10-30T08:16:29Z</time>
      </trkpt>
      <trkpt lat="44.64105" lon="6.06471">
        <ele>1350.08</ele>
        <time>2014-10-30T08:16:45Z</time>
      </trkpt>
      <trkpt lat="44.64116" lon="6.06468">
        <ele>1351.4</ele>
        <time>2014-10-30T08:17:03Z</time>
      </trkpt>
      <trkpt lat="44.64119" lon="6.06469">
        <ele>1352.03</ele>
        <time>2014-10-30T08:17:07Z</time>
      </trkpt>
      <trkpt lat="44.64128" lon="6.06465">
        <ele>1355.21</ele>
        <time>2014-10-30T08:17:27Z</time>
      </trkpt>
      <trkpt lat="44.64128" lon="6.06459">
        <ele>1358.29</ele>
        <time>2014-10-30T08:17:47Z</time>
      </trkpt>
      <trkpt lat="44.64125" lon="6.06448">
        <ele>1361.29</ele>
        <time>2014-10-30T08:18:04Z</time>
      </trkpt>
      <trkpt lat="44.64117" lon="6.06436">
        <ele>1364.34</ele>
        <time>2014-10-30T08:18:25Z</time>
      </trkpt>
      <trkpt lat="44.6412" lon="6.06428">
        <ele>1367.45</ele>
        <time>2014-10-30T08:18:43Z</time>
      </trkpt>
      <trkpt lat="44.64129" lon="6.06425">
        <ele>1369.94</ele>
        <time>2014-10-30T08:19:01Z</time>
      </trkpt>
      <trkpt lat="44.64147" lon="6.06417">
        <ele>1372.58</ele>
        <time>2014-10-30T08:19:24Z</time>
      </trkpt>
      <trkpt lat="44.64161" lon="6.06415">
        <ele>1375.03</ele>
        <time>2014-10-30T08:19:43Z</time>
      </trkpt>
      <trkpt lat="44.64172" lon="6.06406">
        <ele>1378.06</ele>
        <time>2014-10-30T08:20:04Z</time>
      </trkpt>
      <trkpt lat="44.64184" lon="6.064">
        <ele>1379.47</ele>
        <time>2014-10-30T08:20:22Z</time>
      </trkpt>
      <trkpt lat="44.64201" lon="6.06403">
        <ele>1381.22</ele>
        <time>2014-10-30T08:20:46Z</time>
      </trkpt>
      <trkpt lat="44.64217" lon="6.06412">
        <ele>1384.29</ele>
        <time>2014-10-30T08:21:05Z</time>
      </trkpt>
      <trkpt lat="44.64227" lon="6.06407">
        <ele>1387.34</ele>
        <time>2014-10-30T08:21:24Z</time>
      </trkpt>
      <trkpt lat="44.64234" lon="6.06395">
        <ele>1390.39</ele>
        <time>2014-10-30T08:21:43Z</time>
      </trkpt>
      <trkpt lat="44.64232" lon="6.06379">
        <ele>1392.24</ele>
        <time>2014-10-30T08:22:02Z</time>
      </trkpt>
      <trkpt lat="44.64229" lon="6.06363">
        <ele>1395.28</ele>
        <time>2014-10-30T08:22:23Z</time>
      </trkpt>
      <trkpt lat="44.64219" lon="6.06346">
        <ele>1398.43</ele>
        <time>2014-10-30T08:22:44Z</time>
      </trkpt>
      <trkpt lat="44.6421" lon="6.06332">
        <ele>1401.69</ele>
        <time>2014-10-30T08:23:03Z</time>
      </trkpt>
      <trkpt lat="44.64209" lon="6.06318">
        <ele>1404.69</ele>
        <time>2014-10-30T08:23:23Z</time>
      </trkpt>
      <trkpt lat="44.64204" lon="6.06309">
        <ele>1407.72</ele>
        <time>2014-10-30T08:23:42Z</time>
      </trkpt>
      <trkpt lat="44.64198" lon="6.06301">
        <ele>1410.67</ele>
        <time>2014-10-30T08:24:02Z</time>
      </trkpt>
      <trkpt lat="44.64191" lon="6.06293">
        <ele>1412.76</ele>
        <time>2014-10-30T08:24:18Z</time>
      </trkpt>
      <trkpt lat="44.64185" lon="6.0629">
        <ele>1415.57</ele>
        <time>2014-10-30T08:24:40Z</time>
      </trkpt>
      <trkpt lat="44.64177" lon="6.06283">
        <ele>1417.08</ele>
        <time>2014-10-30T08:25:08Z</time>
      </trkpt>
      <trkpt lat="44.64182" lon="6.06289">
        <ele>1417.45</ele>
        <time>2014-10-30T08:25:37Z</time>
      </trkpt>
      <trkpt lat="44.6418" lon="6.06282">
        <ele>1418.52</ele>
        <time>2014-10-30T08:26:01Z</time>
      </trkpt>
      <trkpt lat="44.64176" lon="6.06281">
        <ele>1417.9</ele>
        <time>2014-10-30T08:26:26Z</time>
      </trkpt>
      <trkpt lat="44.64179" lon="6.06281">
        <ele>1418.68</ele>
        <time>2014-10-30T08:26:41Z</time>
      </trkpt>
      <trkpt lat="44.64174" lon="6.06275">
        <ele>1419.92</ele>
        <time>2014-10-30T08:27:27Z</time>
      </trkpt>
      <trkpt lat="44.64177" lon="6.06276">
        <ele>1420.2</ele>
        <time>2014-10-30T08:27:38Z</time>
      </trkpt>
      <trkpt lat="44.64185" lon="6.06286">
        <ele>1421.55</ele>
        <time>2014-10-30T08:28:07Z</time>
      </trkpt>
      <trkpt lat="44.64191" lon="6.0629">
        <ele>1422.43</ele>
        <time>2014-10-30T08:28:35Z</time>
      </trkpt>
      <trkpt lat="44.64187" lon="6.06292">
        <ele>1423.35</ele>
        <time>2014-10-30T08:29:11Z</time>
      </trkpt>
      <trkpt lat="44.64187" lon="6.06295">
        <ele>1424.4</ele>
        <time>2014-10-30T08:29:40Z</time>
      </trkpt>
      <trkpt lat="44.6418" lon="6.0629">
        <ele>1425.11</ele>
        <time>2014-10-30T08:29:54Z</time>
      </trkpt>
      <trkpt lat="44.64171" lon="6.06277">
        <ele>1426.06</ele>
        <time>2014-10-30T08:30:12Z</time>
      </trkpt>
      <trkpt lat="44.64164" lon="6.06262">
        <ele>1428.77</ele>
        <time>2014-10-30T08:30:29Z</time>
      </trkpt>
      <trkpt lat="44.64158" lon="6.06252">
        <ele>1430.38</ele>
        <time>2014-10-30T08:30:40Z</time>
      </trkpt>
      <trkpt lat="44.64158" lon="6.0625">
        <ele>1430.74</ele>
        <time>2014-10-30T08:30:43Z</time>
      </trkpt>
      <trkpt lat="44.64154" lon="6.06239">
        <ele>1432.58</ele>
        <time>2014-10-30T08:30:55Z</time>
      </trkpt>
      <trkpt lat="44.64145" lon="6.06232">
        <ele>1434.96</ele>
        <time>2014-10-30T08:31:11Z</time>
      </trkpt>
      <trkpt lat="44.64133" lon="6.06225">
        <ele>1437.27</ele>
        <time>2014-10-30T08:31:24Z</time>
      </trkpt>
      <trkpt lat="44.6412" lon="6.06214">
        <ele>1439.24</ele>
        <time>2014-10-30T08:31:39Z</time>
      </trkpt>
      <trkpt lat="44.64115" lon="6.06209">
        <ele>1440.15</ele>
        <time>2014-10-30T08:31:44Z</time>
      </trkpt>
      <trkpt lat="44.6411" lon="6.06199">
        <ele>1441.84</ele>
        <time>2014-10-30T08:31:56Z</time>
      </trkpt>
      <trkpt lat="44.64102" lon="6.06189">
        <ele>1444.02</ele>
        <time>2014-10-30T08:32:14Z</time>
      </trkpt>
      <trkpt lat="44.64101" lon="6.06188">
        <ele>1444.3</ele>
        <time>2014-10-30T08:32:16Z</time>
      </trkpt>
      <trkpt lat="44.6409" lon="6.06181">
        <ele>1445.81</ele>
        <time>2014-10-30T08:32:30Z</time>
      </trkpt>
      <trkpt lat="44.64083" lon="6.0618">
        <ele>1447.28</ele>
        <time>2014-10-30T08:32:42Z</time>
      </trkpt>
      <trkpt lat="44.64076" lon="6.0618">
        <ele>1449.41</ele>
        <time>2014-10-30T08:33:00Z</time>
      </trkpt>
      <trkpt lat="44.64072" lon="6.06181">
        <ele>1451</ele>
        <time>2014-10-30T08:33:13Z</time>
      </trkpt>
      <trkpt lat="44.64063" lon="6.06185">
        <ele>1453.71</ele>
        <time>2014-10-30T08:33:36Z</time>
      </trkpt>
      <trkpt lat="44.64042" lon="6.06191">
        <ele>1455.7</ele>
        <time>2014-10-30T08:33:52Z</time>
      </trkpt>
      <trkpt lat="44.64037" lon="6.06192">
        <ele>1456.86</ele>
        <time>2014-10-30T08:34:02Z</time>
      </trkpt>
      <trkpt lat="44.64033" lon="6.06198">
        <ele>1459.26</ele>
        <time>2014-10-30T08:34:19Z</time>
      </trkpt>
      <trkpt lat="44.64031" lon="6.06198">
        <ele>1459.81</ele>
        <time>2014-10-30T08:34:22Z</time>
      </trkpt>
      <trkpt lat="44.64013" lon="6.062">
        <ele>1461.44</ele>
        <time>2014-10-30T08:34:35Z</time>
      </trkpt>
      <trkpt lat="44.63991" lon="6.06191">
        <ele>1463.09</ele>
        <time>2014-10-30T08:34:50Z</time>
      </trkpt>
      <trkpt lat="44.63989" lon="6.06177">
        <ele>1464.57</ele>
        <time>2014-10-30T08:35:04Z</time>
      </trkpt>
      <trkpt lat="44.63997" lon="6.06167">
        <ele>1465.62</ele>
        <time>2014-10-30T08:35:17Z</time>
      </trkpt>
      <trkpt lat="44.64002" lon="6.0616">
        <ele>1466.02</ele>
        <time>2014-10-30T08:35:27Z</time>
      </trkpt>
      <trkpt lat="44.64007" lon="6.06153">
        <ele>1466.89</ele>
        <time>2014-10-30T08:35:36Z</time>
      </trkpt>
      <trkpt lat="44.64013" lon="6.0615">
        <ele>1468.28</ele>
        <time>2014-10-30T08:35:48Z</time>
      </trkpt>
      <trkpt lat="44.64021" lon="6.0614">
        <ele>1469.75</ele>
        <time>2014-10-30T08:36:03Z</time>
      </trkpt>
      <trkpt lat="44.64026" lon="6.06133">
        <ele>1471.23</ele>
        <time>2014-10-30T08:36:15Z</time>
      </trkpt>
      <trkpt lat="44.64033" lon="6.06125">
        <ele>1472.21</ele>
        <time>2014-10-30T08:36:26Z</time>
      </trkpt>
      <trkpt lat="44.64043" lon="6.06117">
        <ele>1473.91</ele>
        <time>2014-10-30T08:36:40Z</time>
      </trkpt>
      <trkpt lat="44.64053" lon="6.06103">
        <ele>1475.63</ele>
        <time>2014-10-30T08:36:57Z</time>
      </trkpt>
      <trkpt lat="44.64061" lon="6.06097">
        <ele>1476.41</ele>
        <time>2014-10-30T08:37:07Z</time>
      </trkpt>
      <trkpt lat="44.64073" lon="6.06094">
        <ele>1478.99</ele>
        <time>2014-10-30T08:37:21Z</time>
      </trkpt>
      <trkpt lat="44.64085" lon="6.0609">
        <ele>1480.01</ele>
        <time>2014-10-30T08:37:35Z</time>
      </trkpt>
      <trkpt lat="44.64103" lon="6.06086">
        <ele>1482.5</ele>
        <time>2014-10-30T08:38:00Z</time>
      </trkpt>
      <trkpt lat="44.64118" lon="6.06086">
        <ele>1485.53</ele>
        <time>2014-10-30T08:38:26Z</time>
      </trkpt>
      <trkpt lat="44.64132" lon="6.06081">
        <ele>1487.5</ele>
        <time>2014-10-30T08:38:46Z</time>
      </trkpt>
      <trkpt lat="44.64143" lon="6.06075">
        <ele>1489.6</ele>
        <time>2014-10-30T08:39:02Z</time>
      </trkpt>
      <trkpt lat="44.64149" lon="6.06064">
        <ele>1490.68</ele>
        <time>2014-10-30T08:39:17Z</time>
      </trkpt>
      <trkpt lat="44.64157" lon="6.0604">
        <ele>1493.38</ele>
        <time>2014-10-30T08:39:45Z</time>
      </trkpt>
      <trkpt lat="44.64156" lon="6.06011">
        <ele>1495.77</ele>
        <time>2014-10-30T08:40:12Z</time>
      </trkpt>
      <trkpt lat="44.64165" lon="6.05986">
        <ele>1498.87</ele>
        <time>2014-10-30T08:40:36Z</time>
      </trkpt>
      <trkpt lat="44.64165" lon="6.05971">
        <ele>1501.98</ele>
        <time>2014-10-30T08:40:55Z</time>
      </trkpt>
      <trkpt lat="44.64164" lon="6.05949">
        <ele>1505.02</ele>
        <time>2014-10-30T08:41:15Z</time>
      </trkpt>
      <trkpt lat="44.64165" lon="6.05919">
        <ele>1507.7</ele>
        <time>2014-10-30T08:41:44Z</time>
      </trkpt>
      <trkpt lat="44.64172" lon="6.05888">
        <ele>1510.11</ele>
        <time>2014-10-30T08:42:11Z</time>
      </trkpt>
      <trkpt lat="44.64182" lon="6.05866">
        <ele>1513.06</ele>
        <time>2014-10-30T08:42:38Z</time>
      </trkpt>
      <trkpt lat="44.6419" lon="6.05852">
        <ele>1514.87</ele>
        <time>2014-10-30T08:42:55Z</time>
      </trkpt>
      <trkpt lat="44.64196" lon="6.0584">
        <ele>1516.04</ele>
        <time>2014-10-30T08:43:11Z</time>
      </trkpt>
      <trkpt lat="44.64203" lon="6.05833">
        <ele>1517.29</ele>
        <time>2014-10-30T08:43:23Z</time>
      </trkpt>
      <trkpt lat="44.64205" lon="6.05832">
        <ele>1517.4</ele>
        <time>2014-10-30T08:43:24Z</time>
      </trkpt>
      <trkpt lat="44.64214" lon="6.05829">
        <ele>1519.01</ele>
        <time>2014-10-30T08:43:36Z</time>
      </trkpt>
      <trkpt lat="44.64232" lon="6.05814">
        <ele>1521.97</ele>
        <time>2014-10-30T08:44:03Z</time>
      </trkpt>
      <trkpt lat="44.64245" lon="6.05804">
        <ele>1524.15</ele>
        <time>2014-10-30T08:44:22Z</time>
      </trkpt>
      <trkpt lat="44.64253" lon="6.05799">
        <ele>1525.38</ele>
        <time>2014-10-30T08:44:33Z</time>
      </trkpt>
      <trkpt lat="44.64262" lon="6.05798">
        <ele>1526.82</ele>
        <time>2014-10-30T08:44:47Z</time>
      </trkpt>
      <trkpt lat="44.64272" lon="6.05789">
        <ele>1527.9</ele>
        <time>2014-10-30T08:45:00Z</time>
      </trkpt>
      <trkpt lat="44.64278" lon="6.05775">
        <ele>1529.78</ele>
        <time>2014-10-30T08:45:15Z</time>
      </trkpt>
      <trkpt lat="44.64289" lon="6.05766">
        <ele>1531.53</ele>
        <time>2014-10-30T08:45:31Z</time>
      </trkpt>
      <trkpt lat="44.64293" lon="6.05759">
        <ele>1532.8</ele>
        <time>2014-10-30T08:45:41Z</time>
      </trkpt>
      <trkpt lat="44.643" lon="6.05754">
        <ele>1533.88</ele>
        <time>2014-10-30T08:45:49Z</time>
      </trkpt>
      <trkpt lat="44.64312" lon="6.05746">
        <ele>1535.51</ele>
        <time>2014-10-30T08:46:02Z</time>
      </trkpt>
      <trkpt lat="44.64324" lon="6.05736">
        <ele>1537.74</ele>
        <time>2014-10-30T08:46:19Z</time>
      </trkpt>
      <trkpt lat="44.64331" lon="6.05727">
        <ele>1539.4</ele>
        <time>2014-10-30T08:46:30Z</time>
      </trkpt>
      <trkpt lat="44.64342" lon="6.05711">
        <ele>1541.6</ele>
        <time>2014-10-30T08:46:48Z</time>
      </trkpt>
      <trkpt lat="44.64354" lon="6.057">
        <ele>1543.61</ele>
        <time>2014-10-30T08:47:03Z</time>
      </trkpt>
      <trkpt lat="44.64366" lon="6.05693">
        <ele>1545.09</ele>
        <time>2014-10-30T08:47:16Z</time>
      </trkpt>
      <trkpt lat="44.64377" lon="6.0568">
        <ele>1547.06</ele>
        <time>2014-10-30T08:47:38Z</time>
      </trkpt>
      <trkpt lat="44.6438" lon="6.05678">
        <ele>1550.14</ele>
        <time>2014-10-30T08:48:00Z</time>
      </trkpt>
      <trkpt lat="44.64378" lon="6.05679">
        <ele>1551.19</ele>
        <time>2014-10-30T08:48:07Z</time>
      </trkpt>
      <trkpt lat="44.64355" lon="6.05676">
        <ele>1554.18</ele>
        <time>2014-10-30T08:48:29Z</time>
      </trkpt>
      <trkpt lat="44.6434" lon="6.05674">
        <ele>1555.93</ele>
        <time>2014-10-30T08:48:44Z</time>
      </trkpt>
      <trkpt lat="44.6433" lon="6.05675">
        <ele>1557.39</ele>
        <time>2014-10-30T08:48:55Z</time>
      </trkpt>
      <trkpt lat="44.64324" lon="6.05676">
        <ele>1558.86</ele>
        <time>2014-10-30T08:49:07Z</time>
      </trkpt>
      <trkpt lat="44.64317" lon="6.05676">
        <ele>1560.96</ele>
        <time>2014-10-30T08:49:25Z</time>
      </trkpt>
      <trkpt lat="44.64312" lon="6.05677">
        <ele>1562.7</ele>
        <time>2014-10-30T08:49:39Z</time>
      </trkpt>
      <trkpt lat="44.64297" lon="6.05681">
        <ele>1565.06</ele>
        <time>2014-10-30T08:50:02Z</time>
      </trkpt>
      <trkpt lat="44.64294" lon="6.05681">
        <ele>1565.45</ele>
        <time>2014-10-30T08:50:05Z</time>
      </trkpt>
      <trkpt lat="44.64283" lon="6.05677">
        <ele>1566.95</ele>
        <time>2014-10-30T08:50:16Z</time>
      </trkpt>
      <trkpt lat="44.64275" lon="6.05676">
        <ele>1567.92</ele>
        <time>2014-10-30T08:50:25Z</time>
      </trkpt>
      <trkpt lat="44.64269" lon="6.05675">
        <ele>1569.73</ele>
        <time>2014-10-30T08:50:41Z</time>
      </trkpt>
      <trkpt lat="44.64261" lon="6.05673">
        <ele>1571.45</ele>
        <time>2014-10-30T08:50:59Z</time>
      </trkpt>
      <trkpt lat="44.64249" lon="6.05673">
        <ele>1573.76</ele>
        <time>2014-10-30T08:51:20Z</time>
      </trkpt>
      <trkpt lat="44.64251" lon="6.05668">
        <ele>1576.13</ele>
        <time>2014-10-30T08:51:37Z</time>
      </trkpt>
      <trkpt lat="44.64255" lon="6.05664">
        <ele>1577.04</ele>
        <time>2014-10-30T08:51:45Z</time>
      </trkpt>
      <trkpt lat="44.64267" lon="6.05654">
        <ele>1579.92</ele>
        <time>2014-10-30T08:52:10Z</time>
      </trkpt>
      <trkpt lat="44.64272" lon="6.05648">
        <ele>1581.36</ele>
        <time>2014-10-30T08:52:21Z</time>
      </trkpt>
      <trkpt lat="44.64283" lon="6.05638">
        <ele>1584.29</ele>
        <time>2014-10-30T08:52:41Z</time>
      </trkpt>
      <trkpt lat="44.6429" lon="6.05623">
        <ele>1586.79</ele>
        <time>2014-10-30T08:53:04Z</time>
      </trkpt>
      <trkpt lat="44.64305" lon="6.05607">
        <ele>1589.9</ele>
        <time>2014-10-30T08:53:26Z</time>
      </trkpt>
      <trkpt lat="44.64308" lon="6.05605">
        <ele>1590.39</ele>
        <time>2014-10-30T08:53:30Z</time>
      </trkpt>
      <trkpt lat="44.64319" lon="6.05593">
        <ele>1592.05</ele>
        <time>2014-10-30T08:53:46Z</time>
      </trkpt>
      <trkpt lat="44.64327" lon="6.05574">
        <ele>1594.52</ele>
        <time>2014-10-30T08:54:06Z</time>
      </trkpt>
      <trkpt lat="44.64335" lon="6.05566">
        <ele>1596.61</ele>
        <time>2014-10-30T08:54:20Z</time>
      </trkpt>
      <trkpt lat="44.64343" lon="6.05551">
        <ele>1598.44</ele>
        <time>2014-10-30T08:54:39Z</time>
      </trkpt>
      <trkpt lat="44.64348" lon="6.05537">
        <ele>1600.69</ele>
        <time>2014-10-30T08:55:00Z</time>
      </trkpt>
      <trkpt lat="44.64354" lon="6.05528">
        <ele>1601.97</ele>
        <time>2014-10-30T08:55:22Z</time>
      </trkpt>
      <trkpt lat="44.64356" lon="6.05509">
        <ele>1604.51</ele>
        <time>2014-10-30T08:55:44Z</time>
      </trkpt>
      <trkpt lat="44.64357" lon="6.05493">
        <ele>1606.57</ele>
        <time>2014-10-30T08:56:05Z</time>
      </trkpt>
      <trkpt lat="44.64362" lon="6.05478">
        <ele>1608.76</ele>
        <time>2014-10-30T08:56:25Z</time>
      </trkpt>
      <trkpt lat="44.64361" lon="6.05471">
        <ele>1609.71</ele>
        <time>2014-10-30T08:56:42Z</time>
      </trkpt>
      <trkpt lat="44.64357" lon="6.05472">
        <ele>1609.63</ele>
        <time>2014-10-30T08:57:13Z</time>
      </trkpt>
      <trkpt lat="44.64359" lon="6.05474">
        <ele>1609.82</ele>
        <time>2014-10-30T08:57:47Z</time>
      </trkpt>
      <trkpt lat="44.64362" lon="6.05477">
        <ele>1610.33</ele>
        <time>2014-10-30T08:58:08Z</time>
      </trkpt>
      <trkpt lat="44.64366" lon="6.05476">
        <ele>1610.34</ele>
        <time>2014-10-30T08:58:12Z</time>
      </trkpt>
      <trkpt lat="44.64381" lon="6.05462">
        <ele>1612.28</ele>
        <time>2014-10-30T08:58:28Z</time>
      </trkpt>
      <trkpt lat="44.64386" lon="6.05461">
        <ele>1613.45</ele>
        <time>2014-10-30T08:58:33Z</time>
      </trkpt>
      <trkpt lat="44.644" lon="6.05462">
        <ele>1616.74</ele>
        <time>2014-10-30T08:58:46Z</time>
      </trkpt>
      <trkpt lat="44.64413" lon="6.05462">
        <ele>1618.54</ele>
        <time>2014-10-30T08:58:58Z</time>
      </trkpt>
      <trkpt lat="44.64429" lon="6.05456">
        <ele>1621.79</ele>
        <time>2014-10-30T08:59:14Z</time>
      </trkpt>
      <trkpt lat="44.64442" lon="6.05442">
        <ele>1624.29</ele>
        <time>2014-10-30T08:59:30Z</time>
      </trkpt>
      <trkpt lat="44.64446" lon="6.0544">
        <ele>1625.08</ele>
        <time>2014-10-30T08:59:34Z</time>
      </trkpt>
      <trkpt lat="44.6446" lon="6.05432">
        <ele>1627.65</ele>
        <time>2014-10-30T08:59:49Z</time>
      </trkpt>
      <trkpt lat="44.64469" lon="6.05427">
        <ele>1630.69</ele>
        <time>2014-10-30T09:00:08Z</time>
      </trkpt>
      <trkpt lat="44.64482" lon="6.05415">
        <ele>1633.68</ele>
        <time>2014-10-30T09:00:32Z</time>
      </trkpt>
      <trkpt lat="44.64496" lon="6.05407">
        <ele>1636.16</ele>
        <time>2014-10-30T09:00:56Z</time>
      </trkpt>
      <trkpt lat="44.64504" lon="6.05391">
        <ele>1637.93</ele>
        <time>2014-10-30T09:01:15Z</time>
      </trkpt>
      <trkpt lat="44.64515" lon="6.05391">
        <ele>1639.92</ele>
        <time>2014-10-30T09:01:36Z</time>
      </trkpt>
      <trkpt lat="44.6453" lon="6.05383">
        <ele>1642.08</ele>
        <time>2014-10-30T09:01:59Z</time>
      </trkpt>
      <trkpt lat="44.64542" lon="6.05373">
        <ele>1645.11</ele>
        <time>2014-10-30T09:02:22Z</time>
      </trkpt>
      <trkpt lat="44.6455" lon="6.05356">
        <ele>1647.93</ele>
        <time>2014-10-30T09:02:43Z</time>
      </trkpt>
      <trkpt lat="44.64557" lon="6.05337">
        <ele>1650.4</ele>
        <time>2014-10-30T09:03:05Z</time>
      </trkpt>
      <trkpt lat="44.64565" lon="6.05325">
        <ele>1652.77</ele>
        <time>2014-10-30T09:03:27Z</time>
      </trkpt>
      <trkpt lat="44.6457" lon="6.05306">
        <ele>1655.69</ele>
        <time>2014-10-30T09:03:49Z</time>
      </trkpt>
      <trkpt lat="44.64579" lon="6.05299">
        <ele>1657.82</ele>
        <time>2014-10-30T09:04:06Z</time>
      </trkpt>
      <trkpt lat="44.64591" lon="6.05281">
        <ele>1659.57</ele>
        <time>2014-10-30T09:04:30Z</time>
      </trkpt>
      <trkpt lat="44.646" lon="6.0526">
        <ele>1662.58</ele>
        <time>2014-10-30T09:04:55Z</time>
      </trkpt>
      <trkpt lat="44.64605" lon="6.05249">
        <ele>1664.13</ele>
        <time>2014-10-30T09:05:10Z</time>
      </trkpt>
      <trkpt lat="44.64609" lon="6.05235">
        <ele>1666.67</ele>
        <time>2014-10-30T09:05:31Z</time>
      </trkpt>
      <trkpt lat="44.64615" lon="6.05227">
        <ele>1668.19</ele>
        <time>2014-10-30T09:05:51Z</time>
      </trkpt>
      <trkpt lat="44.6462" lon="6.05217">
        <ele>1670.35</ele>
        <time>2014-10-30T09:06:11Z</time>
      </trkpt>
      <trkpt lat="44.6463" lon="6.0521">
        <ele>1673.44</ele>
        <time>2014-10-30T09:06:33Z</time>
      </trkpt>
      <trkpt lat="44.64632" lon="6.052">
        <ele>1676.27</ele>
        <time>2014-10-30T09:06:54Z</time>
      </trkpt>
      <trkpt lat="44.64634" lon="6.05191">
        <ele>1677.49</ele>
        <time>2014-10-30T09:07:16Z</time>
      </trkpt>
      <trkpt lat="44.64635" lon="6.0519">
        <ele>1677.58</ele>
        <time>2014-10-30T09:07:21Z</time>
      </trkpt>
      <trkpt lat="44.64632" lon="6.05184">
        <ele>1678.75</ele>
        <time>2014-10-30T09:07:49Z</time>
      </trkpt>
      <trkpt lat="44.64635" lon="6.05188">
        <ele>1678.82</ele>
        <time>2014-10-30T09:08:15Z</time>
      </trkpt>
      <trkpt lat="44.64632" lon="6.05189">
        <ele>1679.01</ele>
        <time>2014-10-30T09:08:46Z</time>
      </trkpt>
      <trkpt lat="44.64631" lon="6.05189">
        <ele>1679.38</ele>
        <time>2014-10-30T09:09:12Z</time>
      </trkpt>
      <trkpt lat="44.64636" lon="6.05191">
        <ele>1679.51</ele>
        <time>2014-10-30T09:09:42Z</time>
      </trkpt>
      <trkpt lat="44.64622" lon="6.05196">
        <ele>1681.23</ele>
        <time>2014-10-30T09:10:04Z</time>
      </trkpt>
      <trkpt lat="44.64618" lon="6.05194">
        <ele>1683.63</ele>
        <time>2014-10-30T09:10:29Z</time>
      </trkpt>
      <trkpt lat="44.64624" lon="6.05185">
        <ele>1686.64</ele>
        <time>2014-10-30T09:10:48Z</time>
      </trkpt>
      <trkpt lat="44.64629" lon="6.05171">
        <ele>1689.68</ele>
        <time>2014-10-30T09:11:09Z</time>
      </trkpt>
      <trkpt lat="44.64631" lon="6.05156">
        <ele>1692.27</ele>
        <time>2014-10-30T09:11:31Z</time>
      </trkpt>
      <trkpt lat="44.64629" lon="6.05145">
        <ele>1693.36</ele>
        <time>2014-10-30T09:11:54Z</time>
      </trkpt>
      <trkpt lat="44.64629" lon="6.05136">
        <ele>1694.34</ele>
        <time>2014-10-30T09:12:12Z</time>
      </trkpt>
      <trkpt lat="44.64628" lon="6.05133">
        <ele>1694.84</ele>
        <time>2014-10-30T09:12:19Z</time>
      </trkpt>
      <trkpt lat="44.64624" lon="6.05122">
        <ele>1695.55</ele>
        <time>2014-10-30T09:12:36Z</time>
      </trkpt>
      <trkpt lat="44.64625" lon="6.05113">
        <ele>1696.28</ele>
        <time>2014-10-30T09:12:47Z</time>
      </trkpt>
      <trkpt lat="44.64633" lon="6.05116">
        <ele>1697.52</ele>
        <time>2014-10-30T09:13:03Z</time>
      </trkpt>
      <trkpt lat="44.6464" lon="6.05126">
        <ele>1698.93</ele>
        <time>2014-10-30T09:13:21Z</time>
      </trkpt>
      <trkpt lat="44.64654" lon="6.05128">
        <ele>1699.8</ele>
        <time>2014-10-30T09:13:42Z</time>
      </trkpt>
      <trkpt lat="44.64668" lon="6.05126">
        <ele>1702.24</ele>
        <time>2014-10-30T09:14:02Z</time>
      </trkpt>
      <trkpt lat="44.64677" lon="6.05112">
        <ele>1705.06</ele>
        <time>2014-10-30T09:14:24Z</time>
      </trkpt>
      <trkpt lat="44.64675" lon="6.05106">
        <ele>1707.95</ele>
        <time>2014-10-30T09:14:46Z</time>
      </trkpt>
      <trkpt lat="44.64665" lon="6.05108">
        <ele>1710.47</ele>
        <time>2014-10-30T09:15:12Z</time>
      </trkpt>
      <trkpt lat="44.6467" lon="6.05097">
        <ele>1712.81</ele>
        <time>2014-10-30T09:15:32Z</time>
      </trkpt>
      <trkpt lat="44.64675" lon="6.05092">
        <ele>1715.18</ele>
        <time>2014-10-30T09:15:46Z</time>
      </trkpt>
      <trkpt lat="44.64679" lon="6.05079">
        <ele>1717.14</ele>
        <time>2014-10-30T09:16:02Z</time>
      </trkpt>
      <trkpt lat="44.64683" lon="6.05073">
        <ele>1718.81</ele>
        <time>2014-10-30T09:16:18Z</time>
      </trkpt>
      <trkpt lat="44.64688" lon="6.05071">
        <ele>1719.6</ele>
        <time>2014-10-30T09:16:43Z</time>
      </trkpt>
      <trkpt lat="44.64688" lon="6.05064">
        <ele>1719.75</ele>
        <time>2014-10-30T09:17:03Z</time>
      </trkpt>
      <trkpt lat="44.64689" lon="6.05061">
        <ele>1720.38</ele>
        <time>2014-10-30T09:17:14Z</time>
      </trkpt>
      <trkpt lat="44.64696" lon="6.05059">
        <ele>1719.95</ele>
        <time>2014-10-30T09:17:36Z</time>
      </trkpt>
      <trkpt lat="44.64693" lon="6.05052">
        <ele>1718.07</ele>
        <time>2014-10-30T09:17:56Z</time>
      </trkpt>
      <trkpt lat="44.64691" lon="6.05045">
        <ele>1718.2</ele>
        <time>2014-10-30T09:18:12Z</time>
      </trkpt>
      <trkpt lat="44.64696" lon="6.05046">
        <ele>1721.17</ele>
        <time>2014-10-30T09:18:30Z</time>
      </trkpt>
      <trkpt lat="44.64699" lon="6.0505">
        <ele>1722.47</ele>
        <time>2014-10-30T09:18:49Z</time>
      </trkpt>
      <trkpt lat="44.64705" lon="6.05052">
        <ele>1722.87</ele>
        <time>2014-10-30T09:19:16Z</time>
      </trkpt>
      <trkpt lat="44.64704" lon="6.05049">
        <ele>1723.08</ele>
        <time>2014-10-30T09:19:43Z</time>
      </trkpt>
      <trkpt lat="44.64705" lon="6.0505">
        <ele>1722.59</ele>
        <time>2014-10-30T09:20:09Z</time>
      </trkpt>
      <trkpt lat="44.64702" lon="6.05046">
        <ele>1721.91</ele>
        <time>2014-10-30T09:20:38Z</time>
      </trkpt>
      <trkpt lat="44.64704" lon="6.05043">
        <ele>1722.11</ele>
        <time>2014-10-30T09:21:12Z</time>
      </trkpt>
      <trkpt lat="44.64704" lon="6.05047">
        <ele>1721.96</ele>
        <time>2014-10-30T09:21:44Z</time>
      </trkpt>
      <trkpt lat="44.64703" lon="6.05046">
        <ele>1722.15</ele>
        <time>2014-10-30T09:22:20Z</time>
      </trkpt>
      <trkpt lat="44.64702" lon="6.05047">
        <ele>1722.05</ele>
        <time>2014-10-30T09:22:48Z</time>
      </trkpt>
      <trkpt lat="44.64703" lon="6.05046">
        <ele>1722.33</ele>
        <time>2014-10-30T09:23:28Z</time>
      </trkpt>
      <trkpt lat="44.64704" lon="6.0505">
        <ele>1722.35</ele>
        <time>2014-10-30T09:23:57Z</time>
      </trkpt>
      <trkpt lat="44.64705" lon="6.05048">
        <ele>1722.33</ele>
        <time>2014-10-30T09:24:26Z</time>
      </trkpt>
      <trkpt lat="44.64703" lon="6.05047">
        <ele>1722.49</ele>
        <time>2014-10-30T09:25:03Z</time>
      </trkpt>
      <trkpt lat="44.64703" lon="6.05046">
        <ele>1723.92</ele>
        <time>2014-10-30T09:25:22Z</time>
      </trkpt>
      <trkpt lat="44.64704" lon="6.0505">
        <ele>1723.81</ele>
        <time>2014-10-30T09:25:39Z</time>
      </trkpt>
      <trkpt lat="44.64705" lon="6.05046">
        <ele>1723.84</ele>
        <time>2014-10-30T09:26:05Z</time>
      </trkpt>
      <trkpt lat="44.64708" lon="6.05047">
        <ele>1724.12</ele>
        <time>2014-10-30T09:26:27Z</time>
      </trkpt>
      <trkpt lat="44.64716" lon="6.05039">
        <ele>1725.46</ele>
        <time>2014-10-30T09:26:43Z</time>
      </trkpt>
      <trkpt lat="44.64721" lon="6.05034">
        <ele>1727.1</ele>
        <time>2014-10-30T09:27:07Z</time>
      </trkpt>
      <trkpt lat="44.64729" lon="6.05036">
        <ele>1728.09</ele>
        <time>2014-10-30T09:27:23Z</time>
      </trkpt>
      <trkpt lat="44.6474" lon="6.05034">
        <ele>1728.96</ele>
        <time>2014-10-30T09:27:42Z</time>
      </trkpt>
      <trkpt lat="44.64751" lon="6.05034">
        <ele>1730.57</ele>
        <time>2014-10-30T09:27:57Z</time>
      </trkpt>
      <trkpt lat="44.64762" lon="6.05032">
        <ele>1732.33</ele>
        <time>2014-10-30T09:28:14Z</time>
      </trkpt>
      <trkpt lat="44.64776" lon="6.05028">
        <ele>1733.76</ele>
        <time>2014-10-30T09:28:34Z</time>
      </trkpt>
      <trkpt lat="44.64784" lon="6.05022">
        <ele>1734.97</ele>
        <time>2014-10-30T09:28:54Z</time>
      </trkpt>
      <trkpt lat="44.6479" lon="6.05037">
        <ele>1736.24</ele>
        <time>2014-10-30T09:29:14Z</time>
      </trkpt>
      <trkpt lat="44.64811" lon="6.05043">
        <ele>1738.26</ele>
        <time>2014-10-30T09:29:36Z</time>
      </trkpt>
      <trkpt lat="44.64819" lon="6.05056">
        <ele>1739.76</ele>
        <time>2014-10-30T09:29:56Z</time>
      </trkpt>
      <trkpt lat="44.64835" lon="6.05082">
        <ele>1740.57</ele>
        <time>2014-10-30T09:30:18Z</time>
      </trkpt>
      <trkpt lat="44.64844" lon="6.05103">
        <ele>1742.4</ele>
        <time>2014-10-30T09:30:43Z</time>
      </trkpt>
      <trkpt lat="44.64852" lon="6.05118">
        <ele>1743.88</ele>
        <time>2014-10-30T09:31:07Z</time>
      </trkpt>
      <trkpt lat="44.6485" lon="6.05098">
        <ele>1746.32</ele>
        <time>2014-10-30T09:31:27Z</time>
      </trkpt>
      <trkpt lat="44.64849" lon="6.05079">
        <ele>1749.1</ele>
        <time>2014-10-30T09:31:55Z</time>
      </trkpt>
      <trkpt lat="44.64849" lon="6.05064">
        <ele>1752.12</ele>
        <time>2014-10-30T09:32:16Z</time>
      </trkpt>
      <trkpt lat="44.64848" lon="6.05053">
        <ele>1754.77</ele>
        <time>2014-10-30T09:32:36Z</time>
      </trkpt>
      <trkpt lat="44.64847" lon="6.05037">
        <ele>1757.27</ele>
        <time>2014-10-30T09:32:58Z</time>
      </trkpt>
      <trkpt lat="44.64854" lon="6.05042">
        <ele>1758.92</ele>
        <time>2014-10-30T09:33:14Z</time>
      </trkpt>
      <trkpt lat="44.64864" lon="6.05056">
        <ele>1761.26</ele>
        <time>2014-10-30T09:33:36Z</time>
      </trkpt>
      <trkpt lat="44.64872" lon="6.05067">
        <ele>1763.68</ele>
        <time>2014-10-30T09:33:57Z</time>
      </trkpt>
      <trkpt lat="44.64882" lon="6.05078">
        <ele>1766.75</ele>
        <time>2014-10-30T09:34:21Z</time>
      </trkpt>
      <trkpt lat="44.6489" lon="6.0509">
        <ele>1769.45</ele>
        <time>2014-10-30T09:34:44Z</time>
      </trkpt>
      <trkpt lat="44.64889" lon="6.05076">
        <ele>1771.73</ele>
        <time>2014-10-30T09:35:01Z</time>
      </trkpt>
      <trkpt lat="44.64886" lon="6.05051">
        <ele>1774.44</ele>
        <time>2014-10-30T09:35:29Z</time>
      </trkpt>
      <trkpt lat="44.64885" lon="6.05036">
        <ele>1777.45</ele>
        <time>2014-10-30T09:35:54Z</time>
      </trkpt>
      <trkpt lat="44.64883" lon="6.05018">
        <ele>1780.35</ele>
        <time>2014-10-30T09:36:17Z</time>
      </trkpt>
      <trkpt lat="44.64882" lon="6.04998">
        <ele>1783.06</ele>
        <time>2014-10-30T09:36:40Z</time>
      </trkpt>
      <trkpt lat="44.6488" lon="6.04976">
        <ele>1785.92</ele>
        <time>2014-10-30T09:37:06Z</time>
      </trkpt>
      <trkpt lat="44.64877" lon="6.04958">
        <ele>1789.02</ele>
        <time>2014-10-30T09:37:32Z</time>
      </trkpt>
      <trkpt lat="44.64882" lon="6.04962">
        <ele>1790.89</ele>
        <time>2014-10-30T09:37:50Z</time>
      </trkpt>
      <trkpt lat="44.64891" lon="6.0497">
        <ele>1793.69</ele>
        <time>2014-10-30T09:38:13Z</time>
      </trkpt>
      <trkpt lat="44.64902" lon="6.04983">
        <ele>1795.98</ele>
        <time>2014-10-30T09:38:37Z</time>
      </trkpt>
      <trkpt lat="44.64907" lon="6.04984">
        <ele>1798.36</ele>
        <time>2014-10-30T09:38:58Z</time>
      </trkpt>
      <trkpt lat="44.64906" lon="6.04964">
        <ele>1801.4</ele>
        <time>2014-10-30T09:39:22Z</time>
      </trkpt>
      <trkpt lat="44.64907" lon="6.04946">
        <ele>1804.48</ele>
        <time>2014-10-30T09:39:48Z</time>
      </trkpt>
      <trkpt lat="44.64905" lon="6.04936">
        <ele>1805.47</ele>
        <time>2014-10-30T09:40:16Z</time>
      </trkpt>
      <trkpt lat="44.64902" lon="6.04915">
        <ele>1808.62</ele>
        <time>2014-10-30T09:40:38Z</time>
      </trkpt>
      <trkpt lat="44.64908" lon="6.0492">
        <ele>1810.23</ele>
        <time>2014-10-30T09:40:55Z</time>
      </trkpt>
      <trkpt lat="44.64917" lon="6.04933">
        <ele>1813.28</ele>
        <time>2014-10-30T09:41:17Z</time>
      </trkpt>
      <trkpt lat="44.64925" lon="6.04944">
        <ele>1816.25</ele>
        <time>2014-10-30T09:41:41Z</time>
      </trkpt>
      <trkpt lat="44.64931" lon="6.04954">
        <ele>1818.85</ele>
        <time>2014-10-30T09:42:02Z</time>
      </trkpt>
      <trkpt lat="44.64941" lon="6.04969">
        <ele>1821.45</ele>
        <time>2014-10-30T09:42:24Z</time>
      </trkpt>
      <trkpt lat="44.64947" lon="6.04968">
        <ele>1822.81</ele>
        <time>2014-10-30T09:42:41Z</time>
      </trkpt>
      <trkpt lat="44.64949" lon="6.04955">
        <ele>1825.5</ele>
        <time>2014-10-30T09:43:04Z</time>
      </trkpt>
      <trkpt lat="44.64958" lon="6.04941">
        <ele>1828.23</ele>
        <time>2014-10-30T09:43:29Z</time>
      </trkpt>
      <trkpt lat="44.64959" lon="6.0493">
        <ele>1831.01</ele>
        <time>2014-10-30T09:43:53Z</time>
      </trkpt>
      <trkpt lat="44.6496" lon="6.04928">
        <ele>1832.08</ele>
        <time>2014-10-30T09:44:15Z</time>
      </trkpt>
      <trkpt lat="44.6496" lon="6.04926">
        <ele>1831.76</ele>
        <time>2014-10-30T09:44:40Z</time>
      </trkpt>
      <trkpt lat="44.64959" lon="6.04926">
        <ele>1831.89</ele>
        <time>2014-10-30T09:45:02Z</time>
      </trkpt>
      <trkpt lat="44.64956" lon="6.04922">
        <ele>1832.42</ele>
        <time>2014-10-30T09:45:29Z</time>
      </trkpt>
      <trkpt lat="44.64955" lon="6.04918">
        <ele>1833.45</ele>
        <time>2014-10-30T09:45:49Z</time>
      </trkpt>
      <trkpt lat="44.64957" lon="6.0491">
        <ele>1834.47</ele>
        <time>2014-10-30T09:46:06Z</time>
      </trkpt>
      <trkpt lat="44.64955" lon="6.04897">
        <ele>1837.53</ele>
        <time>2014-10-30T09:46:28Z</time>
      </trkpt>
      <trkpt lat="44.64958" lon="6.0489">
        <ele>1840.6</ele>
        <time>2014-10-30T09:46:47Z</time>
      </trkpt>
      <trkpt lat="44.64959" lon="6.04883">
        <ele>1843.19</ele>
        <time>2014-10-30T09:47:09Z</time>
      </trkpt>
      <trkpt lat="44.64954" lon="6.04874">
        <ele>1846.26</ele>
        <time>2014-10-30T09:47:31Z</time>
      </trkpt>
      <trkpt lat="44.64952" lon="6.04869">
        <ele>1846.57</ele>
        <time>2014-10-30T09:47:52Z</time>
      </trkpt>
      <trkpt lat="44.64952" lon="6.04865">
        <ele>1847.99</ele>
        <time>2014-10-30T09:48:16Z</time>
      </trkpt>
      <trkpt lat="44.6495" lon="6.04861">
        <ele>1849.24</ele>
        <time>2014-10-30T09:48:37Z</time>
      </trkpt>
      <trkpt lat="44.64949" lon="6.04857">
        <ele>1850.49</ele>
        <time>2014-10-30T09:48:58Z</time>
      </trkpt>
      <trkpt lat="44.64949" lon="6.04851">
        <ele>1852.04</ele>
        <time>2014-10-30T09:49:15Z</time>
      </trkpt>
      <trkpt lat="44.64947" lon="6.04845">
        <ele>1853.63</ele>
        <time>2014-10-30T09:49:31Z</time>
      </trkpt>
      <trkpt lat="44.64946" lon="6.04839">
        <ele>1855.08</ele>
        <time>2014-10-30T09:49:46Z</time>
      </trkpt>
      <trkpt lat="44.64943" lon="6.04828">
        <ele>1858.24</ele>
        <time>2014-10-30T09:50:07Z</time>
      </trkpt>
      <trkpt lat="44.64939" lon="6.04822">
        <ele>1861.17</ele>
        <time>2014-10-30T09:50:26Z</time>
      </trkpt>
      <trkpt lat="44.64936" lon="6.0481">
        <ele>1862.86</ele>
        <time>2014-10-30T09:50:45Z</time>
      </trkpt>
      <trkpt lat="44.64934" lon="6.04805">
        <ele>1865.38</ele>
        <time>2014-10-30T09:51:01Z</time>
      </trkpt>
      <trkpt lat="44.64942" lon="6.0481">
        <ele>1867.82</ele>
        <time>2014-10-30T09:51:26Z</time>
      </trkpt>
      <trkpt lat="44.6495" lon="6.04814">
        <ele>1870.71</ele>
        <time>2014-10-30T09:51:52Z</time>
      </trkpt>
      <trkpt lat="44.64947" lon="6.04804">
        <ele>1871.93</ele>
        <time>2014-10-30T09:52:09Z</time>
      </trkpt>
      <trkpt lat="44.64939" lon="6.04785">
        <ele>1875.05</ele>
        <time>2014-10-30T09:52:30Z</time>
      </trkpt>
      <trkpt lat="44.64931" lon="6.04773">
        <ele>1877.33</ele>
        <time>2014-10-30T09:52:48Z</time>
      </trkpt>
      <trkpt lat="44.64927" lon="6.04762">
        <ele>1879.76</ele>
        <time>2014-10-30T09:53:05Z</time>
      </trkpt>
      <trkpt lat="44.64923" lon="6.04751">
        <ele>1881.35</ele>
        <time>2014-10-30T09:53:21Z</time>
      </trkpt>
      <trkpt lat="44.64917" lon="6.04735">
        <ele>1883.77</ele>
        <time>2014-10-30T09:53:43Z</time>
      </trkpt>
      <trkpt lat="44.64908" lon="6.04719">
        <ele>1886.6</ele>
        <time>2014-10-30T09:54:10Z</time>
      </trkpt>
      <trkpt lat="44.649" lon="6.04714">
        <ele>1888.05</ele>
        <time>2014-10-30T09:54:27Z</time>
      </trkpt>
      <trkpt lat="44.64893" lon="6.04707">
        <ele>1890.38</ele>
        <time>2014-10-30T09:54:44Z</time>
      </trkpt>
      <trkpt lat="44.64879" lon="6.04696">
        <ele>1892.94</ele>
        <time>2014-10-30T09:55:10Z</time>
      </trkpt>
      <trkpt lat="44.64866" lon="6.04688">
        <ele>1893.92</ele>
        <time>2014-10-30T09:55:34Z</time>
      </trkpt>
      <trkpt lat="44.64854" lon="6.04681">
        <ele>1896.05</ele>
        <time>2014-10-30T09:55:54Z</time>
      </trkpt>
      <trkpt lat="44.6484" lon="6.04672">
        <ele>1898.39</ele>
        <time>2014-10-30T09:56:16Z</time>
      </trkpt>
      <trkpt lat="44.6483" lon="6.04667">
        <ele>1899.33</ele>
        <time>2014-10-30T09:56:33Z</time>
      </trkpt>
      <trkpt lat="44.64814" lon="6.04664">
        <ele>1901.9</ele>
        <time>2014-10-30T09:56:55Z</time>
      </trkpt>
      <trkpt lat="44.64802" lon="6.04661">
        <ele>1904.03</ele>
        <time>2014-10-30T09:57:17Z</time>
      </trkpt>
      <trkpt lat="44.64787" lon="6.04661">
        <ele>1906.73</ele>
        <time>2014-10-30T09:57:43Z</time>
      </trkpt>
      <trkpt lat="44.64773" lon="6.04661">
        <ele>1908.12</ele>
        <time>2014-10-30T09:58:06Z</time>
      </trkpt>
      <trkpt lat="44.6476" lon="6.04659">
        <ele>1909.64</ele>
        <time>2014-10-30T09:58:26Z</time>
      </trkpt>
      <trkpt lat="44.64759" lon="6.04656">
        <ele>1910.32</ele>
        <time>2014-10-30T09:58:44Z</time>
      </trkpt>
      <trkpt lat="44.64757" lon="6.04657">
        <ele>1910.44</ele>
        <time>2014-10-30T09:59:14Z</time>
      </trkpt>
      <trkpt lat="44.64755" lon="6.04657">
        <ele>1910.33</ele>
        <time>2014-10-30T09:59:38Z</time>
      </trkpt>
      <trkpt lat="44.64754" lon="6.04658">
        <ele>1910.31</ele>
        <time>2014-10-30T10:00:04Z</time>
      </trkpt>
      <trkpt lat="44.64752" lon="6.04658">
        <ele>1910.18</ele>
        <time>2014-10-30T10:00:24Z</time>
      </trkpt>
      <trkpt lat="44.64751" lon="6.04657">
        <ele>1909.94</ele>
        <time>2014-10-30T10:00:50Z</time>
      </trkpt>
      <trkpt lat="44.64751" lon="6.04658">
        <ele>1910.24</ele>
        <time>2014-10-30T10:01:11Z</time>
      </trkpt>
      <trkpt lat="44.64752" lon="6.04657">
        <ele>1910.24</ele>
        <time>2014-10-30T10:01:32Z</time>
      </trkpt>
      <trkpt lat="44.64752" lon="6.04659">
        <ele>1910.31</ele>
        <time>2014-10-30T10:01:51Z</time>
      </trkpt>
      <trkpt lat="44.64752" lon="6.04656">
        <ele>1910.1</ele>
        <time>2014-10-30T10:02:22Z</time>
      </trkpt>
      <trkpt lat="44.64756" lon="6.04657">
        <ele>1910.49</ele>
        <time>2014-10-30T10:02:52Z</time>
      </trkpt>
      <trkpt lat="44.64763" lon="6.04658">
        <ele>1911.7</ele>
        <time>2014-10-30T10:03:14Z</time>
      </trkpt>
      <trkpt lat="44.64767" lon="6.04656">
        <ele>1912.11</ele>
        <time>2014-10-30T10:03:36Z</time>
      </trkpt>
      <trkpt lat="44.64775" lon="6.04654">
        <ele>1912.95</ele>
        <time>2014-10-30T10:03:55Z</time>
      </trkpt>
      <trkpt lat="44.64787" lon="6.04651">
        <ele>1913.57</ele>
        <time>2014-10-30T10:04:08Z</time>
      </trkpt>
      <trkpt lat="44.6479" lon="6.04649">
        <ele>1913.69</ele>
        <time>2014-10-30T10:04:11Z</time>
      </trkpt>
      <trkpt lat="44.64806" lon="6.04643">
        <ele>1914.19</ele>
        <time>2014-10-30T10:04:29Z</time>
      </trkpt>
      <trkpt lat="44.64824" lon="6.04638">
        <ele>1914.25</ele>
        <time>2014-10-30T10:04:48Z</time>
      </trkpt>
      <trkpt lat="44.6484" lon="6.04635">
        <ele>1915.04</ele>
        <time>2014-10-30T10:05:05Z</time>
      </trkpt>
      <trkpt lat="44.64855" lon="6.04632">
        <ele>1918.22</ele>
        <time>2014-10-30T10:05:27Z</time>
      </trkpt>
      <trkpt lat="44.64865" lon="6.04629">
        <ele>1921.63</ele>
        <time>2014-10-30T10:05:47Z</time>
      </trkpt>
      <trkpt lat="44.64875" lon="6.04629">
        <ele>1924.74</ele>
        <time>2014-10-30T10:06:09Z</time>
      </trkpt>
      <trkpt lat="44.64884" lon="6.04627">
        <ele>1927.76</ele>
        <time>2014-10-30T10:06:30Z</time>
      </trkpt>
      <trkpt lat="44.64894" lon="6.04627">
        <ele>1930.88</ele>
        <time>2014-10-30T10:06:49Z</time>
      </trkpt>
      <trkpt lat="44.64905" lon="6.04623">
        <ele>1933.58</ele>
        <time>2014-10-30T10:07:12Z</time>
      </trkpt>
      <trkpt lat="44.6492" lon="6.04616">
        <ele>1936.23</ele>
        <time>2014-10-30T10:07:36Z</time>
      </trkpt>
      <trkpt lat="44.64934" lon="6.04608">
        <ele>1938.1</ele>
        <time>2014-10-30T10:07:57Z</time>
      </trkpt>
      <trkpt lat="44.64946" lon="6.04607">
        <ele>1940.38</ele>
        <time>2014-10-30T10:08:23Z</time>
      </trkpt>
      <trkpt lat="44.64952" lon="6.04606">
        <ele>1942.97</ele>
        <time>2014-10-30T10:08:47Z</time>
      </trkpt>
      <trkpt lat="44.64956" lon="6.04608">
        <ele>1944.2</ele>
        <time>2014-10-30T10:09:08Z</time>
      </trkpt>
      <trkpt lat="44.64962" lon="6.04613">
        <ele>1946.69</ele>
        <time>2014-10-30T10:09:26Z</time>
      </trkpt>
      <trkpt lat="44.64965" lon="6.04611">
        <ele>1949.69</ele>
        <time>2014-10-30T10:09:51Z</time>
      </trkpt>
      <trkpt lat="44.64973" lon="6.04614">
        <ele>1952.51</ele>
        <time>2014-10-30T10:10:16Z</time>
      </trkpt>
      <trkpt lat="44.64979" lon="6.04614">
        <ele>1955.57</ele>
        <time>2014-10-30T10:10:37Z</time>
      </trkpt>
      <trkpt lat="44.64982" lon="6.0461">
        <ele>1957.92</ele>
        <time>2014-10-30T10:10:59Z</time>
      </trkpt>
      <trkpt lat="44.6499" lon="6.04617">
        <ele>1960.58</ele>
        <time>2014-10-30T10:11:24Z</time>
      </trkpt>
      <trkpt lat="44.64997" lon="6.04619">
        <ele>1963.59</ele>
        <time>2014-10-30T10:11:49Z</time>
      </trkpt>
      <trkpt lat="44.65004" lon="6.04622">
        <ele>1965.8</ele>
        <time>2014-10-30T10:12:13Z</time>
      </trkpt>
      <trkpt lat="44.65005" lon="6.04617">
        <ele>1968.49</ele>
        <time>2014-10-30T10:12:38Z</time>
      </trkpt>
      <trkpt lat="44.65007" lon="6.0461">
        <ele>1970.11</ele>
        <time>2014-10-30T10:13:00Z</time>
      </trkpt>
      <trkpt lat="44.65011" lon="6.04602">
        <ele>1973.17</ele>
        <time>2014-10-30T10:13:22Z</time>
      </trkpt>
      <trkpt lat="44.65017" lon="6.046">
        <ele>1975.79</ele>
        <time>2014-10-30T10:13:43Z</time>
      </trkpt>
      <trkpt lat="44.65022" lon="6.04599">
        <ele>1978.1</ele>
        <time>2014-10-30T10:14:12Z</time>
      </trkpt>
      <trkpt lat="44.65023" lon="6.046">
        <ele>1978.37</ele>
        <time>2014-10-30T10:14:36Z</time>
      </trkpt>
      <trkpt lat="44.65022" lon="6.046">
        <ele>1978.73</ele>
        <time>2014-10-30T10:15:05Z</time>
      </trkpt>
      <trkpt lat="44.65024" lon="6.046">
        <ele>1979.16</ele>
        <time>2014-10-30T10:15:31Z</time>
      </trkpt>
      <trkpt lat="44.6503" lon="6.04591">
        <ele>1980.46</ele>
        <time>2014-10-30T10:15:53Z</time>
      </trkpt>
      <trkpt lat="44.65032" lon="6.04589">
        <ele>1980.57</ele>
        <time>2014-10-30T10:16:17Z</time>
      </trkpt>
      <trkpt lat="44.65038" lon="6.04581">
        <ele>1980.5</ele>
        <time>2014-10-30T10:16:36Z</time>
      </trkpt>
      <trkpt lat="44.65047" lon="6.04572">
        <ele>1981.77</ele>
        <time>2014-10-30T10:16:52Z</time>
      </trkpt>
      <trkpt lat="44.65054" lon="6.04559">
        <ele>1983.67</ele>
        <time>2014-10-30T10:17:08Z</time>
      </trkpt>
      <trkpt lat="44.65063" lon="6.04546">
        <ele>1985.65</ele>
        <time>2014-10-30T10:17:28Z</time>
      </trkpt>
      <trkpt lat="44.65072" lon="6.04535">
        <ele>1987.44</ele>
        <time>2014-10-30T10:17:45Z</time>
      </trkpt>
      <trkpt lat="44.65079" lon="6.04527">
        <ele>1988.56</ele>
        <time>2014-10-30T10:18:00Z</time>
      </trkpt>
      <trkpt lat="44.65086" lon="6.04522">
        <ele>1989.24</ele>
        <time>2014-10-30T10:18:15Z</time>
      </trkpt>
      <trkpt lat="44.65094" lon="6.04515">
        <ele>1990.71</ele>
        <time>2014-10-30T10:18:33Z</time>
      </trkpt>
      <trkpt lat="44.65104" lon="6.04508">
        <ele>1993.28</ele>
        <time>2014-10-30T10:18:51Z</time>
      </trkpt>
      <trkpt lat="44.65109" lon="6.04499">
        <ele>1994.59</ele>
        <time>2014-10-30T10:19:08Z</time>
      </trkpt>
      <trkpt lat="44.65113" lon="6.04488">
        <ele>1994.33</ele>
        <time>2014-10-30T10:19:25Z</time>
      </trkpt>
      <trkpt lat="44.65118" lon="6.04476">
        <ele>1994.32</ele>
        <time>2014-10-30T10:19:39Z</time>
      </trkpt>
      <trkpt lat="44.65121" lon="6.04466">
        <ele>1994.91</ele>
        <time>2014-10-30T10:19:56Z</time>
      </trkpt>
      <trkpt lat="44.65123" lon="6.0445">
        <ele>1996.93</ele>
        <time>2014-10-30T10:20:20Z</time>
      </trkpt>
      <trkpt lat="44.65125" lon="6.0445">
        <ele>1998.13</ele>
        <time>2014-10-30T10:20:43Z</time>
      </trkpt>
      <trkpt lat="44.65126" lon="6.04448">
        <ele>1997.88</ele>
        <time>2014-10-30T10:20:49Z</time>
      </trkpt>
      <trkpt lat="44.65129" lon="6.04434">
        <ele>1998.02</ele>
        <time>2014-10-30T10:21:03Z</time>
      </trkpt>
      <trkpt lat="44.65135" lon="6.04422">
        <ele>1997.27</ele>
        <time>2014-10-30T10:21:23Z</time>
      </trkpt>
      <trkpt lat="44.6514" lon="6.04413">
        <ele>1997.25</ele>
        <time>2014-10-30T10:21:45Z</time>
      </trkpt>
      <trkpt lat="44.65146" lon="6.04396">
        <ele>1996.6</ele>
        <time>2014-10-30T10:22:04Z</time>
      </trkpt>
      <trkpt lat="44.65153" lon="6.04376">
        <ele>1994.73</ele>
        <time>2014-10-30T10:22:27Z</time>
      </trkpt>
      <trkpt lat="44.65158" lon="6.04365">
        <ele>1993.02</ele>
        <time>2014-10-30T10:22:50Z</time>
      </trkpt>
      <trkpt lat="44.65158" lon="6.04363">
        <ele>1993</ele>
        <time>2014-10-30T10:23:17Z</time>
      </trkpt>
      <trkpt lat="44.65163" lon="6.0435">
        <ele>1992.09</ele>
        <time>2014-10-30T10:23:35Z</time>
      </trkpt>
      <trkpt lat="44.65166" lon="6.04344">
        <ele>1992.33</ele>
        <time>2014-10-30T10:23:58Z</time>
      </trkpt>
      <trkpt lat="44.65168" lon="6.04337">
        <ele>1991.53</ele>
        <time>2014-10-30T10:24:22Z</time>
      </trkpt>
      <trkpt lat="44.65174" lon="6.04323">
        <ele>1990.74</ele>
        <time>2014-10-30T10:24:44Z</time>
      </trkpt>
      <trkpt lat="44.65176" lon="6.04321">
        <ele>1990.47</ele>
        <time>2014-10-30T10:24:47Z</time>
      </trkpt>
      <trkpt lat="44.65185" lon="6.04303">
        <ele>1989.19</ele>
        <time>2014-10-30T10:25:05Z</time>
      </trkpt>
      <trkpt lat="44.65193" lon="6.04288">
        <ele>1988.36</ele>
        <time>2014-10-30T10:25:22Z</time>
      </trkpt>
      <trkpt lat="44.652" lon="6.04272">
        <ele>1987.32</ele>
        <time>2014-10-30T10:25:37Z</time>
      </trkpt>
      <trkpt lat="44.65204" lon="6.04266">
        <ele>1986.47</ele>
        <time>2014-10-30T10:25:55Z</time>
      </trkpt>
      <trkpt lat="44.65206" lon="6.04265">
        <ele>1986.64</ele>
        <time>2014-10-30T10:26:21Z</time>
      </trkpt>
      <trkpt lat="44.65212" lon="6.0425">
        <ele>1986.44</ele>
        <time>2014-10-30T10:26:38Z</time>
      </trkpt>
      <trkpt lat="44.65215" lon="6.04244">
        <ele>1986.2</ele>
        <time>2014-10-30T10:26:45Z</time>
      </trkpt>
      <trkpt lat="44.65219" lon="6.04234">
        <ele>1986.2</ele>
        <time>2014-10-30T10:26:53Z</time>
      </trkpt>
      <trkpt lat="44.65224" lon="6.04222">
        <ele>1985.64</ele>
        <time>2014-10-30T10:27:08Z</time>
      </trkpt>
      <trkpt lat="44.65228" lon="6.04217">
        <ele>1985.4</ele>
        <time>2014-10-30T10:27:13Z</time>
      </trkpt>
      <trkpt lat="44.65236" lon="6.04199">
        <ele>1984.74</ele>
        <time>2014-10-30T10:27:33Z</time>
      </trkpt>
      <trkpt lat="44.65243" lon="6.04184">
        <ele>1983.77</ele>
        <time>2014-10-30T10:27:52Z</time>
      </trkpt>
      <trkpt lat="44.65248" lon="6.0417">
        <ele>1982.84</ele>
        <time>2014-10-30T10:28:09Z</time>
      </trkpt>
      <trkpt lat="44.65256" lon="6.04158">
        <ele>1983.58</ele>
        <time>2014-10-30T10:28:27Z</time>
      </trkpt>
      <trkpt lat="44.65263" lon="6.0415">
        <ele>1985.77</ele>
        <time>2014-10-30T10:28:45Z</time>
      </trkpt>
      <trkpt lat="44.65265" lon="6.04151">
        <ele>1986.11</ele>
        <time>2014-10-30T10:29:06Z</time>
      </trkpt>
      <trkpt lat="44.65268" lon="6.04143">
        <ele>1986.01</ele>
        <time>2014-10-30T10:29:27Z</time>
      </trkpt>
      <trkpt lat="44.65277" lon="6.04138">
        <ele>1989.13</ele>
        <time>2014-10-30T10:29:46Z</time>
      </trkpt>
      <trkpt lat="44.65285" lon="6.04127">
        <ele>1992.06</ele>
        <time>2014-10-30T10:30:05Z</time>
      </trkpt>
      <trkpt lat="44.6529" lon="6.04119">
        <ele>1993.79</ele>
        <time>2014-10-30T10:30:23Z</time>
      </trkpt>
      <trkpt lat="44.65299" lon="6.04106">
        <ele>1996.34</ele>
        <time>2014-10-30T10:30:41Z</time>
      </trkpt>
      <trkpt lat="44.65303" lon="6.04092">
        <ele>1998.44</ele>
        <time>2014-10-30T10:30:57Z</time>
      </trkpt>
      <trkpt lat="44.6531" lon="6.04071">
        <ele>2000.54</ele>
        <time>2014-10-30T10:31:23Z</time>
      </trkpt>
      <trkpt lat="44.65314" lon="6.04065">
        <ele>2001.85</ele>
        <time>2014-10-30T10:31:43Z</time>
      </trkpt>
      <trkpt lat="44.65317" lon="6.04058">
        <ele>2001.54</ele>
        <time>2014-10-30T10:32:06Z</time>
      </trkpt>
      <trkpt lat="44.65321" lon="6.04054">
        <ele>2001.64</ele>
        <time>2014-10-30T10:32:31Z</time>
      </trkpt>
      <trkpt lat="44.65332" lon="6.04041">
        <ele>1999.02</ele>
        <time>2014-10-30T10:32:52Z</time>
      </trkpt>
      <trkpt lat="44.65339" lon="6.04034">
        <ele>1995.9</ele>
        <time>2014-10-30T10:33:06Z</time>
      </trkpt>
      <trkpt lat="44.6535" lon="6.04029">
        <ele>1992.87</ele>
        <time>2014-10-30T10:33:21Z</time>
      </trkpt>
      <trkpt lat="44.65361" lon="6.04024">
        <ele>1989.94</ele>
        <time>2014-10-30T10:33:37Z</time>
      </trkpt>
      <trkpt lat="44.65368" lon="6.04024">
        <ele>1988.17</ele>
        <time>2014-10-30T10:33:46Z</time>
      </trkpt>
      <trkpt lat="44.65382" lon="6.04021">
        <ele>1985.4</ele>
        <time>2014-10-30T10:34:03Z</time>
      </trkpt>
      <trkpt lat="44.65395" lon="6.04017">
        <ele>1982.34</ele>
        <time>2014-10-30T10:34:19Z</time>
      </trkpt>
      <trkpt lat="44.65404" lon="6.04009">
        <ele>1979.49</ele>
        <time>2014-10-30T10:34:33Z</time>
      </trkpt>
      <trkpt lat="44.65411" lon="6.04003">
        <ele>1976.48</ele>
        <time>2014-10-30T10:34:47Z</time>
      </trkpt>
      <trkpt lat="44.65421" lon="6.04001">
        <ele>1973.8</ele>
        <time>2014-10-30T10:35:05Z</time>
      </trkpt>
      <trkpt lat="44.65428" lon="6.03995">
        <ele>1972.42</ele>
        <time>2014-10-30T10:35:29Z</time>
      </trkpt>
      <trkpt lat="44.65444" lon="6.03992">
        <ele>1971.76</ele>
        <time>2014-10-30T10:35:45Z</time>
      </trkpt>
      <trkpt lat="44.65463" lon="6.03984">
        <ele>1970.34</ele>
        <time>2014-10-30T10:36:05Z</time>
      </trkpt>
      <trkpt lat="44.65479" lon="6.03978">
        <ele>1969.16</ele>
        <time>2014-10-30T10:36:22Z</time>
      </trkpt>
      <trkpt lat="44.65496" lon="6.0397">
        <ele>1968.47</ele>
        <time>2014-10-30T10:36:40Z</time>
      </trkpt>
      <trkpt lat="44.65512" lon="6.03962">
        <ele>1969.15</ele>
        <time>2014-10-30T10:37:00Z</time>
      </trkpt>
      <trkpt lat="44.65526" lon="6.03954">
        <ele>1970.9</ele>
        <time>2014-10-30T10:37:19Z</time>
      </trkpt>
      <trkpt lat="44.65537" lon="6.03948">
        <ele>1972.08</ele>
        <time>2014-10-30T10:37:36Z</time>
      </trkpt>
      <trkpt lat="44.65547" lon="6.03948">
        <ele>1974.9</ele>
        <time>2014-10-30T10:37:55Z</time>
      </trkpt>
      <trkpt lat="44.6556" lon="6.03939">
        <ele>1977.43</ele>
        <time>2014-10-30T10:38:22Z</time>
      </trkpt>
      <trkpt lat="44.65572" lon="6.03931">
        <ele>1979.55</ele>
        <time>2014-10-30T10:38:45Z</time>
      </trkpt>
      <trkpt lat="44.65587" lon="6.03914">
        <ele>1980.79</ele>
        <time>2014-10-30T10:39:05Z</time>
      </trkpt>
      <trkpt lat="44.65599" lon="6.03904">
        <ele>1981.79</ele>
        <time>2014-10-30T10:39:24Z</time>
      </trkpt>
      <trkpt lat="44.65604" lon="6.03895">
        <ele>1982.09</ele>
        <time>2014-10-30T10:39:33Z</time>
      </trkpt>
      <trkpt lat="44.65614" lon="6.03885">
        <ele>1982.91</ele>
        <time>2014-10-30T10:39:51Z</time>
      </trkpt>
      <trkpt lat="44.65624" lon="6.03875">
        <ele>1984.6</ele>
        <time>2014-10-30T10:40:09Z</time>
      </trkpt>
      <trkpt lat="44.65635" lon="6.03866">
        <ele>1986.71</ele>
        <time>2014-10-30T10:40:30Z</time>
      </trkpt>
      <trkpt lat="44.65646" lon="6.03857">
        <ele>1988.75</ele>
        <time>2014-10-30T10:40:50Z</time>
      </trkpt>
      <trkpt lat="44.65657" lon="6.03846">
        <ele>1990.32</ele>
        <time>2014-10-30T10:41:09Z</time>
      </trkpt>
      <trkpt lat="44.65666" lon="6.03841">
        <ele>1992.11</ele>
        <time>2014-10-30T10:41:25Z</time>
      </trkpt>
      <trkpt lat="44.65674" lon="6.03836">
        <ele>1993.55</ele>
        <time>2014-10-30T10:41:41Z</time>
      </trkpt>
      <trkpt lat="44.65685" lon="6.03827">
        <ele>1994.72</ele>
        <time>2014-10-30T10:42:03Z</time>
      </trkpt>
      <trkpt lat="44.65687" lon="6.03826">
        <ele>1994.95</ele>
        <time>2014-10-30T10:42:27Z</time>
      </trkpt>
      <trkpt lat="44.65693" lon="6.03823">
        <ele>1995.13</ele>
        <time>2014-10-30T10:42:52Z</time>
      </trkpt>
      <trkpt lat="44.65704" lon="6.03816">
        <ele>1996.77</ele>
        <time>2014-10-30T10:43:10Z</time>
      </trkpt>
      <trkpt lat="44.65713" lon="6.03804">
        <ele>1997.01</ele>
        <time>2014-10-30T10:43:31Z</time>
      </trkpt>
      <trkpt lat="44.65721" lon="6.03799">
        <ele>1995.35</ele>
        <time>2014-10-30T10:43:52Z</time>
      </trkpt>
      <trkpt lat="44.65729" lon="6.03796">
        <ele>1994.59</ele>
        <time>2014-10-30T10:44:14Z</time>
      </trkpt>
      <trkpt lat="44.6574" lon="6.03792">
        <ele>1992.21</ele>
        <time>2014-10-30T10:44:38Z</time>
      </trkpt>
      <trkpt lat="44.65751" lon="6.03789">
        <ele>1991.14</ele>
        <time>2014-10-30T10:44:56Z</time>
      </trkpt>
      <trkpt lat="44.65763" lon="6.03788">
        <ele>1991.18</ele>
        <time>2014-10-30T10:45:17Z</time>
      </trkpt>
      <trkpt lat="44.65775" lon="6.03788">
        <ele>1990.88</ele>
        <time>2014-10-30T10:45:37Z</time>
      </trkpt>
      <trkpt lat="44.65786" lon="6.03788">
        <ele>1989.96</ele>
        <time>2014-10-30T10:46:00Z</time>
      </trkpt>
      <trkpt lat="44.65791" lon="6.03785">
        <ele>1988.72</ele>
        <time>2014-10-30T10:46:18Z</time>
      </trkpt>
      <trkpt lat="44.65796" lon="6.03786">
        <ele>1988.43</ele>
        <time>2014-10-30T10:46:26Z</time>
      </trkpt>
      <trkpt lat="44.65804" lon="6.03786">
        <ele>1987.87</ele>
        <time>2014-10-30T10:46:36Z</time>
      </trkpt>
      <trkpt lat="44.65819" lon="6.03785">
        <ele>1988.93</ele>
        <time>2014-10-30T10:46:53Z</time>
      </trkpt>
      <trkpt lat="44.65831" lon="6.03786">
        <ele>1990</ele>
        <time>2014-10-30T10:47:10Z</time>
      </trkpt>
      <trkpt lat="44.65843" lon="6.03786">
        <ele>1991.49</ele>
        <time>2014-10-30T10:47:27Z</time>
      </trkpt>
      <trkpt lat="44.65855" lon="6.03782">
        <ele>1991.5</ele>
        <time>2014-10-30T10:47:42Z</time>
      </trkpt>
      <trkpt lat="44.65868" lon="6.0378">
        <ele>1993.75</ele>
        <time>2014-10-30T10:48:00Z</time>
      </trkpt>
      <trkpt lat="44.65876" lon="6.0378">
        <ele>1994.78</ele>
        <time>2014-10-30T10:48:16Z</time>
      </trkpt>
      <trkpt lat="44.65883" lon="6.03777">
        <ele>1996.52</ele>
        <time>2014-10-30T10:48:31Z</time>
      </trkpt>
      <trkpt lat="44.65891" lon="6.03779">
        <ele>1997.95</ele>
        <time>2014-10-30T10:48:47Z</time>
      </trkpt>
      <trkpt lat="44.65899" lon="6.0378">
        <ele>2000.51</ele>
        <time>2014-10-30T10:49:07Z</time>
      </trkpt>
      <trkpt lat="44.65903" lon="6.0378">
        <ele>2002.15</ele>
        <time>2014-10-30T10:49:26Z</time>
      </trkpt>
      <trkpt lat="44.65909" lon="6.0378">
        <ele>2003.72</ele>
        <time>2014-10-30T10:49:43Z</time>
      </trkpt>
      <trkpt lat="44.65916" lon="6.03779">
        <ele>2006.33</ele>
        <time>2014-10-30T10:50:02Z</time>
      </trkpt>
      <trkpt lat="44.6592" lon="6.03781">
        <ele>2007.81</ele>
        <time>2014-10-30T10:50:19Z</time>
      </trkpt>
      <trkpt lat="44.65928" lon="6.03778">
        <ele>2010.13</ele>
        <time>2014-10-30T10:50:41Z</time>
      </trkpt>
      <trkpt lat="44.65934" lon="6.03778">
        <ele>2013.22</ele>
        <time>2014-10-30T10:51:02Z</time>
      </trkpt>
      <trkpt lat="44.65941" lon="6.0378">
        <ele>2015.88</ele>
        <time>2014-10-30T10:51:22Z</time>
      </trkpt>
      <trkpt lat="44.6595" lon="6.03777">
        <ele>2019.01</ele>
        <time>2014-10-30T10:51:44Z</time>
      </trkpt>
      <trkpt lat="44.65958" lon="6.03775">
        <ele>2022.03</ele>
        <time>2014-10-30T10:52:07Z</time>
      </trkpt>
      <trkpt lat="44.65963" lon="6.03774">
        <ele>2023.69</ele>
        <time>2014-10-30T10:52:23Z</time>
      </trkpt>
      <trkpt lat="44.65969" lon="6.0377">
        <ele>2025.77</ele>
        <time>2014-10-30T10:52:41Z</time>
      </trkpt>
      <trkpt lat="44.65976" lon="6.03765">
        <ele>2027.69</ele>
        <time>2014-10-30T10:52:57Z</time>
      </trkpt>
      <trkpt lat="44.65982" lon="6.03764">
        <ele>2029.98</ele>
        <time>2014-10-30T10:53:13Z</time>
      </trkpt>
      <trkpt lat="44.6599" lon="6.03761">
        <ele>2032.63</ele>
        <time>2014-10-30T10:53:33Z</time>
      </trkpt>
      <trkpt lat="44.65997" lon="6.0376">
        <ele>2034.31</ele>
        <time>2014-10-30T10:53:49Z</time>
      </trkpt>
      <trkpt lat="44.66008" lon="6.03757">
        <ele>2036.47</ele>
        <time>2014-10-30T10:54:05Z</time>
      </trkpt>
      <trkpt lat="44.6602" lon="6.03753">
        <ele>2038.56</ele>
        <time>2014-10-30T10:54:23Z</time>
      </trkpt>
      <trkpt lat="44.6603" lon="6.0375">
        <ele>2039.4</ele>
        <time>2014-10-30T10:54:39Z</time>
      </trkpt>
      <trkpt lat="44.66041" lon="6.03749">
        <ele>2040.31</ele>
        <time>2014-10-30T10:54:55Z</time>
      </trkpt>
      <trkpt lat="44.66051" lon="6.03747">
        <ele>2040.94</ele>
        <time>2014-10-30T10:55:08Z</time>
      </trkpt>
      <trkpt lat="44.66061" lon="6.03745">
        <ele>2042.23</ele>
        <time>2014-10-30T10:55:22Z</time>
      </trkpt>
      <trkpt lat="44.66073" lon="6.03744">
        <ele>2044.74</ele>
        <time>2014-10-30T10:55:39Z</time>
      </trkpt>
      <trkpt lat="44.66085" lon="6.03741">
        <ele>2046.51</ele>
        <time>2014-10-30T10:55:58Z</time>
      </trkpt>
      <trkpt lat="44.66088" lon="6.03738">
        <ele>2046.27</ele>
        <time>2014-10-30T10:56:13Z</time>
      </trkpt>
      <trkpt lat="44.6609" lon="6.03737">
        <ele>2046.5</ele>
        <time>2014-10-30T10:56:34Z</time>
      </trkpt>
      <trkpt lat="44.66093" lon="6.03737">
        <ele>2046.19</ele>
        <time>2014-10-30T10:56:55Z</time>
      </trkpt>
      <trkpt lat="44.66093" lon="6.03735">
        <ele>2045.61</ele>
        <time>2014-10-30T10:57:24Z</time>
      </trkpt>
      <trkpt lat="44.66092" lon="6.03736">
        <ele>2045.73</ele>
        <time>2014-10-30T10:57:47Z</time>
      </trkpt>
      <trkpt lat="44.66092" lon="6.03737">
        <ele>2045.79</ele>
        <time>2014-10-30T10:58:17Z</time>
      </trkpt>
      <trkpt lat="44.66092" lon="6.03736">
        <ele>2045.7</ele>
        <time>2014-10-30T10:58:41Z</time>
      </trkpt>
      <trkpt lat="44.66091" lon="6.0374">
        <ele>2046.29</ele>
        <time>2014-10-30T10:59:12Z</time>
      </trkpt>
      <trkpt lat="44.66089" lon="6.03753">
        <ele>2045.81</ele>
        <time>2014-10-30T10:59:28Z</time>
      </trkpt>
      <trkpt lat="44.66089" lon="6.03755">
        <ele>2045.11</ele>
        <time>2014-10-30T10:59:46Z</time>
      </trkpt>
      <trkpt lat="44.6609" lon="6.03756">
        <ele>2044.32</ele>
        <time>2014-10-30T11:00:09Z</time>
      </trkpt>
      <trkpt lat="44.66088" lon="6.03759">
        <ele>2044.26</ele>
        <time>2014-10-30T11:00:25Z</time>
      </trkpt>
      <trkpt lat="44.6609" lon="6.03763">
        <ele>2043.86</ele>
        <time>2014-10-30T11:00:45Z</time>
      </trkpt>
      <trkpt lat="44.66091" lon="6.03765">
        <ele>2041.77</ele>
        <time>2014-10-30T11:01:06Z</time>
      </trkpt>
      <trkpt lat="44.66091" lon="6.03769">
        <ele>2039.67</ele>
        <time>2014-10-30T11:01:23Z</time>
      </trkpt>
      <trkpt lat="44.6609" lon="6.03771">
        <ele>2037.89</ele>
        <time>2014-10-30T11:01:43Z</time>
      </trkpt>
      <trkpt lat="44.66094" lon="6.03776">
        <ele>2036.47</ele>
        <time>2014-10-30T11:02:01Z</time>
      </trkpt>
      <trkpt lat="44.66094" lon="6.03782">
        <ele>2034.8</ele>
        <time>2014-10-30T11:02:19Z</time>
      </trkpt>
      <trkpt lat="44.66096" lon="6.03786">
        <ele>2031.88</ele>
        <time>2014-10-30T11:02:40Z</time>
      </trkpt>
      <trkpt lat="44.66095" lon="6.0379">
        <ele>2030.63</ele>
        <time>2014-10-30T11:03:03Z</time>
      </trkpt>
      <trkpt lat="44.66093" lon="6.03797">
        <ele>2028.34</ele>
        <time>2014-10-30T11:03:26Z</time>
      </trkpt>
      <trkpt lat="44.66095" lon="6.03809">
        <ele>2026.2</ele>
        <time>2014-10-30T11:03:48Z</time>
      </trkpt>
      <trkpt lat="44.66099" lon="6.03815">
        <ele>2023.88</ele>
        <time>2014-10-30T11:04:08Z</time>
      </trkpt>
      <trkpt lat="44.66101" lon="6.0382">
        <ele>2020.83</ele>
        <time>2014-10-30T11:04:31Z</time>
      </trkpt>
      <trkpt lat="44.66106" lon="6.03827">
        <ele>2018.35</ele>
        <time>2014-10-30T11:04:53Z</time>
      </trkpt>
      <trkpt lat="44.66105" lon="6.03834">
        <ele>2015.33</ele>
        <time>2014-10-30T11:05:10Z</time>
      </trkpt>
      <trkpt lat="44.66106" lon="6.03841">
        <ele>2012.31</ele>
        <time>2014-10-30T11:05:33Z</time>
      </trkpt>
      <trkpt lat="44.66108" lon="6.03846">
        <ele>2010.26</ele>
        <time>2014-10-30T11:05:55Z</time>
      </trkpt>
      <trkpt lat="44.66105" lon="6.03848">
        <ele>2007.8</ele>
        <time>2014-10-30T11:06:15Z</time>
      </trkpt>
      <trkpt lat="44.66106" lon="6.03856">
        <ele>2006.66</ele>
        <time>2014-10-30T11:06:32Z</time>
      </trkpt>
      <trkpt lat="44.66109" lon="6.03861">
        <ele>2004.65</ele>
        <time>2014-10-30T11:06:51Z</time>
      </trkpt>
      <trkpt lat="44.66111" lon="6.03863">
        <ele>2003.11</ele>
        <time>2014-10-30T11:07:12Z</time>
      </trkpt>
      <trkpt lat="44.66113" lon="6.03865">
        <ele>2001.48</ele>
        <time>2014-10-30T11:07:32Z</time>
      </trkpt>
      <trkpt lat="44.66114" lon="6.03868">
        <ele>2000.05</ele>
        <time>2014-10-30T11:07:54Z</time>
      </trkpt>
      <trkpt lat="44.66112" lon="6.03874">
        <ele>1997.43</ele>
        <time>2014-10-30T11:08:15Z</time>
      </trkpt>
      <trkpt lat="44.66111" lon="6.03882">
        <ele>1995.53</ele>
        <time>2014-10-30T11:08:34Z</time>
      </trkpt>
      <trkpt lat="44.66114" lon="6.03887">
        <ele>1992.94</ele>
        <time>2014-10-30T11:08:49Z</time>
      </trkpt>
      <trkpt lat="44.66115" lon="6.03891">
        <ele>1991.78</ele>
        <time>2014-10-30T11:09:04Z</time>
      </trkpt>
      <trkpt lat="44.66117" lon="6.03892">
        <ele>1989.44</ele>
        <time>2014-10-30T11:09:21Z</time>
      </trkpt>
      <trkpt lat="44.66117" lon="6.03896">
        <ele>1987.67</ele>
        <time>2014-10-30T11:09:36Z</time>
      </trkpt>
      <trkpt lat="44.66123" lon="6.039">
        <ele>1985.72</ele>
        <time>2014-10-30T11:09:54Z</time>
      </trkpt>
      <trkpt lat="44.66125" lon="6.039">
        <ele>1983.49</ele>
        <time>2014-10-30T11:10:12Z</time>
      </trkpt>
      <trkpt lat="44.6613" lon="6.03901">
        <ele>1982.22</ele>
        <time>2014-10-30T11:10:34Z</time>
      </trkpt>
      <trkpt lat="44.66132" lon="6.03905">
        <ele>1980.43</ele>
        <time>2014-10-30T11:10:54Z</time>
      </trkpt>
      <trkpt lat="44.66136" lon="6.03907">
        <ele>1978.28</ele>
        <time>2014-10-30T11:11:10Z</time>
      </trkpt>
      <trkpt lat="44.66135" lon="6.03911">
        <ele>1975.43</ele>
        <time>2014-10-30T11:11:27Z</time>
      </trkpt>
      <trkpt lat="44.66133" lon="6.03912">
        <ele>1973.31</ele>
        <time>2014-10-30T11:11:49Z</time>
      </trkpt>
      <trkpt lat="44.66137" lon="6.0392">
        <ele>1971.08</ele>
        <time>2014-10-30T11:12:07Z</time>
      </trkpt>
      <trkpt lat="44.66138" lon="6.03921">
        <ele>1968.57</ele>
        <time>2014-10-30T11:12:28Z</time>
      </trkpt>
      <trkpt lat="44.66138" lon="6.03928">
        <ele>1966</ele>
        <time>2014-10-30T11:12:52Z</time>
      </trkpt>
      <trkpt lat="44.66138" lon="6.03928">
        <ele>1964.83</ele>
        <time>2014-10-30T11:13:18Z</time>
      </trkpt>
      <trkpt lat="44.66135" lon="6.0393">
        <ele>1964.44</ele>
        <time>2014-10-30T11:13:41Z</time>
      </trkpt>
      <trkpt lat="44.66136" lon="6.03939">
        <ele>1962.25</ele>
        <time>2014-10-30T11:14:04Z</time>
      </trkpt>
      <trkpt lat="44.66137" lon="6.03942">
        <ele>1960.44</ele>
        <time>2014-10-30T11:14:21Z</time>
      </trkpt>
      <trkpt lat="44.6614" lon="6.03946">
        <ele>1958.87</ele>
        <time>2014-10-30T11:14:38Z</time>
      </trkpt>
      <trkpt lat="44.66144" lon="6.03951">
        <ele>1956.5</ele>
        <time>2014-10-30T11:14:53Z</time>
      </trkpt>
      <trkpt lat="44.66143" lon="6.03956">
        <ele>1953.5</ele>
        <time>2014-10-30T11:15:08Z</time>
      </trkpt>
      <trkpt lat="44.66146" lon="6.03962">
        <ele>1951</ele>
        <time>2014-10-30T11:15:24Z</time>
      </trkpt>
      <trkpt lat="44.66146" lon="6.03966">
        <ele>1948.89</ele>
        <time>2014-10-30T11:15:40Z</time>
      </trkpt>
      <trkpt lat="44.66151" lon="6.03971">
        <ele>1946.08</ele>
        <time>2014-10-30T11:15:59Z</time>
      </trkpt>
      <trkpt lat="44.66157" lon="6.03977">
        <ele>1943.74</ele>
        <time>2014-10-30T11:16:18Z</time>
      </trkpt>
      <trkpt lat="44.66153" lon="6.03983">
        <ele>1941.22</ele>
        <time>2014-10-30T11:16:39Z</time>
      </trkpt>
      <trkpt lat="44.66156" lon="6.0399">
        <ele>1938.29</ele>
        <time>2014-10-30T11:16:59Z</time>
      </trkpt>
      <trkpt lat="44.66155" lon="6.03997">
        <ele>1935.12</ele>
        <time>2014-10-30T11:17:19Z</time>
      </trkpt>
      <trkpt lat="44.66156" lon="6.04006">
        <ele>1932.05</ele>
        <time>2014-10-30T11:17:41Z</time>
      </trkpt>
      <trkpt lat="44.66161" lon="6.04013">
        <ele>1929.62</ele>
        <time>2014-10-30T11:17:58Z</time>
      </trkpt>
      <trkpt lat="44.66158" lon="6.04023">
        <ele>1926.48</ele>
        <time>2014-10-30T11:18:17Z</time>
      </trkpt>
      <trkpt lat="44.66154" lon="6.04031">
        <ele>1923.43</ele>
        <time>2014-10-30T11:18:30Z</time>
      </trkpt>
      <trkpt lat="44.66153" lon="6.0404">
        <ele>1920.55</ele>
        <time>2014-10-30T11:18:46Z</time>
      </trkpt>
      <trkpt lat="44.66154" lon="6.04042">
        <ele>1919.87</ele>
        <time>2014-10-30T11:19:03Z</time>
      </trkpt>
      <trkpt lat="44.66154" lon="6.04045">
        <ele>1919.97</ele>
        <time>2014-10-30T11:19:22Z</time>
      </trkpt>
      <trkpt lat="44.66153" lon="6.04046">
        <ele>1920</ele>
        <time>2014-10-30T11:19:37Z</time>
      </trkpt>
      <trkpt lat="44.66155" lon="6.04047">
        <ele>1920.26</ele>
        <time>2014-10-30T11:19:50Z</time>
      </trkpt>
      <trkpt lat="44.66154" lon="6.04057">
        <ele>1917.83</ele>
        <time>2014-10-30T11:20:07Z</time>
      </trkpt>
      <trkpt lat="44.66152" lon="6.04069">
        <ele>1914.8</ele>
        <time>2014-10-30T11:20:26Z</time>
      </trkpt>
      <trkpt lat="44.66149" lon="6.0408">
        <ele>1911.73</ele>
        <time>2014-10-30T11:20:43Z</time>
      </trkpt>
      <trkpt lat="44.66148" lon="6.04093">
        <ele>1908.62</ele>
        <time>2014-10-30T11:20:59Z</time>
      </trkpt>
      <trkpt lat="44.66145" lon="6.04106">
        <ele>1905.59</ele>
        <time>2014-10-30T11:21:17Z</time>
      </trkpt>
      <trkpt lat="44.66144" lon="6.04117">
        <ele>1903.05</ele>
        <time>2014-10-30T11:21:37Z</time>
      </trkpt>
      <trkpt lat="44.66142" lon="6.04126">
        <ele>1900.24</ele>
        <time>2014-10-30T11:21:57Z</time>
      </trkpt>
      <trkpt lat="44.66145" lon="6.04136">
        <ele>1897.72</ele>
        <time>2014-10-30T11:22:13Z</time>
      </trkpt>
      <trkpt lat="44.66144" lon="6.04145">
        <ele>1894.72</ele>
        <time>2014-10-30T11:22:34Z</time>
      </trkpt>
      <trkpt lat="44.66142" lon="6.04154">
        <ele>1891.64</ele>
        <time>2014-10-30T11:22:50Z</time>
      </trkpt>
      <trkpt lat="44.66139" lon="6.04166">
        <ele>1889.34</ele>
        <time>2014-10-30T11:23:07Z</time>
      </trkpt>
      <trkpt lat="44.66136" lon="6.04183">
        <ele>1886.25</ele>
        <time>2014-10-30T11:23:28Z</time>
      </trkpt>
      <trkpt lat="44.66135" lon="6.04193">
        <ele>1883.13</ele>
        <time>2014-10-30T11:23:45Z</time>
      </trkpt>
      <trkpt lat="44.66132" lon="6.04207">
        <ele>1880.52</ele>
        <time>2014-10-30T11:24:02Z</time>
      </trkpt>
      <trkpt lat="44.6613" lon="6.04216">
        <ele>1877.92</ele>
        <time>2014-10-30T11:24:18Z</time>
      </trkpt>
      <trkpt lat="44.66129" lon="6.04227">
        <ele>1875.3</ele>
        <time>2014-10-30T11:24:37Z</time>
      </trkpt>
      <trkpt lat="44.66127" lon="6.04234">
        <ele>1872.18</ele>
        <time>2014-10-30T11:24:56Z</time>
      </trkpt>
      <trkpt lat="44.66128" lon="6.04245">
        <ele>1869.33</ele>
        <time>2014-10-30T11:25:13Z</time>
      </trkpt>
      <trkpt lat="44.66133" lon="6.04251">
        <ele>1866.32</ele>
        <time>2014-10-30T11:25:29Z</time>
      </trkpt>
      <trkpt lat="44.66131" lon="6.04261">
        <ele>1863.16</ele>
        <time>2014-10-30T11:25:45Z</time>
      </trkpt>
      <trkpt lat="44.66128" lon="6.04268">
        <ele>1860.07</ele>
        <time>2014-10-30T11:26:04Z</time>
      </trkpt>
      <trkpt lat="44.66128" lon="6.04276">
        <ele>1857.38</ele>
        <time>2014-10-30T11:26:21Z</time>
      </trkpt>
      <trkpt lat="44.66133" lon="6.04281">
        <ele>1854.53</ele>
        <time>2014-10-30T11:26:40Z</time>
      </trkpt>
      <trkpt lat="44.6613" lon="6.04287">
        <ele>1852.05</ele>
        <time>2014-10-30T11:27:01Z</time>
      </trkpt>
      <trkpt lat="44.66133" lon="6.04292">
        <ele>1850.09</ele>
        <time>2014-10-30T11:27:19Z</time>
      </trkpt>
      <trkpt lat="44.66133" lon="6.04296">
        <ele>1848.15</ele>
        <time>2014-10-30T11:27:35Z</time>
      </trkpt>
      <trkpt lat="44.66136" lon="6.043">
        <ele>1845.48</ele>
        <time>2014-10-30T11:27:54Z</time>
      </trkpt>
      <trkpt lat="44.66135" lon="6.04306">
        <ele>1843.06</ele>
        <time>2014-10-30T11:28:13Z</time>
      </trkpt>
      <trkpt lat="44.66136" lon="6.04314">
        <ele>1840.93</ele>
        <time>2014-10-30T11:28:28Z</time>
      </trkpt>
      <trkpt lat="44.66137" lon="6.04323">
        <ele>1838.1</ele>
        <time>2014-10-30T11:28:47Z</time>
      </trkpt>
      <trkpt lat="44.66138" lon="6.04328">
        <ele>1835.87</ele>
        <time>2014-10-30T11:29:05Z</time>
      </trkpt>
      <trkpt lat="44.66139" lon="6.04334">
        <ele>1833.96</ele>
        <time>2014-10-30T11:29:21Z</time>
      </trkpt>
      <trkpt lat="44.6614" lon="6.04339">
        <ele>1831.5</ele>
        <time>2014-10-30T11:29:40Z</time>
      </trkpt>
      <trkpt lat="44.6614" lon="6.04343">
        <ele>1830.14</ele>
        <time>2014-10-30T11:29:58Z</time>
      </trkpt>
      <trkpt lat="44.66143" lon="6.04349">
        <ele>1827.61</ele>
        <time>2014-10-30T11:30:15Z</time>
      </trkpt>
      <trkpt lat="44.66144" lon="6.04356">
        <ele>1825.5</ele>
        <time>2014-10-30T11:30:40Z</time>
      </trkpt>
      <trkpt lat="44.66146" lon="6.04365">
        <ele>1823.66</ele>
        <time>2014-10-30T11:30:57Z</time>
      </trkpt>
      <trkpt lat="44.66148" lon="6.04374">
        <ele>1820.4</ele>
        <time>2014-10-30T11:31:13Z</time>
      </trkpt>
      <trkpt lat="44.6615" lon="6.04385">
        <ele>1817.25</ele>
        <time>2014-10-30T11:31:30Z</time>
      </trkpt>
      <trkpt lat="44.66151" lon="6.04396">
        <ele>1814.22</ele>
        <time>2014-10-30T11:31:46Z</time>
      </trkpt>
      <trkpt lat="44.6615" lon="6.04408">
        <ele>1811.08</ele>
        <time>2014-10-30T11:32:06Z</time>
      </trkpt>
      <trkpt lat="44.66153" lon="6.04432">
        <ele>1807.95</ele>
        <time>2014-10-30T11:32:28Z</time>
      </trkpt>
      <trkpt lat="44.66158" lon="6.04445">
        <ele>1807.22</ele>
        <time>2014-10-30T11:32:45Z</time>
      </trkpt>
      <trkpt lat="44.66163" lon="6.04459">
        <ele>1804.44</ele>
        <time>2014-10-30T11:33:08Z</time>
      </trkpt>
      <trkpt lat="44.66168" lon="6.04471">
        <ele>1801.3</ele>
        <time>2014-10-30T11:33:27Z</time>
      </trkpt>
      <trkpt lat="44.66167" lon="6.04486">
        <ele>1798.43</ele>
        <time>2014-10-30T11:33:45Z</time>
      </trkpt>
      <trkpt lat="44.66165" lon="6.04504">
        <ele>1796.57</ele>
        <time>2014-10-30T11:34:04Z</time>
      </trkpt>
      <trkpt lat="44.66161" lon="6.04518">
        <ele>1798.07</ele>
        <time>2014-10-30T11:34:24Z</time>
      </trkpt>
      <trkpt lat="44.66155" lon="6.0454">
        <ele>1798.2</ele>
        <time>2014-10-30T11:34:45Z</time>
      </trkpt>
      <trkpt lat="44.66152" lon="6.04568">
        <ele>1799.03</ele>
        <time>2014-10-30T11:35:05Z</time>
      </trkpt>
      <trkpt lat="44.66144" lon="6.04593">
        <ele>1797.66</ele>
        <time>2014-10-30T11:35:27Z</time>
      </trkpt>
      <trkpt lat="44.66147" lon="6.04625">
        <ele>1795.65</ele>
        <time>2014-10-30T11:35:47Z</time>
      </trkpt>
      <trkpt lat="44.66151" lon="6.04642">
        <ele>1794.04</ele>
        <time>2014-10-30T11:36:04Z</time>
      </trkpt>
      <trkpt lat="44.66159" lon="6.04659">
        <ele>1792.39</ele>
        <time>2014-10-30T11:36:22Z</time>
      </trkpt>
      <trkpt lat="44.66159" lon="6.04677">
        <ele>1791.78</ele>
        <time>2014-10-30T11:36:41Z</time>
      </trkpt>
      <trkpt lat="44.66157" lon="6.047">
        <ele>1792.54</ele>
        <time>2014-10-30T11:37:02Z</time>
      </trkpt>
      <trkpt lat="44.66159" lon="6.04714">
        <ele>1793.57</ele>
        <time>2014-10-30T11:37:21Z</time>
      </trkpt>
      <trkpt lat="44.66164" lon="6.04721">
        <ele>1794.53</ele>
        <time>2014-10-30T11:37:39Z</time>
      </trkpt>
      <trkpt lat="44.66171" lon="6.04726">
        <ele>1794.49</ele>
        <time>2014-10-30T11:38:06Z</time>
      </trkpt>
      <trkpt lat="44.66172" lon="6.04733">
        <ele>1793.95</ele>
        <time>2014-10-30T11:38:34Z</time>
      </trkpt>
      <trkpt lat="44.66171" lon="6.04734">
        <ele>1793.87</ele>
        <time>2014-10-30T11:39:00Z</time>
      </trkpt>
      <trkpt lat="44.66173" lon="6.04733">
        <ele>1794.31</ele>
        <time>2014-10-30T11:39:27Z</time>
      </trkpt>
      <trkpt lat="44.66174" lon="6.04734">
        <ele>1794.43</ele>
        <time>2014-10-30T11:39:30Z</time>
      </trkpt>
      <trkpt lat="44.66182" lon="6.04735">
        <ele>1794.79</ele>
        <time>2014-10-30T11:39:43Z</time>
      </trkpt>
      <trkpt lat="44.66187" lon="6.04734">
        <ele>1795.32</ele>
        <time>2014-10-30T11:40:02Z</time>
      </trkpt>
      <trkpt lat="44.66188" lon="6.04734">
        <ele>1795.17</ele>
        <time>2014-10-30T11:40:28Z</time>
      </trkpt>
      <trkpt lat="44.66189" lon="6.04735">
        <ele>1795.14</ele>
        <time>2014-10-30T11:40:51Z</time>
      </trkpt>
      <trkpt lat="44.66188" lon="6.04734">
        <ele>1795.31</ele>
        <time>2014-10-30T11:41:18Z</time>
      </trkpt>
      <trkpt lat="44.66188" lon="6.04734">
        <ele>1794.93</ele>
        <time>2014-10-30T11:41:45Z</time>
      </trkpt>
      <trkpt lat="44.66186" lon="6.04736">
        <ele>1795.03</ele>
        <time>2014-10-30T11:42:13Z</time>
      </trkpt>
      <trkpt lat="44.66185" lon="6.04735">
        <ele>1794.61</ele>
        <time>2014-10-30T11:42:38Z</time>
      </trkpt>
      <trkpt lat="44.66188" lon="6.04735">
        <ele>1794.85</ele>
        <time>2014-10-30T11:43:04Z</time>
      </trkpt>
      <trkpt lat="44.66187" lon="6.04737">
        <ele>1794.51</ele>
        <time>2014-10-30T11:43:30Z</time>
      </trkpt>
      <trkpt lat="44.66186" lon="6.04738">
        <ele>1794.47</ele>
        <time>2014-10-30T11:43:54Z</time>
      </trkpt>
      <trkpt lat="44.66187" lon="6.04739">
        <ele>1794.56</ele>
        <time>2014-10-30T11:44:20Z</time>
      </trkpt>
      <trkpt lat="44.66188" lon="6.04736">
        <ele>1794.14</ele>
        <time>2014-10-30T11:44:49Z</time>
      </trkpt>
      <trkpt lat="44.6619" lon="6.04733">
        <ele>1794.41</ele>
        <time>2014-10-30T11:45:18Z</time>
      </trkpt>
      <trkpt lat="44.6619" lon="6.04731">
        <ele>1794</ele>
        <time>2014-10-30T11:45:49Z</time>
      </trkpt>
      <trkpt lat="44.6619" lon="6.04732">
        <ele>1793.73</ele>
        <time>2014-10-30T11:46:20Z</time>
      </trkpt>
      <trkpt lat="44.6619" lon="6.04733">
        <ele>1793.72</ele>
        <time>2014-10-30T11:46:49Z</time>
      </trkpt>
      <trkpt lat="44.66189" lon="6.04732">
        <ele>1793.29</ele>
        <time>2014-10-30T11:47:16Z</time>
      </trkpt>
      <trkpt lat="44.66189" lon="6.04731">
        <ele>1793.46</ele>
        <time>2014-10-30T11:47:45Z</time>
      </trkpt>
      <trkpt lat="44.6619" lon="6.04732">
        <ele>1793.17</ele>
        <time>2014-10-30T11:48:19Z</time>
      </trkpt>
      <trkpt lat="44.66188" lon="6.04734">
        <ele>1793.17</ele>
        <time>2014-10-30T11:48:50Z</time>
      </trkpt>
      <trkpt lat="44.66191" lon="6.04731">
        <ele>1793</ele>
        <time>2014-10-30T11:49:25Z</time>
      </trkpt>
      <trkpt lat="44.6619" lon="6.04731">
        <ele>1792.94</ele>
        <time>2014-10-30T11:49:50Z</time>
      </trkpt>
      <trkpt lat="44.66187" lon="6.04736">
        <ele>1793.05</ele>
        <time>2014-10-30T11:50:20Z</time>
      </trkpt>
      <trkpt lat="44.66187" lon="6.04737">
        <ele>1792.84</ele>
        <time>2014-10-30T11:50:43Z</time>
      </trkpt>
      <trkpt lat="44.66188" lon="6.04738">
        <ele>1793.29</ele>
        <time>2014-10-30T11:51:06Z</time>
      </trkpt>
      <trkpt lat="44.66187" lon="6.04737">
        <ele>1792.88</ele>
        <time>2014-10-30T11:51:35Z</time>
      </trkpt>
      <trkpt lat="44.66187" lon="6.04738">
        <ele>1792.9</ele>
        <time>2014-10-30T11:51:57Z</time>
      </trkpt>
      <trkpt lat="44.66188" lon="6.04737">
        <ele>1792.7</ele>
        <time>2014-10-30T11:52:28Z</time>
      </trkpt>
      <trkpt lat="44.66191" lon="6.0473">
        <ele>1792.94</ele>
        <time>2014-10-30T11:53:09Z</time>
      </trkpt>
      <trkpt lat="44.6619" lon="6.04731">
        <ele>1792.43</ele>
        <time>2014-10-30T11:53:41Z</time>
      </trkpt>
      <trkpt lat="44.6619" lon="6.04734">
        <ele>1792.44</ele>
        <time>2014-10-30T11:54:06Z</time>
      </trkpt>
      <trkpt lat="44.6619" lon="6.04734">
        <ele>1792.12</ele>
        <time>2014-10-30T11:54:33Z</time>
      </trkpt>
      <trkpt lat="44.66191" lon="6.04732">
        <ele>1792.4</ele>
        <time>2014-10-30T11:54:58Z</time>
      </trkpt>
      <trkpt lat="44.6619" lon="6.04734">
        <ele>1792.28</ele>
        <time>2014-10-30T11:55:22Z</time>
      </trkpt>
      <trkpt lat="44.66188" lon="6.04735">
        <ele>1792.09</ele>
        <time>2014-10-30T11:55:49Z</time>
      </trkpt>
      <trkpt lat="44.66187" lon="6.04735">
        <ele>1792.2</ele>
        <time>2014-10-30T11:56:17Z</time>
      </trkpt>
      <trkpt lat="44.6619" lon="6.04737">
        <ele>1791.99</ele>
        <time>2014-10-30T11:56:42Z</time>
      </trkpt>
      <trkpt lat="44.66191" lon="6.04738">
        <ele>1791.75</ele>
        <time>2014-10-30T11:57:07Z</time>
      </trkpt>
      <trkpt lat="44.66191" lon="6.04734">
        <ele>1791.61</ele>
        <time>2014-10-30T11:57:33Z</time>
      </trkpt>
      <trkpt lat="44.66191" lon="6.04731">
        <ele>1791.85</ele>
        <time>2014-10-30T11:57:58Z</time>
      </trkpt>
      <trkpt lat="44.66191" lon="6.04731">
        <ele>1791.7</ele>
        <time>2014-10-30T11:58:20Z</time>
      </trkpt>
      <trkpt lat="44.66191" lon="6.04734">
        <ele>1791.78</ele>
        <time>2014-10-30T11:58:45Z</time>
      </trkpt>
      <trkpt lat="44.66191" lon="6.04734">
        <ele>1791.79</ele>
        <time>2014-10-30T11:59:15Z</time>
      </trkpt>
      <trkpt lat="44.6619" lon="6.04734">
        <ele>1792.01</ele>
        <time>2014-10-30T11:59:42Z</time>
      </trkpt>
      <trkpt lat="44.66191" lon="6.04733">
        <ele>1791.87</ele>
        <time>2014-10-30T12:00:12Z</time>
      </trkpt>
      <trkpt lat="44.66191" lon="6.04734">
        <ele>1791.89</ele>
        <time>2014-10-30T12:00:42Z</time>
      </trkpt>
      <trkpt lat="44.66191" lon="6.04734">
        <ele>1792.12</ele>
        <time>2014-10-30T12:01:08Z</time>
      </trkpt>
      <trkpt lat="44.66191" lon="6.04734">
        <ele>1791.88</ele>
        <time>2014-10-30T12:01:38Z</time>
      </trkpt>
      <trkpt lat="44.66191" lon="6.04735">
        <ele>1792.23</ele>
        <time>2014-10-30T12:02:06Z</time>
      </trkpt>
      <trkpt lat="44.6619" lon="6.04734">
        <ele>1791.69</ele>
        <time>2014-10-30T12:02:32Z</time>
      </trkpt>
      <trkpt lat="44.66189" lon="6.04737">
        <ele>1792.08</ele>
        <time>2014-10-30T12:03:00Z</time>
      </trkpt>
      <trkpt lat="44.6619" lon="6.04737">
        <ele>1791.79</ele>
        <time>2014-10-30T12:03:21Z</time>
      </trkpt>
      <trkpt lat="44.66191" lon="6.04736">
        <ele>1791.39</ele>
        <time>2014-10-30T12:03:45Z</time>
      </trkpt>
      <trkpt lat="44.6619" lon="6.04737">
        <ele>1791.38</ele>
        <time>2014-10-30T12:04:08Z</time>
      </trkpt>
      <trkpt lat="44.6619" lon="6.04736">
        <ele>1791.76</ele>
        <time>2014-10-30T12:04:33Z</time>
      </trkpt>
      <trkpt lat="44.66189" lon="6.04737">
        <ele>1791.62</ele>
        <time>2014-10-30T12:04:57Z</time>
      </trkpt>
      <trkpt lat="44.6619" lon="6.04739">
        <ele>1791.75</ele>
        <time>2014-10-30T12:05:21Z</time>
      </trkpt>
      <trkpt lat="44.66191" lon="6.04738">
        <ele>1791.45</ele>
        <time>2014-10-30T12:05:50Z</time>
      </trkpt>
      <trkpt lat="44.6619" lon="6.04738">
        <ele>1791.43</ele>
        <time>2014-10-30T12:06:14Z</time>
      </trkpt>
      <trkpt lat="44.6619" lon="6.04737">
        <ele>1791.78</ele>
        <time>2014-10-30T12:06:40Z</time>
      </trkpt>
      <trkpt lat="44.66192" lon="6.04736">
        <ele>1792.12</ele>
        <time>2014-10-30T12:07:06Z</time>
      </trkpt>
      <trkpt lat="44.66192" lon="6.04738">
        <ele>1791.95</ele>
        <time>2014-10-30T12:07:28Z</time>
      </trkpt>
      <trkpt lat="44.66194" lon="6.04735">
        <ele>1791.66</ele>
        <time>2014-10-30T12:07:50Z</time>
      </trkpt>
      <trkpt lat="44.66194" lon="6.04736">
        <ele>1791.68</ele>
        <time>2014-10-30T12:08:15Z</time>
      </trkpt>
      <trkpt lat="44.66193" lon="6.04738">
        <ele>1791.67</ele>
        <time>2014-10-30T12:08:37Z</time>
      </trkpt>
      <trkpt lat="44.66193" lon="6.04738">
        <ele>1791.67</ele>
        <time>2014-10-30T12:08:58Z</time>
      </trkpt>
      <trkpt lat="44.66195" lon="6.04734">
        <ele>1791.97</ele>
        <time>2014-10-30T12:09:22Z</time>
      </trkpt>
      <trkpt lat="44.66194" lon="6.04738">
        <ele>1792.04</ele>
        <time>2014-10-30T12:09:47Z</time>
      </trkpt>
      <trkpt lat="44.66191" lon="6.04741">
        <ele>1791.8</ele>
        <time>2014-10-30T12:10:07Z</time>
      </trkpt>
      <trkpt lat="44.66191" lon="6.04743">
        <ele>1792.04</ele>
        <time>2014-10-30T12:10:26Z</time>
      </trkpt>
      <trkpt lat="44.66192" lon="6.0474">
        <ele>1791.99</ele>
        <time>2014-10-30T12:10:45Z</time>
      </trkpt>
      <trkpt lat="44.66193" lon="6.04741">
        <ele>1792.09</ele>
        <time>2014-10-30T12:11:05Z</time>
      </trkpt>
      <trkpt lat="44.66193" lon="6.0474">
        <ele>1792.27</ele>
        <time>2014-10-30T12:11:21Z</time>
      </trkpt>
      <trkpt lat="44.66191" lon="6.0474">
        <ele>1792.31</ele>
        <time>2014-10-30T12:11:39Z</time>
      </trkpt>
      <trkpt lat="44.66188" lon="6.04743">
        <ele>1792.4</ele>
        <time>2014-10-30T12:12:01Z</time>
      </trkpt>
      <trkpt lat="44.66186" lon="6.04741">
        <ele>1792.49</ele>
        <time>2014-10-30T12:12:18Z</time>
      </trkpt>
      <trkpt lat="44.66184" lon="6.0474">
        <ele>1792.64</ele>
        <time>2014-10-30T12:12:35Z</time>
      </trkpt>
      <trkpt lat="44.66185" lon="6.0474">
        <ele>1792.47</ele>
        <time>2014-10-30T12:12:53Z</time>
      </trkpt>
      <trkpt lat="44.66185" lon="6.04742">
        <ele>1792.67</ele>
        <time>2014-10-30T12:13:08Z</time>
      </trkpt>
      <trkpt lat="44.66185" lon="6.04742">
        <ele>1792.53</ele>
        <time>2014-10-30T12:13:24Z</time>
      </trkpt>
      <trkpt lat="44.66185" lon="6.04742">
        <ele>1792.49</ele>
        <time>2014-10-30T12:13:39Z</time>
      </trkpt>
      <trkpt lat="44.66185" lon="6.04742">
        <ele>1792.59</ele>
        <time>2014-10-30T12:13:54Z</time>
      </trkpt>
      <trkpt lat="44.66186" lon="6.04742">
        <ele>1792.77</ele>
        <time>2014-10-30T12:14:09Z</time>
      </trkpt>
      <trkpt lat="44.66186" lon="6.04742">
        <ele>1792.7</ele>
        <time>2014-10-30T12:14:24Z</time>
      </trkpt>
      <trkpt lat="44.66188" lon="6.04739">
        <ele>1793.29</ele>
        <time>2014-10-30T12:14:41Z</time>
      </trkpt>
      <trkpt lat="44.66191" lon="6.04736">
        <ele>1793.15</ele>
        <time>2014-10-30T12:14:59Z</time>
      </trkpt>
      <trkpt lat="44.66194" lon="6.04735">
        <ele>1793.19</ele>
        <time>2014-10-30T12:15:20Z</time>
      </trkpt>
      <trkpt lat="44.66192" lon="6.04737">
        <ele>1793.31</ele>
        <time>2014-10-30T12:15:37Z</time>
      </trkpt>
      <trkpt lat="44.66191" lon="6.04739">
        <ele>1793.42</ele>
        <time>2014-10-30T12:15:54Z</time>
      </trkpt>
      <trkpt lat="44.66192" lon="6.04739">
        <ele>1793.24</ele>
        <time>2014-10-30T12:16:14Z</time>
      </trkpt>
      <trkpt lat="44.66193" lon="6.04742">
        <ele>1793.3</ele>
        <time>2014-10-30T12:16:35Z</time>
      </trkpt>
      <trkpt lat="44.66191" lon="6.04741">
        <ele>1793.51</ele>
        <time>2014-10-30T12:16:57Z</time>
      </trkpt>
      <trkpt lat="44.66192" lon="6.04738">
        <ele>1793.48</ele>
        <time>2014-10-30T12:17:20Z</time>
      </trkpt>
      <trkpt lat="44.66194" lon="6.04736">
        <ele>1793.77</ele>
        <time>2014-10-30T12:17:41Z</time>
      </trkpt>
      <trkpt lat="44.66187" lon="6.0474">
        <ele>1794.16</ele>
        <time>2014-10-30T12:18:05Z</time>
      </trkpt>
      <trkpt lat="44.66189" lon="6.04735">
        <ele>1794.12</ele>
        <time>2014-10-30T12:18:28Z</time>
      </trkpt>
      <trkpt lat="44.66191" lon="6.04732">
        <ele>1794.57</ele>
        <time>2014-10-30T12:18:55Z</time>
      </trkpt>
      <trkpt lat="44.66195" lon="6.04735">
        <ele>1794.38</ele>
        <time>2014-10-30T12:19:23Z</time>
      </trkpt>
      <trkpt lat="44.66195" lon="6.0474">
        <ele>1793.86</ele>
        <time>2014-10-30T12:19:40Z</time>
      </trkpt>
      <trkpt lat="44.66188" lon="6.04741">
        <ele>1794.47</ele>
        <time>2014-10-30T12:20:05Z</time>
      </trkpt>
      <trkpt lat="44.66191" lon="6.04738">
        <ele>1794.49</ele>
        <time>2014-10-30T12:20:28Z</time>
      </trkpt>
      <trkpt lat="44.66192" lon="6.04735">
        <ele>1794.67</ele>
        <time>2014-10-30T12:20:53Z</time>
      </trkpt>
      <trkpt lat="44.66192" lon="6.04736">
        <ele>1794.64</ele>
        <time>2014-10-30T12:21:21Z</time>
      </trkpt>
      <trkpt lat="44.66193" lon="6.04732">
        <ele>1794.41</ele>
        <time>2014-10-30T12:21:46Z</time>
      </trkpt>
      <trkpt lat="44.66191" lon="6.04733">
        <ele>1794.41</ele>
        <time>2014-10-30T12:22:17Z</time>
      </trkpt>
      <trkpt lat="44.66191" lon="6.04734">
        <ele>1794.5</ele>
        <time>2014-10-30T12:22:46Z</time>
      </trkpt>
      <trkpt lat="44.66192" lon="6.04734">
        <ele>1794.63</ele>
        <time>2014-10-30T12:23:19Z</time>
      </trkpt>
      <trkpt lat="44.66191" lon="6.04734">
        <ele>1794.56</ele>
        <time>2014-10-30T12:23:46Z</time>
      </trkpt>
      <trkpt lat="44.66191" lon="6.04733">
        <ele>1794.28</ele>
        <time>2014-10-30T12:24:10Z</time>
      </trkpt>
      <trkpt lat="44.66188" lon="6.04734">
        <ele>1794.23</ele>
        <time>2014-10-30T12:24:35Z</time>
      </trkpt>
      <trkpt lat="44.66187" lon="6.04731">
        <ele>1795.67</ele>
        <time>2014-10-30T12:24:55Z</time>
      </trkpt>
      <trkpt lat="44.66185" lon="6.04734">
        <ele>1795.5</ele>
        <time>2014-10-30T12:25:16Z</time>
      </trkpt>
      <trkpt lat="44.66188" lon="6.04733">
        <ele>1795.59</ele>
        <time>2014-10-30T12:25:42Z</time>
      </trkpt>
      <trkpt lat="44.66188" lon="6.04734">
        <ele>1795.79</ele>
        <time>2014-10-30T12:25:58Z</time>
      </trkpt>
      <trkpt lat="44.66188" lon="6.04736">
        <ele>1795.39</ele>
        <time>2014-10-30T12:26:18Z</time>
      </trkpt>
      <trkpt lat="44.66188" lon="6.04737">
        <ele>1795.72</ele>
        <time>2014-10-30T12:26:41Z</time>
      </trkpt>
      <trkpt lat="44.66187" lon="6.04736">
        <ele>1795.41</ele>
        <time>2014-10-30T12:27:09Z</time>
      </trkpt>
      <trkpt lat="44.66187" lon="6.04732">
        <ele>1795.71</ele>
        <time>2014-10-30T12:27:38Z</time>
      </trkpt>
      <trkpt lat="44.66189" lon="6.04732">
        <ele>1795.57</ele>
        <time>2014-10-30T12:27:55Z</time>
      </trkpt>
      <trkpt lat="44.66187" lon="6.04735">
        <ele>1795.83</ele>
        <time>2014-10-30T12:28:25Z</time>
      </trkpt>
      <trkpt lat="44.66185" lon="6.04736">
        <ele>1796.22</ele>
        <time>2014-10-30T12:28:52Z</time>
      </trkpt>
      <trkpt lat="44.66187" lon="6.04737">
        <ele>1796.17</ele>
        <time>2014-10-30T12:29:11Z</time>
      </trkpt>
      <trkpt lat="44.66187" lon="6.04736">
        <ele>1796.15</ele>
        <time>2014-10-30T12:29:40Z</time>
      </trkpt>
      <trkpt lat="44.66182" lon="6.04738">
        <ele>1796.03</ele>
        <time>2014-10-30T12:30:03Z</time>
      </trkpt>
      <trkpt lat="44.66169" lon="6.04736">
        <ele>1795.52</ele>
        <time>2014-10-30T12:30:20Z</time>
      </trkpt>
      <trkpt lat="44.66159" lon="6.04737">
        <ele>1794.49</ele>
        <time>2014-10-30T12:30:38Z</time>
      </trkpt>
      <trkpt lat="44.66144" lon="6.04741">
        <ele>1791.89</ele>
        <time>2014-10-30T12:30:59Z</time>
      </trkpt>
      <trkpt lat="44.66129" lon="6.04748">
        <ele>1788.85</ele>
        <time>2014-10-30T12:31:19Z</time>
      </trkpt>
      <trkpt lat="44.66112" lon="6.04767">
        <ele>1786.57</ele>
        <time>2014-10-30T12:31:38Z</time>
      </trkpt>
      <trkpt lat="44.66111" lon="6.04769">
        <ele>1786.49</ele>
        <time>2014-10-30T12:31:39Z</time>
      </trkpt>
      <trkpt lat="44.661" lon="6.04782">
        <ele>1783.58</ele>
        <time>2014-10-30T12:31:56Z</time>
      </trkpt>
      <trkpt lat="44.66099" lon="6.04789">
        <ele>1782.78</ele>
        <time>2014-10-30T12:32:01Z</time>
      </trkpt>
      <trkpt lat="44.66089" lon="6.0481">
        <ele>1779.73</ele>
        <time>2014-10-30T12:32:22Z</time>
      </trkpt>
      <trkpt lat="44.66085" lon="6.04816">
        <ele>1777.61</ele>
        <time>2014-10-30T12:32:40Z</time>
      </trkpt>
      <trkpt lat="44.66084" lon="6.04812">
        <ele>1776.49</ele>
        <time>2014-10-30T12:32:58Z</time>
      </trkpt>
      <trkpt lat="44.66081" lon="6.04801">
        <ele>1774.52</ele>
        <time>2014-10-30T12:33:17Z</time>
      </trkpt>
      <trkpt lat="44.66079" lon="6.04783">
        <ele>1771.47</ele>
        <time>2014-10-30T12:33:36Z</time>
      </trkpt>
      <trkpt lat="44.6608" lon="6.04759">
        <ele>1769.49</ele>
        <time>2014-10-30T12:33:57Z</time>
      </trkpt>
      <trkpt lat="44.66078" lon="6.04755">
        <ele>1769.12</ele>
        <time>2014-10-30T12:34:01Z</time>
      </trkpt>
      <trkpt lat="44.66061" lon="6.04755">
        <ele>1766.4</ele>
        <time>2014-10-30T12:34:22Z</time>
      </trkpt>
      <trkpt lat="44.6605" lon="6.04771">
        <ele>1763.22</ele>
        <time>2014-10-30T12:34:40Z</time>
      </trkpt>
      <trkpt lat="44.66043" lon="6.04785">
        <ele>1760.13</ele>
        <time>2014-10-30T12:34:53Z</time>
      </trkpt>
      <trkpt lat="44.66039" lon="6.04807">
        <ele>1757.37</ele>
        <time>2014-10-30T12:35:13Z</time>
      </trkpt>
      <trkpt lat="44.66035" lon="6.04823">
        <ele>1755.02</ele>
        <time>2014-10-30T12:35:31Z</time>
      </trkpt>
      <trkpt lat="44.66034" lon="6.04827">
        <ele>1754.59</ele>
        <time>2014-10-30T12:35:34Z</time>
      </trkpt>
      <trkpt lat="44.6603" lon="6.04835">
        <ele>1751.48</ele>
        <time>2014-10-30T12:35:50Z</time>
      </trkpt>
      <trkpt lat="44.66026" lon="6.04823">
        <ele>1748.36</ele>
        <time>2014-10-30T12:36:09Z</time>
      </trkpt>
      <trkpt lat="44.66031" lon="6.04812">
        <ele>1745.72</ele>
        <time>2014-10-30T12:36:30Z</time>
      </trkpt>
      <trkpt lat="44.66034" lon="6.04808">
        <ele>1745.01</ele>
        <time>2014-10-30T12:36:37Z</time>
      </trkpt>
      <trkpt lat="44.66035" lon="6.04792">
        <ele>1741.9</ele>
        <time>2014-10-30T12:36:51Z</time>
      </trkpt>
      <trkpt lat="44.66034" lon="6.04778">
        <ele>1738.59</ele>
        <time>2014-10-30T12:37:06Z</time>
      </trkpt>
      <trkpt lat="44.66034" lon="6.04766">
        <ele>1735.45</ele>
        <time>2014-10-30T12:37:19Z</time>
      </trkpt>
      <trkpt lat="44.66035" lon="6.04756">
        <ele>1733.88</ele>
        <time>2014-10-30T12:37:29Z</time>
      </trkpt>
      <trkpt lat="44.66032" lon="6.04749">
        <ele>1733.27</ele>
        <time>2014-10-30T12:37:36Z</time>
      </trkpt>
      <trkpt lat="44.66029" lon="6.04715">
        <ele>1730.01</ele>
        <time>2014-10-30T12:37:56Z</time>
      </trkpt>
      <trkpt lat="44.6603" lon="6.04688">
        <ele>1726.94</ele>
        <time>2014-10-30T12:38:13Z</time>
      </trkpt>
      <trkpt lat="44.66021" lon="6.04658">
        <ele>1724.07</ele>
        <time>2014-10-30T12:38:31Z</time>
      </trkpt>
      <trkpt lat="44.66018" lon="6.04654">
        <ele>1722.52</ele>
        <time>2014-10-30T12:38:41Z</time>
      </trkpt>
      <trkpt lat="44.66015" lon="6.04653">
        <ele>1722.24</ele>
        <time>2014-10-30T12:38:43Z</time>
      </trkpt>
      <trkpt lat="44.66001" lon="6.04636">
        <ele>1719.07</ele>
        <time>2014-10-30T12:39:05Z</time>
      </trkpt>
      <trkpt lat="44.66001" lon="6.04635">
        <ele>1719.05</ele>
        <time>2014-10-30T12:39:06Z</time>
      </trkpt>
      <trkpt lat="44.66004" lon="6.04634">
        <ele>1718.76</ele>
        <time>2014-10-30T12:39:16Z</time>
      </trkpt>
      <trkpt lat="44.66003" lon="6.04633">
        <ele>1718.48</ele>
        <time>2014-10-30T12:39:19Z</time>
      </trkpt>
      <trkpt lat="44.65995" lon="6.04623">
        <ele>1715.49</ele>
        <time>2014-10-30T12:39:37Z</time>
      </trkpt>
      <trkpt lat="44.65987" lon="6.04634">
        <ele>1712.28</ele>
        <time>2014-10-30T12:39:55Z</time>
      </trkpt>
      <trkpt lat="44.65987" lon="6.04639">
        <ele>1709.62</ele>
        <time>2014-10-30T12:40:14Z</time>
      </trkpt>
      <trkpt lat="44.65986" lon="6.0465">
        <ele>1709.51</ele>
        <time>2014-10-30T12:40:24Z</time>
      </trkpt>
      <trkpt lat="44.65985" lon="6.04658">
        <ele>1706.32</ele>
        <time>2014-10-30T12:40:41Z</time>
      </trkpt>
      <trkpt lat="44.65975" lon="6.04644">
        <ele>1704.03</ele>
        <time>2014-10-30T12:41:01Z</time>
      </trkpt>
      <trkpt lat="44.65968" lon="6.04632">
        <ele>1702.2</ele>
        <time>2014-10-30T12:41:18Z</time>
      </trkpt>
      <trkpt lat="44.65965" lon="6.04635">
        <ele>1699.54</ele>
        <time>2014-10-30T12:41:36Z</time>
      </trkpt>
      <trkpt lat="44.65966" lon="6.0464">
        <ele>1699.15</ele>
        <time>2014-10-30T12:41:39Z</time>
      </trkpt>
      <trkpt lat="44.65968" lon="6.04663">
        <ele>1696.98</ele>
        <time>2014-10-30T12:42:01Z</time>
      </trkpt>
      <trkpt lat="44.65962" lon="6.04676">
        <ele>1695.63</ele>
        <time>2014-10-30T12:42:18Z</time>
      </trkpt>
      <trkpt lat="44.65958" lon="6.04686">
        <ele>1694.19</ele>
        <time>2014-10-30T12:42:39Z</time>
      </trkpt>
      <trkpt lat="44.65959" lon="6.04658">
        <ele>1691.54</ele>
        <time>2014-10-30T12:43:00Z</time>
      </trkpt>
      <trkpt lat="44.65958" lon="6.04652">
        <ele>1691.12</ele>
        <time>2014-10-30T12:43:06Z</time>
      </trkpt>
      <trkpt lat="44.6595" lon="6.04625">
        <ele>1690.73</ele>
        <time>2014-10-30T12:43:31Z</time>
      </trkpt>
      <trkpt lat="44.65956" lon="6.04618">
        <ele>1688.55</ele>
        <time>2014-10-30T12:43:54Z</time>
      </trkpt>
      <trkpt lat="44.65957" lon="6.04616">
        <ele>1688.49</ele>
        <time>2014-10-30T12:43:56Z</time>
      </trkpt>
      <trkpt lat="44.65956" lon="6.04604">
        <ele>1687.58</ele>
        <time>2014-10-30T12:44:18Z</time>
      </trkpt>
      <trkpt lat="44.65952" lon="6.04595">
        <ele>1686.94</ele>
        <time>2014-10-30T12:44:24Z</time>
      </trkpt>
      <trkpt lat="44.65934" lon="6.04584">
        <ele>1685.56</ele>
        <time>2014-10-30T12:44:51Z</time>
      </trkpt>
      <trkpt lat="44.6592" lon="6.04586">
        <ele>1683.54</ele>
        <time>2014-10-30T12:45:14Z</time>
      </trkpt>
      <trkpt lat="44.65908" lon="6.04581">
        <ele>1680.7</ele>
        <time>2014-10-30T12:45:34Z</time>
      </trkpt>
      <trkpt lat="44.65899" lon="6.04575">
        <ele>1678.4</ele>
        <time>2014-10-30T12:45:52Z</time>
      </trkpt>
      <trkpt lat="44.6589" lon="6.04554">
        <ele>1675.4</ele>
        <time>2014-10-30T12:46:17Z</time>
      </trkpt>
      <trkpt lat="44.65886" lon="6.04544">
        <ele>1672.39</ele>
        <time>2014-10-30T12:46:39Z</time>
      </trkpt>
      <trkpt lat="44.65883" lon="6.04546">
        <ele>1671.4</ele>
        <time>2014-10-30T12:46:51Z</time>
      </trkpt>
      <trkpt lat="44.65881" lon="6.04539">
        <ele>1670.24</ele>
        <time>2014-10-30T12:47:10Z</time>
      </trkpt>
      <trkpt lat="44.65877" lon="6.0454">
        <ele>1668.62</ele>
        <time>2014-10-30T12:47:28Z</time>
      </trkpt>
      <trkpt lat="44.65876" lon="6.04552">
        <ele>1666.13</ele>
        <time>2014-10-30T12:47:50Z</time>
      </trkpt>
      <trkpt lat="44.65872" lon="6.04561">
        <ele>1663.86</ele>
        <time>2014-10-30T12:48:09Z</time>
      </trkpt>
      <trkpt lat="44.65868" lon="6.04575">
        <ele>1660.88</ele>
        <time>2014-10-30T12:48:29Z</time>
      </trkpt>
      <trkpt lat="44.65867" lon="6.04591">
        <ele>1658.64</ele>
        <time>2014-10-30T12:48:48Z</time>
      </trkpt>
      <trkpt lat="44.6587" lon="6.04606">
        <ele>1656.65</ele>
        <time>2014-10-30T12:49:09Z</time>
      </trkpt>
      <trkpt lat="44.65878" lon="6.04611">
        <ele>1654.32</ele>
        <time>2014-10-30T12:49:27Z</time>
      </trkpt>
      <trkpt lat="44.65885" lon="6.04615">
        <ele>1652.75</ele>
        <time>2014-10-30T12:49:46Z</time>
      </trkpt>
      <trkpt lat="44.65884" lon="6.04612">
        <ele>1652.09</ele>
        <time>2014-10-30T12:50:09Z</time>
      </trkpt>
      <trkpt lat="44.6589" lon="6.04625">
        <ele>1651.56</ele>
        <time>2014-10-30T12:50:27Z</time>
      </trkpt>
      <trkpt lat="44.6589" lon="6.0464">
        <ele>1648.56</ele>
        <time>2014-10-30T12:50:48Z</time>
      </trkpt>
      <trkpt lat="44.65882" lon="6.04646">
        <ele>1645.55</ele>
        <time>2014-10-30T12:51:07Z</time>
      </trkpt>
      <trkpt lat="44.65877" lon="6.04662">
        <ele>1642.51</ele>
        <time>2014-10-30T12:51:29Z</time>
      </trkpt>
      <trkpt lat="44.65873" lon="6.04679">
        <ele>1639.3</ele>
        <time>2014-10-30T12:51:47Z</time>
      </trkpt>
      <trkpt lat="44.65872" lon="6.04696">
        <ele>1636.23</ele>
        <time>2014-10-30T12:52:03Z</time>
      </trkpt>
      <trkpt lat="44.65871" lon="6.04708">
        <ele>1634.51</ele>
        <time>2014-10-30T12:52:15Z</time>
      </trkpt>
      <trkpt lat="44.65868" lon="6.04728">
        <ele>1631.45</ele>
        <time>2014-10-30T12:52:37Z</time>
      </trkpt>
      <trkpt lat="44.65864" lon="6.04741">
        <ele>1629.74</ele>
        <time>2014-10-30T12:52:51Z</time>
      </trkpt>
      <trkpt lat="44.6586" lon="6.04756">
        <ele>1626.99</ele>
        <time>2014-10-30T12:53:11Z</time>
      </trkpt>
      <trkpt lat="44.65858" lon="6.04771">
        <ele>1623.98</ele>
        <time>2014-10-30T12:53:28Z</time>
      </trkpt>
      <trkpt lat="44.65852" lon="6.04764">
        <ele>1622.73</ele>
        <time>2014-10-30T12:53:45Z</time>
      </trkpt>
      <trkpt lat="44.65852" lon="6.04761">
        <ele>1622.45</ele>
        <time>2014-10-30T12:54:06Z</time>
      </trkpt>
      <trkpt lat="44.65854" lon="6.04769">
        <ele>1621.83</ele>
        <time>2014-10-30T12:54:11Z</time>
      </trkpt>
      <trkpt lat="44.65857" lon="6.04784">
        <ele>1620.3</ele>
        <time>2014-10-30T12:54:36Z</time>
      </trkpt>
      <trkpt lat="44.65857" lon="6.04801">
        <ele>1618.11</ele>
        <time>2014-10-30T12:54:54Z</time>
      </trkpt>
      <trkpt lat="44.65856" lon="6.04816">
        <ele>1615.99</ele>
        <time>2014-10-30T12:55:12Z</time>
      </trkpt>
      <trkpt lat="44.65855" lon="6.04828">
        <ele>1613.95</ele>
        <time>2014-10-30T12:55:34Z</time>
      </trkpt>
      <trkpt lat="44.65849" lon="6.04836">
        <ele>1612.97</ele>
        <time>2014-10-30T12:55:57Z</time>
      </trkpt>
      <trkpt lat="44.6585" lon="6.04848">
        <ele>1611.43</ele>
        <time>2014-10-30T12:56:18Z</time>
      </trkpt>
      <trkpt lat="44.65853" lon="6.04855">
        <ele>1611.17</ele>
        <time>2014-10-30T12:56:24Z</time>
      </trkpt>
      <trkpt lat="44.6585" lon="6.04852">
        <ele>1610.88</ele>
        <time>2014-10-30T12:56:37Z</time>
      </trkpt>
      <trkpt lat="44.6585" lon="6.04853">
        <ele>1610.7</ele>
        <time>2014-10-30T12:56:42Z</time>
      </trkpt>
      <trkpt lat="44.65847" lon="6.04857">
        <ele>1610.09</ele>
        <time>2014-10-30T12:56:58Z</time>
      </trkpt>
      <trkpt lat="44.65845" lon="6.04855">
        <ele>1609.56</ele>
        <time>2014-10-30T12:57:01Z</time>
      </trkpt>
      <trkpt lat="44.65846" lon="6.0485">
        <ele>1607.71</ele>
        <time>2014-10-30T12:57:11Z</time>
      </trkpt>
      <trkpt lat="44.6585" lon="6.0484">
        <ele>1605.37</ele>
        <time>2014-10-30T12:57:25Z</time>
      </trkpt>
      <trkpt lat="44.6585" lon="6.04831">
        <ele>1603.17</ele>
        <time>2014-10-30T12:57:38Z</time>
      </trkpt>
      <trkpt lat="44.65842" lon="6.04805">
        <ele>1600.7</ele>
        <time>2014-10-30T12:57:55Z</time>
      </trkpt>
      <trkpt lat="44.65838" lon="6.04797">
        <ele>1598.12</ele>
        <time>2014-10-30T12:58:12Z</time>
      </trkpt>
      <trkpt lat="44.65832" lon="6.04786">
        <ele>1594.87</ele>
        <time>2014-10-30T12:58:30Z</time>
      </trkpt>
      <trkpt lat="44.65831" lon="6.04785">
        <ele>1594.35</ele>
        <time>2014-10-30T12:58:33Z</time>
      </trkpt>
      <trkpt lat="44.65832" lon="6.04782">
        <ele>1593.97</ele>
        <time>2014-10-30T12:58:35Z</time>
      </trkpt>
      <trkpt lat="44.65829" lon="6.04779">
        <ele>1590.64</ele>
        <time>2014-10-30T12:58:51Z</time>
      </trkpt>
      <trkpt lat="44.65826" lon="6.04773">
        <ele>1590.2</ele>
        <time>2014-10-30T12:58:53Z</time>
      </trkpt>
      <trkpt lat="44.65823" lon="6.04771">
        <ele>1589.8</ele>
        <time>2014-10-30T12:58:55Z</time>
      </trkpt>
      <trkpt lat="44.65818" lon="6.04765">
        <ele>1589</ele>
        <time>2014-10-30T12:59:00Z</time>
      </trkpt>
      <trkpt lat="44.65809" lon="6.04763">
        <ele>1588.39</ele>
        <time>2014-10-30T12:59:21Z</time>
      </trkpt>
      <trkpt lat="44.65809" lon="6.04766">
        <ele>1588.46</ele>
        <time>2014-10-30T12:59:23Z</time>
      </trkpt>
      <trkpt lat="44.65808" lon="6.04769">
        <ele>1588.61</ele>
        <time>2014-10-30T12:59:30Z</time>
      </trkpt>
      <trkpt lat="44.65805" lon="6.0476">
        <ele>1588.27</ele>
        <time>2014-10-30T12:59:53Z</time>
      </trkpt>
      <trkpt lat="44.65803" lon="6.04755">
        <ele>1588.45</ele>
        <time>2014-10-30T13:00:02Z</time>
      </trkpt>
      <trkpt lat="44.6581" lon="6.04741">
        <ele>1585.4</ele>
        <time>2014-10-30T13:00:23Z</time>
      </trkpt>
      <trkpt lat="44.65802" lon="6.0472">
        <ele>1582.25</ele>
        <time>2014-10-30T13:00:39Z</time>
      </trkpt>
      <trkpt lat="44.65804" lon="6.04712">
        <ele>1580.77</ele>
        <time>2014-10-30T13:00:48Z</time>
      </trkpt>
      <trkpt lat="44.65798" lon="6.04693">
        <ele>1577.99</ele>
        <time>2014-10-30T13:01:08Z</time>
      </trkpt>
      <trkpt lat="44.65793" lon="6.04707">
        <ele>1574.87</ele>
        <time>2014-10-30T13:01:27Z</time>
      </trkpt>
      <trkpt lat="44.6579" lon="6.04726">
        <ele>1571.72</ele>
        <time>2014-10-30T13:01:48Z</time>
      </trkpt>
      <trkpt lat="44.6579" lon="6.04747">
        <ele>1568.71</ele>
        <time>2014-10-30T13:02:08Z</time>
      </trkpt>
      <trkpt lat="44.65788" lon="6.04767">
        <ele>1565.95</ele>
        <time>2014-10-30T13:02:30Z</time>
      </trkpt>
      <trkpt lat="44.65786" lon="6.04773">
        <ele>1564.68</ele>
        <time>2014-10-30T13:02:49Z</time>
      </trkpt>
      <trkpt lat="44.65781" lon="6.04774">
        <ele>1563.01</ele>
        <time>2014-10-30T13:03:08Z</time>
      </trkpt>
      <trkpt lat="44.6578" lon="6.04784">
        <ele>1562.18</ele>
        <time>2014-10-30T13:03:31Z</time>
      </trkpt>
      <trkpt lat="44.65783" lon="6.04783">
        <ele>1561.47</ele>
        <time>2014-10-30T13:03:41Z</time>
      </trkpt>
      <trkpt lat="44.6579" lon="6.0479">
        <ele>1560.48</ele>
        <time>2014-10-30T13:03:57Z</time>
      </trkpt>
      <trkpt lat="44.65794" lon="6.04799">
        <ele>1559.86</ele>
        <time>2014-10-30T13:04:19Z</time>
      </trkpt>
      <trkpt lat="44.65794" lon="6.04808">
        <ele>1558.22</ele>
        <time>2014-10-30T13:04:38Z</time>
      </trkpt>
      <trkpt lat="44.65793" lon="6.04811">
        <ele>1555.21</ele>
        <time>2014-10-30T13:04:56Z</time>
      </trkpt>
      <trkpt lat="44.65782" lon="6.04793">
        <ele>1552.67</ele>
        <time>2014-10-30T13:05:16Z</time>
      </trkpt>
      <trkpt lat="44.65782" lon="6.04793">
        <ele>1552.49</ele>
        <time>2014-10-30T13:05:17Z</time>
      </trkpt>
      <trkpt lat="44.6578" lon="6.04795">
        <ele>1551.47</ele>
        <time>2014-10-30T13:05:22Z</time>
      </trkpt>
      <trkpt lat="44.6578" lon="6.04797">
        <ele>1551.1</ele>
        <time>2014-10-30T13:05:24Z</time>
      </trkpt>
      <trkpt lat="44.6578" lon="6.04802">
        <ele>1550.68</ele>
        <time>2014-10-30T13:05:27Z</time>
      </trkpt>
      <trkpt lat="44.65779" lon="6.04812">
        <ele>1549.77</ele>
        <time>2014-10-30T13:05:35Z</time>
      </trkpt>
      <trkpt lat="44.65776" lon="6.04812">
        <ele>1548.96</ele>
        <time>2014-10-30T13:05:52Z</time>
      </trkpt>
      <trkpt lat="44.65778" lon="6.04812">
        <ele>1548.86</ele>
        <time>2014-10-30T13:05:55Z</time>
      </trkpt>
      <trkpt lat="44.6578" lon="6.04823">
        <ele>1548.73</ele>
        <time>2014-10-30T13:06:02Z</time>
      </trkpt>
      <trkpt lat="44.6578" lon="6.04829">
        <ele>1548.5</ele>
        <time>2014-10-30T13:06:06Z</time>
      </trkpt>
      <trkpt lat="44.65777" lon="6.04843">
        <ele>1546.08</ele>
        <time>2014-10-30T13:06:19Z</time>
      </trkpt>
      <trkpt lat="44.65774" lon="6.0484">
        <ele>1545.2</ele>
        <time>2014-10-30T13:06:26Z</time>
      </trkpt>
      <trkpt lat="44.65773" lon="6.04843">
        <ele>1543.17</ele>
        <time>2014-10-30T13:06:42Z</time>
      </trkpt>
      <trkpt lat="44.65773" lon="6.04847">
        <ele>1540.55</ele>
        <time>2014-10-30T13:07:05Z</time>
      </trkpt>
      <trkpt lat="44.65772" lon="6.04847">
        <ele>1540.22</ele>
        <time>2014-10-30T13:07:08Z</time>
      </trkpt>
      <trkpt lat="44.65777" lon="6.04865">
        <ele>1538.9</ele>
        <time>2014-10-30T13:07:29Z</time>
      </trkpt>
      <trkpt lat="44.65785" lon="6.04868">
        <ele>1539.69</ele>
        <time>2014-10-30T13:07:41Z</time>
      </trkpt>
      <trkpt lat="44.65786" lon="6.04869">
        <ele>1539.72</ele>
        <time>2014-10-30T13:07:42Z</time>
      </trkpt>
      <trkpt lat="44.6578" lon="6.04912">
        <ele>1540.67</ele>
        <time>2014-10-30T13:08:03Z</time>
      </trkpt>
      <trkpt lat="44.65773" lon="6.04963">
        <ele>1540.85</ele>
        <time>2014-10-30T13:08:14Z</time>
      </trkpt>
      <trkpt lat="44.65778" lon="6.04952">
        <ele>1540.52</ele>
        <time>2014-10-30T13:08:21Z</time>
      </trkpt>
      <trkpt lat="44.6581" lon="6.04885">
        <ele>1543.46</ele>
        <time>2014-10-30T13:08:44Z</time>
      </trkpt>
      <trkpt lat="44.65815" lon="6.04885">
        <ele>1543.88</ele>
        <time>2014-10-30T13:08:54Z</time>
      </trkpt>
      <trkpt lat="44.65815" lon="6.04889">
        <ele>1543.63</ele>
        <time>2014-10-30T13:09:16Z</time>
      </trkpt>
      <trkpt lat="44.65818" lon="6.04895">
        <ele>1542.81</ele>
        <time>2014-10-30T13:09:39Z</time>
      </trkpt>
      <trkpt lat="44.65831" lon="6.0491">
        <ele>1539.77</ele>
        <time>2014-10-30T13:09:58Z</time>
      </trkpt>
      <trkpt lat="44.65839" lon="6.04925">
        <ele>1537.44</ele>
        <time>2014-10-30T13:10:18Z</time>
      </trkpt>
      <trkpt lat="44.65848" lon="6.04938">
        <ele>1535.2</ele>
        <time>2014-10-30T13:10:39Z</time>
      </trkpt>
      <trkpt lat="44.65848" lon="6.04943">
        <ele>1534.32</ele>
        <time>2014-10-30T13:10:47Z</time>
      </trkpt>
      <trkpt lat="44.6585" lon="6.0495">
        <ele>1533.76</ele>
        <time>2014-10-30T13:10:51Z</time>
      </trkpt>
      <trkpt lat="44.65861" lon="6.04963">
        <ele>1530.33</ele>
        <time>2014-10-30T13:11:08Z</time>
      </trkpt>
      <trkpt lat="44.65866" lon="6.04974">
        <ele>1527.43</ele>
        <time>2014-10-30T13:11:26Z</time>
      </trkpt>
      <trkpt lat="44.65872" lon="6.04977">
        <ele>1524.4</ele>
        <time>2014-10-30T13:11:44Z</time>
      </trkpt>
      <trkpt lat="44.65876" lon="6.04976">
        <ele>1523.99</ele>
        <time>2014-10-30T13:12:17Z</time>
      </trkpt>
      <trkpt lat="44.65883" lon="6.04991">
        <ele>1521.08</ele>
        <time>2014-10-30T13:12:34Z</time>
      </trkpt>
      <trkpt lat="44.65886" lon="6.04999">
        <ele>1518.61</ele>
        <time>2014-10-30T13:12:53Z</time>
      </trkpt>
      <trkpt lat="44.65889" lon="6.05009">
        <ele>1517.6</ele>
        <time>2014-10-30T13:13:13Z</time>
      </trkpt>
      <trkpt lat="44.65885" lon="6.05004">
        <ele>1516.42</ele>
        <time>2014-10-30T13:13:33Z</time>
      </trkpt>
      <trkpt lat="44.65876" lon="6.05004">
        <ele>1513.41</ele>
        <time>2014-10-30T13:13:50Z</time>
      </trkpt>
      <trkpt lat="44.65875" lon="6.05004">
        <ele>1512.71</ele>
        <time>2014-10-30T13:14:19Z</time>
      </trkpt>
      <trkpt lat="44.65873" lon="6.05002">
        <ele>1512.25</ele>
        <time>2014-10-30T13:14:34Z</time>
      </trkpt>
      <trkpt lat="44.65866" lon="6.05002">
        <ele>1510.86</ele>
        <time>2014-10-30T13:14:41Z</time>
      </trkpt>
      <trkpt lat="44.65849" lon="6.04989">
        <ele>1507.6</ele>
        <time>2014-10-30T13:14:58Z</time>
      </trkpt>
      <trkpt lat="44.65831" lon="6.0498">
        <ele>1504.53</ele>
        <time>2014-10-30T13:15:13Z</time>
      </trkpt>
      <trkpt lat="44.65827" lon="6.04979">
        <ele>1502.28</ele>
        <time>2014-10-30T13:15:22Z</time>
      </trkpt>
      <trkpt lat="44.6582" lon="6.04971">
        <ele>1500.29</ele>
        <time>2014-10-30T13:15:38Z</time>
      </trkpt>
      <trkpt lat="44.65814" lon="6.04967">
        <ele>1498.09</ele>
        <time>2014-10-30T13:15:58Z</time>
      </trkpt>
      <trkpt lat="44.65814" lon="6.04965">
        <ele>1497.75</ele>
        <time>2014-10-30T13:16:10Z</time>
      </trkpt>
      <trkpt lat="44.65803" lon="6.04955">
        <ele>1495.88</ele>
        <time>2014-10-30T13:16:32Z</time>
      </trkpt>
      <trkpt lat="44.65809" lon="6.04963">
        <ele>1493.57</ele>
        <time>2014-10-30T13:16:49Z</time>
      </trkpt>
      <trkpt lat="44.65812" lon="6.04971">
        <ele>1491.05</ele>
        <time>2014-10-30T13:17:12Z</time>
      </trkpt>
      <trkpt lat="44.65817" lon="6.0499">
        <ele>1488.36</ele>
        <time>2014-10-30T13:17:33Z</time>
      </trkpt>
      <trkpt lat="44.65819" lon="6.05005">
        <ele>1486.27</ele>
        <time>2014-10-30T13:17:53Z</time>
      </trkpt>
      <trkpt lat="44.65824" lon="6.05012">
        <ele>1484.47</ele>
        <time>2014-10-30T13:18:11Z</time>
      </trkpt>
      <trkpt lat="44.6583" lon="6.05018">
        <ele>1482.84</ele>
        <time>2014-10-30T13:18:33Z</time>
      </trkpt>
      <trkpt lat="44.65838" lon="6.05031">
        <ele>1480.64</ele>
        <time>2014-10-30T13:18:53Z</time>
      </trkpt>
      <trkpt lat="44.65845" lon="6.05049">
        <ele>1477.6</ele>
        <time>2014-10-30T13:19:14Z</time>
      </trkpt>
      <trkpt lat="44.65853" lon="6.05063">
        <ele>1475.11</ele>
        <time>2014-10-30T13:19:37Z</time>
      </trkpt>
      <trkpt lat="44.65866" lon="6.0507">
        <ele>1472.17</ele>
        <time>2014-10-30T13:19:59Z</time>
      </trkpt>
      <trkpt lat="44.65879" lon="6.05075">
        <ele>1469.15</ele>
        <time>2014-10-30T13:20:20Z</time>
      </trkpt>
      <trkpt lat="44.65885" lon="6.05074">
        <ele>1467.02</ele>
        <time>2014-10-30T13:20:43Z</time>
      </trkpt>
      <trkpt lat="44.65892" lon="6.05071">
        <ele>1466.04</ele>
        <time>2014-10-30T13:21:05Z</time>
      </trkpt>
      <trkpt lat="44.65902" lon="6.0508">
        <ele>1463.07</ele>
        <time>2014-10-30T13:21:28Z</time>
      </trkpt>
      <trkpt lat="44.65917" lon="6.05088">
        <ele>1460.04</ele>
        <time>2014-10-30T13:21:48Z</time>
      </trkpt>
      <trkpt lat="44.65913" lon="6.05086">
        <ele>1456.99</ele>
        <time>2014-10-30T13:22:03Z</time>
      </trkpt>
      <trkpt lat="44.65898" lon="6.05093">
        <ele>1453.88</ele>
        <time>2014-10-30T13:22:20Z</time>
      </trkpt>
      <trkpt lat="44.6588" lon="6.05095">
        <ele>1451.52</ele>
        <time>2014-10-30T13:22:42Z</time>
      </trkpt>
      <trkpt lat="44.65861" lon="6.05108">
        <ele>1448.39</ele>
        <time>2014-10-30T13:23:01Z</time>
      </trkpt>
      <trkpt lat="44.65848" lon="6.05114">
        <ele>1445.36</ele>
        <time>2014-10-30T13:23:20Z</time>
      </trkpt>
      <trkpt lat="44.65837" lon="6.05114">
        <ele>1443.29</ele>
        <time>2014-10-30T13:23:41Z</time>
      </trkpt>
      <trkpt lat="44.65842" lon="6.05118">
        <ele>1441.06</ele>
        <time>2014-10-30T13:23:58Z</time>
      </trkpt>
      <trkpt lat="44.65853" lon="6.05119">
        <ele>1438.3</ele>
        <time>2014-10-30T13:24:20Z</time>
      </trkpt>
      <trkpt lat="44.65865" lon="6.05127">
        <ele>1435.28</ele>
        <time>2014-10-30T13:24:41Z</time>
      </trkpt>
      <trkpt lat="44.65879" lon="6.05128">
        <ele>1432.22</ele>
        <time>2014-10-30T13:25:02Z</time>
      </trkpt>
      <trkpt lat="44.6589" lon="6.05139">
        <ele>1429.02</ele>
        <time>2014-10-30T13:25:24Z</time>
      </trkpt>
      <trkpt lat="44.65903" lon="6.05148">
        <ele>1426.67</ele>
        <time>2014-10-30T13:25:45Z</time>
      </trkpt>
      <trkpt lat="44.65911" lon="6.05154">
        <ele>1424.38</ele>
        <time>2014-10-30T13:26:05Z</time>
      </trkpt>
      <trkpt lat="44.65919" lon="6.05163">
        <ele>1422.99</ele>
        <time>2014-10-30T13:26:27Z</time>
      </trkpt>
      <trkpt lat="44.65926" lon="6.05167">
        <ele>1421.13</ele>
        <time>2014-10-30T13:26:48Z</time>
      </trkpt>
      <trkpt lat="44.65933" lon="6.05177">
        <ele>1418.71</ele>
        <time>2014-10-30T13:27:11Z</time>
      </trkpt>
      <trkpt lat="44.65937" lon="6.05175">
        <ele>1418.48</ele>
        <time>2014-10-30T13:27:40Z</time>
      </trkpt>
      <trkpt lat="44.65944" lon="6.05185">
        <ele>1417.36</ele>
        <time>2014-10-30T13:28:02Z</time>
      </trkpt>
      <trkpt lat="44.65956" lon="6.05194">
        <ele>1414.33</ele>
        <time>2014-10-30T13:28:21Z</time>
      </trkpt>
      <trkpt lat="44.6597" lon="6.052">
        <ele>1411.89</ele>
        <time>2014-10-30T13:28:40Z</time>
      </trkpt>
      <trkpt lat="44.65986" lon="6.05208">
        <ele>1408.89</ele>
        <time>2014-10-30T13:29:02Z</time>
      </trkpt>
      <trkpt lat="44.65999" lon="6.05217">
        <ele>1406.06</ele>
        <time>2014-10-30T13:29:21Z</time>
      </trkpt>
      <trkpt lat="44.66013" lon="6.05225">
        <ele>1403.04</ele>
        <time>2014-10-30T13:29:43Z</time>
      </trkpt>
      <trkpt lat="44.66024" lon="6.05231">
        <ele>1400</ele>
        <time>2014-10-30T13:30:04Z</time>
      </trkpt>
      <trkpt lat="44.66025" lon="6.05231">
        <ele>1399.6</ele>
        <time>2014-10-30T13:30:08Z</time>
      </trkpt>
      <trkpt lat="44.66039" lon="6.05236">
        <ele>1397.7</ele>
        <time>2014-10-30T13:30:30Z</time>
      </trkpt>
      <trkpt lat="44.6605" lon="6.0524">
        <ele>1394.57</ele>
        <time>2014-10-30T13:30:46Z</time>
      </trkpt>
      <trkpt lat="44.66067" lon="6.05238">
        <ele>1391.36</ele>
        <time>2014-10-30T13:31:07Z</time>
      </trkpt>
      <trkpt lat="44.66082" lon="6.05238">
        <ele>1388.03</ele>
        <time>2014-10-30T13:31:29Z</time>
      </trkpt>
      <trkpt lat="44.66096" lon="6.05241">
        <ele>1385.23</ele>
        <time>2014-10-30T13:31:52Z</time>
      </trkpt>
      <trkpt lat="44.6611" lon="6.05233">
        <ele>1385.22</ele>
        <time>2014-10-30T13:32:20Z</time>
      </trkpt>
      <trkpt lat="44.66109" lon="6.05235">
        <ele>1385.28</ele>
        <time>2014-10-30T13:32:48Z</time>
      </trkpt>
      <trkpt lat="44.66113" lon="6.05245">
        <ele>1383.43</ele>
        <time>2014-10-30T13:33:06Z</time>
      </trkpt>
      <trkpt lat="44.66123" lon="6.05251">
        <ele>1380.41</ele>
        <time>2014-10-30T13:33:27Z</time>
      </trkpt>
      <trkpt lat="44.66138" lon="6.0526">
        <ele>1377.25</ele>
        <time>2014-10-30T13:33:47Z</time>
      </trkpt>
      <trkpt lat="44.66144" lon="6.05261">
        <ele>1375.52</ele>
        <time>2014-10-30T13:33:59Z</time>
      </trkpt>
      <trkpt lat="44.66146" lon="6.0526">
        <ele>1374.69</ele>
        <time>2014-10-30T13:34:03Z</time>
      </trkpt>
      <trkpt lat="44.66158" lon="6.05265">
        <ele>1371.64</ele>
        <time>2014-10-30T13:34:23Z</time>
      </trkpt>
      <trkpt lat="44.66177" lon="6.05261">
        <ele>1368.45</ele>
        <time>2014-10-30T13:34:43Z</time>
      </trkpt>
      <trkpt lat="44.6618" lon="6.05261">
        <ele>1367.95</ele>
        <time>2014-10-30T13:34:46Z</time>
      </trkpt>
      <trkpt lat="44.66185" lon="6.05259">
        <ele>1366.61</ele>
        <time>2014-10-30T13:34:54Z</time>
      </trkpt>
      <trkpt lat="44.66199" lon="6.05253">
        <ele>1364.38</ele>
        <time>2014-10-30T13:35:15Z</time>
      </trkpt>
      <trkpt lat="44.66202" lon="6.05251">
        <ele>1364.05</ele>
        <time>2014-10-30T13:35:19Z</time>
      </trkpt>
      <trkpt lat="44.66205" lon="6.0525">
        <ele>1363.52</ele>
        <time>2014-10-30T13:35:23Z</time>
      </trkpt>
      <trkpt lat="44.66207" lon="6.0525">
        <ele>1363.3</ele>
        <time>2014-10-30T13:35:25Z</time>
      </trkpt>
      <trkpt lat="44.66212" lon="6.05248">
        <ele>1362.49</ele>
        <time>2014-10-30T13:35:32Z</time>
      </trkpt>
      <trkpt lat="44.66227" lon="6.0526">
        <ele>1359.71</ele>
        <time>2014-10-30T13:35:54Z</time>
      </trkpt>
      <trkpt lat="44.66241" lon="6.05259">
        <ele>1356.68</ele>
        <time>2014-10-30T13:36:12Z</time>
      </trkpt>
      <trkpt lat="44.66257" lon="6.05256">
        <ele>1353.81</ele>
        <time>2014-10-30T13:36:29Z</time>
      </trkpt>
      <trkpt lat="44.66263" lon="6.05257">
        <ele>1352.21</ele>
        <time>2014-10-30T13:36:39Z</time>
      </trkpt>
      <trkpt lat="44.6627" lon="6.0526">
        <ele>1350.76</ele>
        <time>2014-10-30T13:36:50Z</time>
      </trkpt>
      <trkpt lat="44.66285" lon="6.05253">
        <ele>1348.21</ele>
        <time>2014-10-30T13:37:04Z</time>
      </trkpt>
      <trkpt lat="44.663" lon="6.05252">
        <ele>1345.08</ele>
        <time>2014-10-30T13:37:23Z</time>
      </trkpt>
      <trkpt lat="44.66307" lon="6.05252">
        <ele>1342.65</ele>
        <time>2014-10-30T13:37:37Z</time>
      </trkpt>
      <trkpt lat="44.66315" lon="6.05248">
        <ele>1342.04</ele>
        <time>2014-10-30T13:37:42Z</time>
      </trkpt>
      <trkpt lat="44.66321" lon="6.05245">
        <ele>1340.93</ele>
        <time>2014-10-30T13:37:52Z</time>
      </trkpt>
      <trkpt lat="44.66338" lon="6.05245">
        <ele>1337.94</ele>
        <time>2014-10-30T13:38:13Z</time>
      </trkpt>
      <trkpt lat="44.66352" lon="6.05244">
        <ele>1334.88</ele>
        <time>2014-10-30T13:38:33Z</time>
      </trkpt>
      <trkpt lat="44.66364" lon="6.05238">
        <ele>1332.21</ele>
        <time>2014-10-30T13:38:48Z</time>
      </trkpt>
      <trkpt lat="44.66365" lon="6.05236">
        <ele>1331.9</ele>
        <time>2014-10-30T13:38:50Z</time>
      </trkpt>
      <trkpt lat="44.66373" lon="6.05234">
        <ele>1330.28</ele>
        <time>2014-10-30T13:39:01Z</time>
      </trkpt>
      <trkpt lat="44.66377" lon="6.05235">
        <ele>1329.63</ele>
        <time>2014-10-30T13:39:05Z</time>
      </trkpt>
      <trkpt lat="44.66381" lon="6.05235">
        <ele>1328.81</ele>
        <time>2014-10-30T13:39:09Z</time>
      </trkpt>
      <trkpt lat="44.66387" lon="6.05237">
        <ele>1328.07</ele>
        <time>2014-10-30T13:39:16Z</time>
      </trkpt>
      <trkpt lat="44.66399" lon="6.05235">
        <ele>1326.01</ele>
        <time>2014-10-30T13:39:36Z</time>
      </trkpt>
      <trkpt lat="44.66411" lon="6.05239">
        <ele>1325.29</ele>
        <time>2014-10-30T13:40:06Z</time>
      </trkpt>
      <trkpt lat="44.66409" lon="6.05263">
        <ele>1322.34</ele>
        <time>2014-10-30T13:40:28Z</time>
      </trkpt>
      <trkpt lat="44.66413" lon="6.0527">
        <ele>1320.33</ele>
        <time>2014-10-30T13:40:44Z</time>
      </trkpt>
      <trkpt lat="44.66418" lon="6.05273">
        <ele>1319.85</ele>
        <time>2014-10-30T13:40:57Z</time>
      </trkpt>
      <trkpt lat="44.66424" lon="6.05265">
        <ele>1319.5</ele>
        <time>2014-10-30T13:41:21Z</time>
      </trkpt>
      <trkpt lat="44.66426" lon="6.05264">
        <ele>1319.56</ele>
        <time>2014-10-30T13:41:24Z</time>
      </trkpt>
      <trkpt lat="44.66428" lon="6.05265">
        <ele>1319.58</ele>
        <time>2014-10-30T13:41:31Z</time>
      </trkpt>
      <trkpt lat="44.66433" lon="6.05292">
        <ele>1317.61</ele>
        <time>2014-10-30T13:41:49Z</time>
      </trkpt>
      <trkpt lat="44.66439" lon="6.05298">
        <ele>1314.48</ele>
        <time>2014-10-30T13:42:07Z</time>
      </trkpt>
      <trkpt lat="44.66446" lon="6.05308">
        <ele>1313.06</ele>
        <time>2014-10-30T13:42:16Z</time>
      </trkpt>
      <trkpt lat="44.66449" lon="6.05311">
        <ele>1312.6</ele>
        <time>2014-10-30T13:42:18Z</time>
      </trkpt>
      <trkpt lat="44.66463" lon="6.05322">
        <ele>1309.28</ele>
        <time>2014-10-30T13:42:34Z</time>
      </trkpt>
      <trkpt lat="44.66469" lon="6.05324">
        <ele>1307.46</ele>
        <time>2014-10-30T13:42:43Z</time>
      </trkpt>
      <trkpt lat="44.66475" lon="6.05323">
        <ele>1306.65</ele>
        <time>2014-10-30T13:42:49Z</time>
      </trkpt>
      <trkpt lat="44.66479" lon="6.05324">
        <ele>1306.24</ele>
        <time>2014-10-30T13:42:52Z</time>
      </trkpt>
      <trkpt lat="44.66493" lon="6.05325">
        <ele>1302.86</ele>
        <time>2014-10-30T13:43:09Z</time>
      </trkpt>
      <trkpt lat="44.66503" lon="6.05327">
        <ele>1300.46</ele>
        <time>2014-10-30T13:43:23Z</time>
      </trkpt>
      <trkpt lat="44.6652" lon="6.05332">
        <ele>1297.19</ele>
        <time>2014-10-30T13:43:40Z</time>
      </trkpt>
      <trkpt lat="44.66524" lon="6.05335">
        <ele>1296.14</ele>
        <time>2014-10-30T13:43:46Z</time>
      </trkpt>
      <trkpt lat="44.66535" lon="6.05338">
        <ele>1294.09</ele>
        <time>2014-10-30T13:43:57Z</time>
      </trkpt>
      <trkpt lat="44.66555" lon="6.05336">
        <ele>1291.38</ele>
        <time>2014-10-30T13:44:14Z</time>
      </trkpt>
      <trkpt lat="44.6656" lon="6.05336">
        <ele>1289.91</ele>
        <time>2014-10-30T13:44:24Z</time>
      </trkpt>
      <trkpt lat="44.6657" lon="6.0533">
        <ele>1287.9</ele>
        <time>2014-10-30T13:44:36Z</time>
      </trkpt>
      <trkpt lat="44.66577" lon="6.0533">
        <ele>1286.73</ele>
        <time>2014-10-30T13:44:49Z</time>
      </trkpt>
      <trkpt lat="44.66579" lon="6.05331">
        <ele>1286.39</ele>
        <time>2014-10-30T13:44:51Z</time>
      </trkpt>
      <trkpt lat="44.66592" lon="6.05343">
        <ele>1283.58</ele>
        <time>2014-10-30T13:45:08Z</time>
      </trkpt>
      <trkpt lat="44.66593" lon="6.0536">
        <ele>1281.15</ele>
        <time>2014-10-30T13:45:27Z</time>
      </trkpt>
      <trkpt lat="44.66585" lon="6.05376">
        <ele>1279.9</ele>
        <time>2014-10-30T13:45:50Z</time>
      </trkpt>
      <trkpt lat="44.66567" lon="6.05382">
        <ele>1280.89</ele>
        <time>2014-10-30T13:46:13Z</time>
      </trkpt>
      <trkpt lat="44.66564" lon="6.05384">
        <ele>1280.98</ele>
        <time>2014-10-30T13:46:16Z</time>
      </trkpt>
      <trkpt lat="44.66549" lon="6.05392">
        <ele>1282.1</ele>
        <time>2014-10-30T13:46:37Z</time>
      </trkpt>
      <trkpt lat="44.66529" lon="6.054">
        <ele>1283.61</ele>
        <time>2014-10-30T13:47:01Z</time>
      </trkpt>
      <trkpt lat="44.6651" lon="6.05406">
        <ele>1284.76</ele>
        <time>2014-10-30T13:47:27Z</time>
      </trkpt>
      <trkpt lat="44.66494" lon="6.05415">
        <ele>1285.62</ele>
        <time>2014-10-30T13:47:48Z</time>
      </trkpt>
      <trkpt lat="44.66489" lon="6.05416">
        <ele>1286.42</ele>
        <time>2014-10-30T13:48:14Z</time>
      </trkpt>
      <trkpt lat="44.66494" lon="6.0542">
        <ele>1286.21</ele>
        <time>2014-10-30T13:48:37Z</time>
      </trkpt>
      <trkpt lat="44.66495" lon="6.05421">
        <ele>1286.42</ele>
        <time>2014-10-30T13:48:40Z</time>
      </trkpt>
      <trkpt lat="44.66493" lon="6.05417">
        <ele>1286.39</ele>
        <time>2014-10-30T13:48:51Z</time>
      </trkpt>
      <trkpt lat="44.66491" lon="6.0541">
        <ele>1286.05</ele>
        <time>2014-10-30T13:49:07Z</time>
      </trkpt>
      <trkpt lat="44.66492" lon="6.05412">
        <ele>1285.81</ele>
        <time>2014-10-30T13:49:17Z</time>
      </trkpt>
      <trkpt lat="44.66486" lon="6.05421">
        <ele>1286.06</ele>
        <time>2014-10-30T13:49:34Z</time>
      </trkpt>
      <trkpt lat="44.66474" lon="6.05428">
        <ele>1286.36</ele>
        <time>2014-10-30T13:49:50Z</time>
      </trkpt>
      <trkpt lat="44.66466" lon="6.05421">
        <ele>1286.38</ele>
        <time>2014-10-30T13:50:06Z</time>
      </trkpt>
      <trkpt lat="44.66459" lon="6.05426">
        <ele>1286.91</ele>
        <time>2014-10-30T13:50:19Z</time>
      </trkpt>
      <trkpt lat="44.66451" lon="6.05449">
        <ele>1287.99</ele>
        <time>2014-10-30T13:50:36Z</time>
      </trkpt>
      <trkpt lat="44.66437" lon="6.0547">
        <ele>1289.57</ele>
        <time>2014-10-30T13:51:01Z</time>
      </trkpt>
      <trkpt lat="44.66434" lon="6.05473">
        <ele>1289.79</ele>
        <time>2014-10-30T13:51:04Z</time>
      </trkpt>
      <trkpt lat="44.6643" lon="6.05477">
        <ele>1290.16</ele>
        <time>2014-10-30T13:51:07Z</time>
      </trkpt>
      <trkpt lat="44.66415" lon="6.05483">
        <ele>1292.27</ele>
        <time>2014-10-30T13:51:30Z</time>
      </trkpt>
      <trkpt lat="44.66409" lon="6.05486">
        <ele>1292.69</ele>
        <time>2014-10-30T13:51:55Z</time>
      </trkpt>
      <trkpt lat="44.66407" lon="6.05479">
        <ele>1292.55</ele>
        <time>2014-10-30T13:52:05Z</time>
      </trkpt>
      <trkpt lat="44.66404" lon="6.05479">
        <ele>1292.66</ele>
        <time>2014-10-30T13:52:09Z</time>
      </trkpt>
      <trkpt lat="44.66403" lon="6.05485">
        <ele>1293.01</ele>
        <time>2014-10-30T13:52:17Z</time>
      </trkpt>
      <trkpt lat="44.66403" lon="6.05484">
        <ele>1293.02</ele>
        <time>2014-10-30T13:52:21Z</time>
      </trkpt>
      <trkpt lat="44.664" lon="6.0548">
        <ele>1293.21</ele>
        <time>2014-10-30T13:52:33Z</time>
      </trkpt>
      <trkpt lat="44.66395" lon="6.05484">
        <ele>1293.42</ele>
        <time>2014-10-30T13:53:03Z</time>
      </trkpt>
      <trkpt lat="44.66392" lon="6.05485">
        <ele>1293</ele>
        <time>2014-10-30T13:53:11Z</time>
      </trkpt>
      <trkpt lat="44.66386" lon="6.05492">
        <ele>1294.04</ele>
        <time>2014-10-30T13:53:20Z</time>
      </trkpt>
      <trkpt lat="44.66382" lon="6.05497">
        <ele>1294.25</ele>
        <time>2014-10-30T13:53:24Z</time>
      </trkpt>
      <trkpt lat="44.66371" lon="6.05496">
        <ele>1294.81</ele>
        <time>2014-10-30T13:53:42Z</time>
      </trkpt>
      <trkpt lat="44.66365" lon="6.05499">
        <ele>1295.39</ele>
        <time>2014-10-30T13:53:49Z</time>
      </trkpt>
      <trkpt lat="44.66363" lon="6.05501">
        <ele>1295.86</ele>
        <time>2014-10-30T13:53:52Z</time>
      </trkpt>
      <trkpt lat="44.66358" lon="6.05501">
        <ele>1296.67</ele>
        <time>2014-10-30T13:53:57Z</time>
      </trkpt>
      <trkpt lat="44.66354" lon="6.05503">
        <ele>1297.19</ele>
        <time>2014-10-30T13:54:01Z</time>
      </trkpt>
      <trkpt lat="44.66345" lon="6.05499">
        <ele>1298.16</ele>
        <time>2014-10-30T13:54:17Z</time>
      </trkpt>
      <trkpt lat="44.66344" lon="6.05498">
        <ele>1298.23</ele>
        <time>2014-10-30T13:54:18Z</time>
      </trkpt>
      <trkpt lat="44.66332" lon="6.05504">
        <ele>1299.15</ele>
        <time>2014-10-30T13:54:33Z</time>
      </trkpt>
      <trkpt lat="44.66329" lon="6.05503">
        <ele>1299.34</ele>
        <time>2014-10-30T13:54:36Z</time>
      </trkpt>
      <trkpt lat="44.66322" lon="6.05495">
        <ele>1299.8</ele>
        <time>2014-10-30T13:54:45Z</time>
      </trkpt>
      <trkpt lat="44.66315" lon="6.05494">
        <ele>1300.41</ele>
        <time>2014-10-30T13:54:56Z</time>
      </trkpt>
      <trkpt lat="44.66312" lon="6.05495">
        <ele>1301.09</ele>
        <time>2014-10-30T13:55:02Z</time>
      </trkpt>
      <trkpt lat="44.6631" lon="6.05498">
        <ele>1301.56</ele>
        <time>2014-10-30T13:55:05Z</time>
      </trkpt>
      <trkpt lat="44.66307" lon="6.05502">
        <ele>1301.83</ele>
        <time>2014-10-30T13:55:08Z</time>
      </trkpt>
      <trkpt lat="44.66302" lon="6.05505">
        <ele>1302.41</ele>
        <time>2014-10-30T13:55:14Z</time>
      </trkpt>
      <trkpt lat="44.66293" lon="6.05511">
        <ele>1303.22</ele>
        <time>2014-10-30T13:55:26Z</time>
      </trkpt>
      <trkpt lat="44.66291" lon="6.05507">
        <ele>1303.33</ele>
        <time>2014-10-30T13:55:30Z</time>
      </trkpt>
      <trkpt lat="44.66288" lon="6.05502">
        <ele>1303.3</ele>
        <time>2014-10-30T13:55:37Z</time>
      </trkpt>
      <trkpt lat="44.66283" lon="6.05505">
        <ele>1303.76</ele>
        <time>2014-10-30T13:55:46Z</time>
      </trkpt>
      <trkpt lat="44.6628" lon="6.05504">
        <ele>1303.91</ele>
        <time>2014-10-30T13:55:49Z</time>
      </trkpt>
      <trkpt lat="44.66278" lon="6.05502">
        <ele>1303.97</ele>
        <time>2014-10-30T13:55:51Z</time>
      </trkpt>
      <trkpt lat="44.66273" lon="6.055">
        <ele>1304.05</ele>
        <time>2014-10-30T13:55:57Z</time>
      </trkpt>
      <trkpt lat="44.66267" lon="6.05503">
        <ele>1304.44</ele>
        <time>2014-10-30T13:56:06Z</time>
      </trkpt>
      <trkpt lat="44.66253" lon="6.05498">
        <ele>1304.8</ele>
        <time>2014-10-30T13:56:21Z</time>
      </trkpt>
      <trkpt lat="44.6625" lon="6.05496">
        <ele>1304.97</ele>
        <time>2014-10-30T13:56:25Z</time>
      </trkpt>
      <trkpt lat="44.66245" lon="6.05494">
        <ele>1305.11</ele>
        <time>2014-10-30T13:56:33Z</time>
      </trkpt>
      <trkpt lat="44.66241" lon="6.05491">
        <ele>1305.11</ele>
        <time>2014-10-30T13:56:40Z</time>
      </trkpt>
      <trkpt lat="44.66236" lon="6.05483">
        <ele>1305.06</ele>
        <time>2014-10-30T13:56:48Z</time>
      </trkpt>
      <trkpt lat="44.66229" lon="6.05474">
        <ele>1305.4</ele>
        <time>2014-10-30T13:57:00Z</time>
      </trkpt>
      <trkpt lat="44.66222" lon="6.05479">
        <ele>1305.41</ele>
        <time>2014-10-30T13:57:07Z</time>
      </trkpt>
      <trkpt lat="44.66203" lon="6.05477">
        <ele>1305.23</ele>
        <time>2014-10-30T13:57:20Z</time>
      </trkpt>
      <trkpt lat="44.66201" lon="6.05478">
        <ele>1305.25</ele>
        <time>2014-10-30T13:57:22Z</time>
      </trkpt>
      <trkpt lat="44.66196" lon="6.05478">
        <ele>1305.4</ele>
        <time>2014-10-30T13:57:27Z</time>
      </trkpt>
      <trkpt lat="44.66193" lon="6.05473">
        <ele>1305.56</ele>
        <time>2014-10-30T13:57:30Z</time>
      </trkpt>
      <trkpt lat="44.6619" lon="6.0547">
        <ele>1305.66</ele>
        <time>2014-10-30T13:57:32Z</time>
      </trkpt>
      <trkpt lat="44.66187" lon="6.05468">
        <ele>1305.98</ele>
        <time>2014-10-30T13:57:36Z</time>
      </trkpt>
      <trkpt lat="44.6618" lon="6.05466">
        <ele>1306.31</ele>
        <time>2014-10-30T13:57:43Z</time>
      </trkpt>
      <trkpt lat="44.66168" lon="6.05459">
        <ele>1306.59</ele>
        <time>2014-10-30T13:57:56Z</time>
      </trkpt>
      <trkpt lat="44.66165" lon="6.05458">
        <ele>1306.83</ele>
        <time>2014-10-30T13:58:06Z</time>
      </trkpt>
      <trkpt lat="44.66161" lon="6.05449">
        <ele>1306.89</ele>
        <time>2014-10-30T13:58:25Z</time>
      </trkpt>
      <trkpt lat="44.66152" lon="6.05424">
        <ele>1306.9</ele>
        <time>2014-10-30T13:58:36Z</time>
      </trkpt>
      <trkpt lat="44.66137" lon="6.05414">
        <ele>1307.4</ele>
        <time>2014-10-30T13:58:50Z</time>
      </trkpt>
      <trkpt lat="44.66135" lon="6.05414">
        <ele>1307.47</ele>
        <time>2014-10-30T13:58:53Z</time>
      </trkpt>
      <trkpt lat="44.66133" lon="6.05413">
        <ele>1307.5</ele>
        <time>2014-10-30T13:58:55Z</time>
      </trkpt>
      <trkpt lat="44.66131" lon="6.05413">
        <ele>1307.5</ele>
        <time>2014-10-30T13:58:57Z</time>
      </trkpt>
      <trkpt lat="44.66129" lon="6.05413">
        <ele>1307.54</ele>
        <time>2014-10-30T13:59:00Z</time>
      </trkpt>
      <trkpt lat="44.66125" lon="6.05417">
        <ele>1307.8</ele>
        <time>2014-10-30T13:59:07Z</time>
      </trkpt>
      <trkpt lat="44.66111" lon="6.05425">
        <ele>1309.07</ele>
        <time>2014-10-30T13:59:25Z</time>
      </trkpt>
      <trkpt lat="44.6611" lon="6.05425">
        <ele>1309.17</ele>
        <time>2014-10-30T13:59:27Z</time>
      </trkpt>
      <trkpt lat="44.66099" lon="6.05424">
        <ele>1309.92</ele>
        <time>2014-10-30T13:59:40Z</time>
      </trkpt>
      <trkpt lat="44.66098" lon="6.05424">
        <ele>1309.96</ele>
        <time>2014-10-30T13:59:41Z</time>
      </trkpt>
      <trkpt lat="44.66081" lon="6.05423">
        <ele>1311.51</ele>
        <time>2014-10-30T13:59:59Z</time>
      </trkpt>
      <trkpt lat="44.66068" lon="6.05424">
        <ele>1313.36</ele>
        <time>2014-10-30T14:00:17Z</time>
      </trkpt>
      <trkpt lat="44.66064" lon="6.05426">
        <ele>1314.03</ele>
        <time>2014-10-30T14:00:23Z</time>
      </trkpt>
      <trkpt lat="44.66059" lon="6.05421">
        <ele>1314.82</ele>
        <time>2014-10-30T14:00:31Z</time>
      </trkpt>
      <trkpt lat="44.6605" lon="6.05421">
        <ele>1315.83</ele>
        <time>2014-10-30T14:00:40Z</time>
      </trkpt>
      <trkpt lat="44.66048" lon="6.05422">
        <ele>1315.9</ele>
        <time>2014-10-30T14:00:42Z</time>
      </trkpt>
      <trkpt lat="44.66045" lon="6.05421">
        <ele>1316.01</ele>
        <time>2014-10-30T14:00:45Z</time>
      </trkpt>
      <trkpt lat="44.66037" lon="6.05416">
        <ele>1316.46</ele>
        <time>2014-10-30T14:00:53Z</time>
      </trkpt>
      <trkpt lat="44.66032" lon="6.05417">
        <ele>1316.61</ele>
        <time>2014-10-30T14:00:58Z</time>
      </trkpt>
      <trkpt lat="44.66021" lon="6.05415">
        <ele>1317.62</ele>
        <time>2014-10-30T14:01:11Z</time>
      </trkpt>
      <trkpt lat="44.66021" lon="6.05415">
        <ele>1317.68</ele>
        <time>2014-10-30T14:01:12Z</time>
      </trkpt>
      <trkpt lat="44.66017" lon="6.05409">
        <ele>1318.23</ele>
        <time>2014-10-30T14:01:20Z</time>
      </trkpt>
      <trkpt lat="44.66008" lon="6.05424">
        <ele>1318.82</ele>
        <time>2014-10-30T14:01:28Z</time>
      </trkpt>
      <trkpt lat="44.66002" lon="6.05433">
        <ele>1319.01</ele>
        <time>2014-10-30T14:01:34Z</time>
      </trkpt>
      <trkpt lat="44.66" lon="6.05439">
        <ele>1319.08</ele>
        <time>2014-10-30T14:01:37Z</time>
      </trkpt>
      <trkpt lat="44.65995" lon="6.05437">
        <ele>1319.04</ele>
        <time>2014-10-30T14:01:44Z</time>
      </trkpt>
      <trkpt lat="44.6599" lon="6.0544">
        <ele>1319.31</ele>
        <time>2014-10-30T14:01:50Z</time>
      </trkpt>
      <trkpt lat="44.65986" lon="6.05457">
        <ele>1319.94</ele>
        <time>2014-10-30T14:01:59Z</time>
      </trkpt>
      <trkpt lat="44.65977" lon="6.05455">
        <ele>1320.04</ele>
        <time>2014-10-30T14:02:07Z</time>
      </trkpt>
      <trkpt lat="44.65975" lon="6.05452">
        <ele>1320.15</ele>
        <time>2014-10-30T14:02:09Z</time>
      </trkpt>
      <trkpt lat="44.65972" lon="6.05449">
        <ele>1320.32</ele>
        <time>2014-10-30T14:02:12Z</time>
      </trkpt>
      <trkpt lat="44.65964" lon="6.05439">
        <ele>1320.2</ele>
        <time>2014-10-30T14:02:20Z</time>
      </trkpt>
      <trkpt lat="44.65945" lon="6.05415">
        <ele>1320.77</ele>
        <time>2014-10-30T14:02:34Z</time>
      </trkpt>
      <trkpt lat="44.65933" lon="6.05404">
        <ele>1321.32</ele>
        <time>2014-10-30T14:02:44Z</time>
      </trkpt>
      <trkpt lat="44.65933" lon="6.05404">
        <ele>1321.34</ele>
        <time>2014-10-30T14:02:45Z</time>
      </trkpt>
      <trkpt lat="44.65924" lon="6.05401">
        <ele>1321.17</ele>
        <time>2014-10-30T14:02:57Z</time>
      </trkpt>
      <trkpt lat="44.65923" lon="6.05401">
        <ele>1321.22</ele>
        <time>2014-10-30T14:02:59Z</time>
      </trkpt>
      <trkpt lat="44.65914" lon="6.05396">
        <ele>1321.5</ele>
        <time>2014-10-30T14:03:09Z</time>
      </trkpt>
      <trkpt lat="44.65903" lon="6.05393">
        <ele>1322.54</ele>
        <time>2014-10-30T14:03:23Z</time>
      </trkpt>
      <trkpt lat="44.65901" lon="6.05394">
        <ele>1322.77</ele>
        <time>2014-10-30T14:03:26Z</time>
      </trkpt>
      <trkpt lat="44.65893" lon="6.05388">
        <ele>1322.84</ele>
        <time>2014-10-30T14:03:33Z</time>
      </trkpt>
      <trkpt lat="44.65888" lon="6.05387">
        <ele>1322.97</ele>
        <time>2014-10-30T14:03:38Z</time>
      </trkpt>
      <trkpt lat="44.65885" lon="6.05383">
        <ele>1323.11</ele>
        <time>2014-10-30T14:03:41Z</time>
      </trkpt>
      <trkpt lat="44.65882" lon="6.0538">
        <ele>1323.15</ele>
        <time>2014-10-30T14:03:44Z</time>
      </trkpt>
      <trkpt lat="44.65874" lon="6.05386">
        <ele>1322.96</ele>
        <time>2014-10-30T14:03:53Z</time>
      </trkpt>
      <trkpt lat="44.65871" lon="6.05386">
        <ele>1322.71</ele>
        <time>2014-10-30T14:03:56Z</time>
      </trkpt>
      <trkpt lat="44.65862" lon="6.05381">
        <ele>1321.94</ele>
        <time>2014-10-30T14:04:04Z</time>
      </trkpt>
      <trkpt lat="44.65858" lon="6.0538">
        <ele>1321.59</ele>
        <time>2014-10-30T14:04:08Z</time>
      </trkpt>
      <trkpt lat="44.65851" lon="6.054">
        <ele>1321.36</ele>
        <time>2014-10-30T14:04:20Z</time>
      </trkpt>
      <trkpt lat="44.6585" lon="6.05401">
        <ele>1321.35</ele>
        <time>2014-10-30T14:04:21Z</time>
      </trkpt>
      <trkpt lat="44.65846" lon="6.05397">
        <ele>1321.27</ele>
        <time>2014-10-30T14:04:25Z</time>
      </trkpt>
      <trkpt lat="44.65842" lon="6.05393">
        <ele>1321.14</ele>
        <time>2014-10-30T14:04:30Z</time>
      </trkpt>
      <trkpt lat="44.65836" lon="6.05395">
        <ele>1321.42</ele>
        <time>2014-10-30T14:04:38Z</time>
      </trkpt>
      <trkpt lat="44.65831" lon="6.05389">
        <ele>1321.55</ele>
        <time>2014-10-30T14:04:42Z</time>
      </trkpt>
      <trkpt lat="44.65825" lon="6.05385">
        <ele>1321.85</ele>
        <time>2014-10-30T14:04:48Z</time>
      </trkpt>
      <trkpt lat="44.65821" lon="6.05386">
        <ele>1321.98</ele>
        <time>2014-10-30T14:04:53Z</time>
      </trkpt>
      <trkpt lat="44.65817" lon="6.05389">
        <ele>1321.52</ele>
        <time>2014-10-30T14:04:57Z</time>
      </trkpt>
      <trkpt lat="44.65808" lon="6.05391">
        <ele>1320.16</ele>
        <time>2014-10-30T14:05:08Z</time>
      </trkpt>
      <trkpt lat="44.65788" lon="6.05383">
        <ele>1316.92</ele>
        <time>2014-10-30T14:05:28Z</time>
      </trkpt>
      <trkpt lat="44.65781" lon="6.05379">
        <ele>1315.86</ele>
        <time>2014-10-30T14:05:35Z</time>
      </trkpt>
      <trkpt lat="44.65779" lon="6.05382">
        <ele>1314.72</ele>
        <time>2014-10-30T14:05:46Z</time>
      </trkpt>
      <trkpt lat="44.65777" lon="6.05382">
        <ele>1314.67</ele>
        <time>2014-10-30T14:05:55Z</time>
      </trkpt>
      <trkpt lat="44.65776" lon="6.05384">
        <ele>1314.63</ele>
        <time>2014-10-30T14:05:59Z</time>
      </trkpt>
      <trkpt lat="44.65777" lon="6.05392">
        <ele>1314.41</ele>
        <time>2014-10-30T14:06:07Z</time>
      </trkpt>
      <trkpt lat="44.65778" lon="6.05391">
        <ele>1314.53</ele>
        <time>2014-10-30T14:06:15Z</time>
      </trkpt>
      <trkpt lat="44.65778" lon="6.05396">
        <ele>1314.47</ele>
        <time>2014-10-30T14:06:19Z</time>
      </trkpt>
      <trkpt lat="44.65778" lon="6.05398">
        <ele>1314.34</ele>
        <time>2014-10-30T14:06:26Z</time>
      </trkpt>
      <trkpt lat="44.65779" lon="6.054">
        <ele>1314.34</ele>
        <time>2014-10-30T14:06:28Z</time>
      </trkpt>
      <trkpt lat="44.65779" lon="6.05398">
        <ele>1314.36</ele>
        <time>2014-10-30T14:06:30Z</time>
      </trkpt>
      <trkpt lat="44.6578" lon="6.05396">
        <ele>1314.37</ele>
        <time>2014-10-30T14:06:34Z</time>
      </trkpt>
      <trkpt lat="44.65781" lon="6.05396">
        <ele>1314.39</ele>
        <time>2014-10-30T14:06:38Z</time>
      </trkpt>
      <trkpt lat="44.65781" lon="6.05397">
        <ele>1314.36</ele>
        <time>2014-10-30T14:06:41Z</time>
      </trkpt>
      <trkpt lat="44.65779" lon="6.05382">
        <ele>1314.11</ele>
        <time>2014-10-30T14:06:57Z</time>
      </trkpt>
      <trkpt lat="44.65779" lon="6.05384">
        <ele>1314.08</ele>
        <time>2014-10-30T14:07:08Z</time>
      </trkpt>
      <trkpt lat="44.65779" lon="6.05388">
        <ele>1314.07</ele>
        <time>2014-10-30T14:07:10Z</time>
      </trkpt>
      <trkpt lat="44.6578" lon="6.05392">
        <ele>1314.09</ele>
        <time>2014-10-30T14:07:15Z</time>
      </trkpt>
      <trkpt lat="44.6578" lon="6.0538">
        <ele>1314.34</ele>
        <time>2014-10-30T14:07:28Z</time>
      </trkpt>
      <trkpt lat="44.65781" lon="6.05383">
        <ele>1314.47</ele>
        <time>2014-10-30T14:07:39Z</time>
      </trkpt>
      <trkpt lat="44.65778" lon="6.0537">
        <ele>1314.11</ele>
        <time>2014-10-30T14:07:49Z</time>
      </trkpt>
      <trkpt lat="44.65779" lon="6.05373">
        <ele>1314.34</ele>
        <time>2014-10-30T14:08:22Z</time>
      </trkpt>
      <trkpt lat="44.65778" lon="6.05379">
        <ele>1314.33</ele>
        <time>2014-10-30T14:08:27Z</time>
      </trkpt>
      <trkpt lat="44.65777" lon="6.05376">
        <ele>1314.27</ele>
        <time>2014-10-30T14:08:29Z</time>
      </trkpt>
      <trkpt lat="44.65771" lon="6.05377">
        <ele>1313.59</ele>
        <time>2014-10-30T14:08:42Z</time>
      </trkpt>
      <trkpt lat="44.65768" lon="6.05382">
        <ele>1312.57</ele>
        <time>2014-10-30T14:08:51Z</time>
      </trkpt>
      <trkpt lat="44.65766" lon="6.05386">
        <ele>1311.94</ele>
        <time>2014-10-30T14:08:54Z</time>
      </trkpt>
      <trkpt lat="44.65763" lon="6.0539">
        <ele>1310.75</ele>
        <time>2014-10-30T14:09:00Z</time>
      </trkpt>
      <trkpt lat="44.65757" lon="6.0538">
        <ele>1308.82</ele>
        <time>2014-10-30T14:09:10Z</time>
      </trkpt>
      <trkpt lat="44.65755" lon="6.05378">
        <ele>1308.37</ele>
        <time>2014-10-30T14:09:12Z</time>
      </trkpt>
      <trkpt lat="44.65754" lon="6.05376">
        <ele>1307.87</ele>
        <time>2014-10-30T14:09:14Z</time>
      </trkpt>
      <trkpt lat="44.65752" lon="6.05371">
        <ele>1307.29</ele>
        <time>2014-10-30T14:09:17Z</time>
      </trkpt>
      <trkpt lat="44.65746" lon="6.05355">
        <ele>1306.05</ele>
        <time>2014-10-30T14:09:28Z</time>
      </trkpt>
      <trkpt lat="44.65743" lon="6.05348">
        <ele>1304.38</ele>
        <time>2014-10-30T14:09:39Z</time>
      </trkpt>
      <trkpt lat="44.65743" lon="6.05345">
        <ele>1304.24</ele>
        <time>2014-10-30T14:09:40Z</time>
      </trkpt>
      <trkpt lat="44.65741" lon="6.05342">
        <ele>1303.64</ele>
        <time>2014-10-30T14:09:44Z</time>
      </trkpt>
      <trkpt lat="44.65739" lon="6.05344">
        <ele>1303.05</ele>
        <time>2014-10-30T14:09:49Z</time>
      </trkpt>
      <trkpt lat="44.65736" lon="6.05343">
        <ele>1302.62</ele>
        <time>2014-10-30T14:09:52Z</time>
      </trkpt>
      <trkpt lat="44.65734" lon="6.05345">
        <ele>1302.07</ele>
        <time>2014-10-30T14:09:56Z</time>
      </trkpt>
      <trkpt lat="44.65734" lon="6.05342">
        <ele>1300.26</ele>
        <time>2014-10-30T14:10:07Z</time>
      </trkpt>
      <trkpt lat="44.65733" lon="6.05341">
        <ele>1299.38</ele>
        <time>2014-10-30T14:10:15Z</time>
      </trkpt>
      <trkpt lat="44.65733" lon="6.05337">
        <ele>1298.77</ele>
        <time>2014-10-30T14:10:20Z</time>
      </trkpt>
      <trkpt lat="44.65732" lon="6.05337">
        <ele>1298.65</ele>
        <time>2014-10-30T14:10:22Z</time>
      </trkpt>
      <trkpt lat="44.6573" lon="6.05338">
        <ele>1297.44</ele>
        <time>2014-10-30T14:10:31Z</time>
      </trkpt>
      <trkpt lat="44.65712" lon="6.0534">
        <ele>1295.28</ele>
        <time>2014-10-30T14:10:49Z</time>
      </trkpt>
      <trkpt lat="44.65718" lon="6.05338">
        <ele>1294.57</ele>
        <time>2014-10-30T14:10:56Z</time>
      </trkpt>
      <trkpt lat="44.65719" lon="6.05343">
        <ele>1293.98</ele>
        <time>2014-10-30T14:11:01Z</time>
      </trkpt>
      <trkpt lat="44.65716" lon="6.05343">
        <ele>1293.56</ele>
        <time>2014-10-30T14:11:04Z</time>
      </trkpt>
      <trkpt lat="44.65709" lon="6.05333">
        <ele>1292.98</ele>
        <time>2014-10-30T14:11:13Z</time>
      </trkpt>
      <trkpt lat="44.65699" lon="6.05317">
        <ele>1292</ele>
        <time>2014-10-30T14:11:23Z</time>
      </trkpt>
      <trkpt lat="44.65697" lon="6.0531">
        <ele>1291.94</ele>
        <time>2014-10-30T14:11:27Z</time>
      </trkpt>
      <trkpt lat="44.65692" lon="6.05285">
        <ele>1292.07</ele>
        <time>2014-10-30T14:11:34Z</time>
      </trkpt>
      <trkpt lat="44.6569" lon="6.05275">
        <ele>1292.37</ele>
        <time>2014-10-30T14:11:44Z</time>
      </trkpt>
      <trkpt lat="44.65689" lon="6.05272">
        <ele>1292.35</ele>
        <time>2014-10-30T14:11:45Z</time>
      </trkpt>
      <trkpt lat="44.65689" lon="6.0527">
        <ele>1292.28</ele>
        <time>2014-10-30T14:11:47Z</time>
      </trkpt>
      <trkpt lat="44.65686" lon="6.05275">
        <ele>1292.34</ele>
        <time>2014-10-30T14:11:59Z</time>
      </trkpt>
      <trkpt lat="44.6568" lon="6.05269">
        <ele>1292.34</ele>
        <time>2014-10-30T14:12:12Z</time>
      </trkpt>
      <trkpt lat="44.6568" lon="6.05263">
        <ele>1292.23</ele>
        <time>2014-10-30T14:12:17Z</time>
      </trkpt>
      <trkpt lat="44.65679" lon="6.05267">
        <ele>1292.5</ele>
        <time>2014-10-30T14:12:32Z</time>
      </trkpt>
      <trkpt lat="44.65678" lon="6.05268">
        <ele>1292.47</ele>
        <time>2014-10-30T14:12:33Z</time>
      </trkpt>
      <trkpt lat="44.65678" lon="6.0526">
        <ele>1292.51</ele>
        <time>2014-10-30T14:12:46Z</time>
      </trkpt>
      <trkpt lat="44.65678" lon="6.05259">
        <ele>1292.35</ele>
        <time>2014-10-30T14:12:48Z</time>
      </trkpt>
      <trkpt lat="44.65681" lon="6.05259">
        <ele>1291.64</ele>
        <time>2014-10-30T14:13:01Z</time>
      </trkpt>
      <trkpt lat="44.65682" lon="6.05258">
        <ele>1291.6</ele>
        <time>2014-10-30T14:13:05Z</time>
      </trkpt>
      <trkpt lat="44.6568" lon="6.05255">
        <ele>1291.87</ele>
        <time>2014-10-30T14:13:13Z</time>
      </trkpt>
      <trkpt lat="44.6568" lon="6.05251">
        <ele>1291.95</ele>
        <time>2014-10-30T14:13:15Z</time>
      </trkpt>
      <trkpt lat="44.65682" lon="6.05261">
        <ele>1293.26</ele>
        <time>2014-10-30T14:13:23Z</time>
      </trkpt>
      <trkpt lat="44.65681" lon="6.05265">
        <ele>1293.57</ele>
        <time>2014-10-30T14:13:26Z</time>
      </trkpt>
      <trkpt lat="44.65682" lon="6.05271">
        <ele>1293.57</ele>
        <time>2014-10-30T14:13:33Z</time>
      </trkpt>
      <trkpt lat="44.65681" lon="6.0528">
        <ele>1293.3</ele>
        <time>2014-10-30T14:13:38Z</time>
      </trkpt>
      <trkpt lat="44.65679" lon="6.05285">
        <ele>1293.28</ele>
        <time>2014-10-30T14:13:45Z</time>
      </trkpt>
      <trkpt lat="44.65676" lon="6.05289">
        <ele>1294.65</ele>
        <time>2014-10-30T14:13:57Z</time>
      </trkpt>
      <trkpt lat="44.65675" lon="6.05293">
        <ele>1295.67</ele>
        <time>2014-10-30T14:14:01Z</time>
      </trkpt>
      <trkpt lat="44.65673" lon="6.05296">
        <ele>1295.98</ele>
        <time>2014-10-30T14:14:03Z</time>
      </trkpt>
      <trkpt lat="44.65667" lon="6.05303">
        <ele>1298.38</ele>
        <time>2014-10-30T14:14:17Z</time>
      </trkpt>
      <trkpt lat="44.65665" lon="6.05304">
        <ele>1298.73</ele>
        <time>2014-10-30T14:14:19Z</time>
      </trkpt>
      <trkpt lat="44.65657" lon="6.05314">
        <ele>1300.94</ele>
        <time>2014-10-30T14:14:32Z</time>
      </trkpt>
      <trkpt lat="44.65655" lon="6.05316">
        <ele>1302.68</ele>
        <time>2014-10-30T14:14:44Z</time>
      </trkpt>
      <trkpt lat="44.65652" lon="6.05318">
        <ele>1302.99</ele>
        <time>2014-10-30T14:14:51Z</time>
      </trkpt>
      <trkpt lat="44.65651" lon="6.0532">
        <ele>1303.41</ele>
        <time>2014-10-30T14:14:57Z</time>
      </trkpt>
      <trkpt lat="44.65647" lon="6.05327">
        <ele>1304.94</ele>
        <time>2014-10-30T14:15:10Z</time>
      </trkpt>
      <trkpt lat="44.65643" lon="6.05325">
        <ele>1306.16</ele>
        <time>2014-10-30T14:15:21Z</time>
      </trkpt>
      <trkpt lat="44.65643" lon="6.05325">
        <ele>1306.23</ele>
        <time>2014-10-30T14:15:22Z</time>
      </trkpt>
      <trkpt lat="44.65641" lon="6.05327">
        <ele>1306.78</ele>
        <time>2014-10-30T14:15:26Z</time>
      </trkpt>
      <trkpt lat="44.65639" lon="6.05318">
        <ele>1308.43</ele>
        <time>2014-10-30T14:15:39Z</time>
      </trkpt>
      <trkpt lat="44.65636" lon="6.05312">
        <ele>1310.78</ele>
        <time>2014-10-30T14:15:52Z</time>
      </trkpt>
      <trkpt lat="44.65633" lon="6.05318">
        <ele>1311.77</ele>
        <time>2014-10-30T14:15:57Z</time>
      </trkpt>
      <trkpt lat="44.6563" lon="6.05326">
        <ele>1312.97</ele>
        <time>2014-10-30T14:16:06Z</time>
      </trkpt>
      <trkpt lat="44.65631" lon="6.05333">
        <ele>1314.31</ele>
        <time>2014-10-30T14:16:17Z</time>
      </trkpt>
      <trkpt lat="44.65633" lon="6.05332">
        <ele>1314.75</ele>
        <time>2014-10-30T14:16:20Z</time>
      </trkpt>
      <trkpt lat="44.65633" lon="6.0534">
        <ele>1315.39</ele>
        <time>2014-10-30T14:16:28Z</time>
      </trkpt>
      <trkpt lat="44.65635" lon="6.05349">
        <ele>1314.91</ele>
        <time>2014-10-30T14:16:38Z</time>
      </trkpt>
      <trkpt lat="44.65634" lon="6.05347">
        <ele>1314.96</ele>
        <time>2014-10-30T14:16:41Z</time>
      </trkpt>
      <trkpt lat="44.6563" lon="6.05347">
        <ele>1315.12</ele>
        <time>2014-10-30T14:16:45Z</time>
      </trkpt>
      <trkpt lat="44.65624" lon="6.05351">
        <ele>1315.43</ele>
        <time>2014-10-30T14:16:51Z</time>
      </trkpt>
      <trkpt lat="44.65624" lon="6.05358">
        <ele>1315.86</ele>
        <time>2014-10-30T14:17:02Z</time>
      </trkpt>
      <trkpt lat="44.65623" lon="6.05359">
        <ele>1316.03</ele>
        <time>2014-10-30T14:17:08Z</time>
      </trkpt>
      <trkpt lat="44.65623" lon="6.05363">
        <ele>1316.12</ele>
        <time>2014-10-30T14:17:10Z</time>
      </trkpt>
      <trkpt lat="44.65625" lon="6.05384">
        <ele>1315.99</ele>
        <time>2014-10-30T14:17:23Z</time>
      </trkpt>
      <trkpt lat="44.65623" lon="6.0539">
        <ele>1316.01</ele>
        <time>2014-10-30T14:17:26Z</time>
      </trkpt>
      <trkpt lat="44.65622" lon="6.05393">
        <ele>1315.95</ele>
        <time>2014-10-30T14:17:28Z</time>
      </trkpt>
      <trkpt lat="44.65623" lon="6.05396">
        <ele>1315.97</ele>
        <time>2014-10-30T14:17:34Z</time>
      </trkpt>
      <trkpt lat="44.6562" lon="6.05399">
        <ele>1316.29</ele>
        <time>2014-10-30T14:17:41Z</time>
      </trkpt>
      <trkpt lat="44.65619" lon="6.054">
        <ele>1316.47</ele>
        <time>2014-10-30T14:17:43Z</time>
      </trkpt>
      <trkpt lat="44.65617" lon="6.05406">
        <ele>1316.65</ele>
        <time>2014-10-30T14:17:51Z</time>
      </trkpt>
      <trkpt lat="44.65618" lon="6.05411">
        <ele>1316.67</ele>
        <time>2014-10-30T14:17:54Z</time>
      </trkpt>
      <trkpt lat="44.65619" lon="6.05416">
        <ele>1316.81</ele>
        <time>2014-10-30T14:17:58Z</time>
      </trkpt>
      <trkpt lat="44.65619" lon="6.0542">
        <ele>1316.84</ele>
        <time>2014-10-30T14:18:00Z</time>
      </trkpt>
      <trkpt lat="44.65619" lon="6.05423">
        <ele>1316.81</ele>
        <time>2014-10-30T14:18:02Z</time>
      </trkpt>
      <trkpt lat="44.65618" lon="6.05434">
        <ele>1317.01</ele>
        <time>2014-10-30T14:18:11Z</time>
      </trkpt>
      <trkpt lat="44.65614" lon="6.0544">
        <ele>1316.92</ele>
        <time>2014-10-30T14:18:22Z</time>
      </trkpt>
      <trkpt lat="44.65612" lon="6.05455">
        <ele>1317.82</ele>
        <time>2014-10-30T14:18:31Z</time>
      </trkpt>
      <trkpt lat="44.65611" lon="6.05461">
        <ele>1317.91</ele>
        <time>2014-10-30T14:18:33Z</time>
      </trkpt>
      <trkpt lat="44.65611" lon="6.05464">
        <ele>1317.97</ele>
        <time>2014-10-30T14:18:35Z</time>
      </trkpt>
      <trkpt lat="44.65609" lon="6.05474">
        <ele>1318.11</ele>
        <time>2014-10-30T14:18:40Z</time>
      </trkpt>
      <trkpt lat="44.65608" lon="6.05479">
        <ele>1318.23</ele>
        <time>2014-10-30T14:18:43Z</time>
      </trkpt>
      <trkpt lat="44.65605" lon="6.05487">
        <ele>1318.74</ele>
        <time>2014-10-30T14:18:48Z</time>
      </trkpt>
      <trkpt lat="44.65598" lon="6.05496">
        <ele>1319.16</ele>
        <time>2014-10-30T14:19:01Z</time>
      </trkpt>
      <trkpt lat="44.65595" lon="6.05503">
        <ele>1318.9</ele>
        <time>2014-10-30T14:19:06Z</time>
      </trkpt>
      <trkpt lat="44.65591" lon="6.05507">
        <ele>1318.81</ele>
        <time>2014-10-30T14:19:11Z</time>
      </trkpt>
      <trkpt lat="44.65587" lon="6.0551">
        <ele>1318.86</ele>
        <time>2014-10-30T14:19:19Z</time>
      </trkpt>
      <trkpt lat="44.65579" lon="6.05509">
        <ele>1318.49</ele>
        <time>2014-10-30T14:19:31Z</time>
      </trkpt>
      <trkpt lat="44.65577" lon="6.0551">
        <ele>1318.5</ele>
        <time>2014-10-30T14:19:33Z</time>
      </trkpt>
      <trkpt lat="44.65564" lon="6.0551">
        <ele>1319.64</ele>
        <time>2014-10-30T14:19:47Z</time>
      </trkpt>
      <trkpt lat="44.65559" lon="6.05517">
        <ele>1319.92</ele>
        <time>2014-10-30T14:19:50Z</time>
      </trkpt>
      <trkpt lat="44.65556" lon="6.05523">
        <ele>1320.01</ele>
        <time>2014-10-30T14:19:52Z</time>
      </trkpt>
      <trkpt lat="44.6555" lon="6.05532">
        <ele>1319.99</ele>
        <time>2014-10-30T14:19:58Z</time>
      </trkpt>
      <trkpt lat="44.65533" lon="6.05545">
        <ele>1320.65</ele>
        <time>2014-10-30T14:20:13Z</time>
      </trkpt>
      <trkpt lat="44.65529" lon="6.05548">
        <ele>1320.72</ele>
        <time>2014-10-30T14:20:16Z</time>
      </trkpt>
      <trkpt lat="44.65523" lon="6.05548">
        <ele>1321.27</ele>
        <time>2014-10-30T14:20:23Z</time>
      </trkpt>
      <trkpt lat="44.6552" lon="6.0555">
        <ele>1321.24</ele>
        <time>2014-10-30T14:20:28Z</time>
      </trkpt>
      <trkpt lat="44.65518" lon="6.05551">
        <ele>1321.23</ele>
        <time>2014-10-30T14:20:30Z</time>
      </trkpt>
      <trkpt lat="44.65514" lon="6.05553">
        <ele>1321.38</ele>
        <time>2014-10-30T14:20:35Z</time>
      </trkpt>
      <trkpt lat="44.65508" lon="6.0556">
        <ele>1321.17</ele>
        <time>2014-10-30T14:20:43Z</time>
      </trkpt>
      <trkpt lat="44.65501" lon="6.05566">
        <ele>1321.15</ele>
        <time>2014-10-30T14:20:52Z</time>
      </trkpt>
      <trkpt lat="44.65497" lon="6.05562">
        <ele>1321.75</ele>
        <time>2014-10-30T14:21:02Z</time>
      </trkpt>
      <trkpt lat="44.65486" lon="6.05562">
        <ele>1322.24</ele>
        <time>2014-10-30T14:21:13Z</time>
      </trkpt>
      <trkpt lat="44.65476" lon="6.05566">
        <ele>1322.36</ele>
        <time>2014-10-30T14:21:27Z</time>
      </trkpt>
      <trkpt lat="44.65462" lon="6.05562">
        <ele>1322.48</ele>
        <time>2014-10-30T14:21:41Z</time>
      </trkpt>
      <trkpt lat="44.65458" lon="6.05569">
        <ele>1322.17</ele>
        <time>2014-10-30T14:21:53Z</time>
      </trkpt>
      <trkpt lat="44.65449" lon="6.05567">
        <ele>1321.96</ele>
        <time>2014-10-30T14:22:01Z</time>
      </trkpt>
      <trkpt lat="44.65437" lon="6.0556">
        <ele>1322.23</ele>
        <time>2014-10-30T14:22:11Z</time>
      </trkpt>
      <trkpt lat="44.65425" lon="6.05557">
        <ele>1322.58</ele>
        <time>2014-10-30T14:22:21Z</time>
      </trkpt>
      <trkpt lat="44.65417" lon="6.05554">
        <ele>1322.51</ele>
        <time>2014-10-30T14:22:32Z</time>
      </trkpt>
      <trkpt lat="44.65419" lon="6.0556">
        <ele>1323.1</ele>
        <time>2014-10-30T14:22:43Z</time>
      </trkpt>
      <trkpt lat="44.65422" lon="6.05557">
        <ele>1323.03</ele>
        <time>2014-10-30T14:22:47Z</time>
      </trkpt>
      <trkpt lat="44.65425" lon="6.05555">
        <ele>1322.58</ele>
        <time>2014-10-30T14:22:54Z</time>
      </trkpt>
      <trkpt lat="44.65425" lon="6.05558">
        <ele>1322.02</ele>
        <time>2014-10-30T14:23:13Z</time>
      </trkpt>
      <trkpt lat="44.65426" lon="6.05566">
        <ele>1322</ele>
        <time>2014-10-30T14:23:33Z</time>
      </trkpt>
      <trkpt lat="44.6542" lon="6.05569">
        <ele>1321.84</ele>
        <time>2014-10-30T14:23:42Z</time>
      </trkpt>
      <trkpt lat="44.65416" lon="6.05562">
        <ele>1321.68</ele>
        <time>2014-10-30T14:23:54Z</time>
      </trkpt>
      <trkpt lat="44.65415" lon="6.05567">
        <ele>1321.63</ele>
        <time>2014-10-30T14:23:59Z</time>
      </trkpt>
      <trkpt lat="44.65421" lon="6.05573">
        <ele>1321.66</ele>
        <time>2014-10-30T14:24:07Z</time>
      </trkpt>
      <trkpt lat="44.6542" lon="6.05572">
        <ele>1321.59</ele>
        <time>2014-10-30T14:24:09Z</time>
      </trkpt>
      <trkpt lat="44.65407" lon="6.05551">
        <ele>1321.16</ele>
        <time>2014-10-30T14:24:28Z</time>
      </trkpt>
      <trkpt lat="44.65408" lon="6.0555">
        <ele>1320.75</ele>
        <time>2014-10-30T14:24:34Z</time>
      </trkpt>
      <trkpt lat="44.65409" lon="6.05555">
        <ele>1320.7</ele>
        <time>2014-10-30T14:24:37Z</time>
      </trkpt>
      <trkpt lat="44.65406" lon="6.05559">
        <ele>1320.48</ele>
        <time>2014-10-30T14:24:48Z</time>
      </trkpt>
      <trkpt lat="44.65403" lon="6.05536">
        <ele>1319.43</ele>
        <time>2014-10-30T14:24:55Z</time>
      </trkpt>
      <trkpt lat="44.65405" lon="6.05528">
        <ele>1319.19</ele>
        <time>2014-10-30T14:25:15Z</time>
      </trkpt>
      <trkpt lat="44.65408" lon="6.05531">
        <ele>1319.61</ele>
        <time>2014-10-30T14:25:22Z</time>
      </trkpt>
      <trkpt lat="44.65397" lon="6.05559">
        <ele>1321.17</ele>
        <time>2014-10-30T14:25:41Z</time>
      </trkpt>
      <trkpt lat="44.65383" lon="6.05571">
        <ele>1321.86</ele>
        <time>2014-10-30T14:26:00Z</time>
      </trkpt>
      <trkpt lat="44.65374" lon="6.05574">
        <ele>1322.46</ele>
        <time>2014-10-30T14:26:18Z</time>
      </trkpt>
      <trkpt lat="44.65374" lon="6.05575">
        <ele>1322.6</ele>
        <time>2014-10-30T14:26:24Z</time>
      </trkpt>
      <trkpt lat="44.65369" lon="6.05578">
        <ele>1321.71</ele>
        <time>2014-10-30T14:26:43Z</time>
      </trkpt>
      <trkpt lat="44.65366" lon="6.05579">
        <ele>1320.83</ele>
        <time>2014-10-30T14:27:00Z</time>
      </trkpt>
      <trkpt lat="44.65366" lon="6.05582">
        <ele>1320.32</ele>
        <time>2014-10-30T14:27:18Z</time>
      </trkpt>
      <trkpt lat="44.65376" lon="6.05603">
        <ele>1321.03</ele>
        <time>2014-10-30T14:27:40Z</time>
      </trkpt>
      <trkpt lat="44.65387" lon="6.05622">
        <ele>1322.35</ele>
        <time>2014-10-30T14:27:59Z</time>
      </trkpt>
      <trkpt lat="44.65397" lon="6.05629">
        <ele>1321.74</ele>
        <time>2014-10-30T14:28:14Z</time>
      </trkpt>
      <trkpt lat="44.65401" lon="6.05634">
        <ele>1321.28</ele>
        <time>2014-10-30T14:28:20Z</time>
      </trkpt>
      <trkpt lat="44.65409" lon="6.05666">
        <ele>1321.73</ele>
        <time>2014-10-30T14:28:45Z</time>
      </trkpt>
      <trkpt lat="44.65413" lon="6.05676">
        <ele>1321.76</ele>
        <time>2014-10-30T14:28:53Z</time>
      </trkpt>
      <trkpt lat="44.65426" lon="6.0571">
        <ele>1321.85</ele>
        <time>2014-10-30T14:29:17Z</time>
      </trkpt>
      <trkpt lat="44.65438" lon="6.05735">
        <ele>1322.82</ele>
        <time>2014-10-30T14:29:39Z</time>
      </trkpt>
      <trkpt lat="44.65442" lon="6.05757">
        <ele>1322.76</ele>
        <time>2014-10-30T14:29:55Z</time>
      </trkpt>
      <trkpt lat="44.65443" lon="6.05793">
        <ele>1323.84</ele>
        <time>2014-10-30T14:30:20Z</time>
      </trkpt>
      <trkpt lat="44.65441" lon="6.05822">
        <ele>1324.79</ele>
        <time>2014-10-30T14:30:40Z</time>
      </trkpt>
      <trkpt lat="44.65435" lon="6.05836">
        <ele>1324.86</ele>
        <time>2014-10-30T14:30:50Z</time>
      </trkpt>
      <trkpt lat="44.65419" lon="6.05866">
        <ele>1325.3</ele>
        <time>2014-10-30T14:31:13Z</time>
      </trkpt>
      <trkpt lat="44.6541" lon="6.05891">
        <ele>1326.23</ele>
        <time>2014-10-30T14:31:33Z</time>
      </trkpt>
      <trkpt lat="44.654" lon="6.05908">
        <ele>1326.45</ele>
        <time>2014-10-30T14:31:49Z</time>
      </trkpt>
      <trkpt lat="44.65395" lon="6.05914">
        <ele>1326.7</ele>
        <time>2014-10-30T14:31:55Z</time>
      </trkpt>
      <trkpt lat="44.65383" lon="6.05925">
        <ele>1326.79</ele>
        <time>2014-10-30T14:32:08Z</time>
      </trkpt>
      <trkpt lat="44.65368" lon="6.0594">
        <ele>1326.93</ele>
        <time>2014-10-30T14:32:23Z</time>
      </trkpt>
      <trkpt lat="44.65353" lon="6.05961">
        <ele>1327.51</ele>
        <time>2014-10-30T14:32:46Z</time>
      </trkpt>
      <trkpt lat="44.65344" lon="6.05974">
        <ele>1327.87</ele>
        <time>2014-10-30T14:33:00Z</time>
      </trkpt>
      <trkpt lat="44.65341" lon="6.05979">
        <ele>1327.86</ele>
        <time>2014-10-30T14:33:03Z</time>
      </trkpt>
      <trkpt lat="44.65329" lon="6.05993">
        <ele>1328</ele>
        <time>2014-10-30T14:33:21Z</time>
      </trkpt>
      <trkpt lat="44.65325" lon="6.06005">
        <ele>1327.39</ele>
        <time>2014-10-30T14:33:39Z</time>
      </trkpt>
      <trkpt lat="44.65312" lon="6.06">
        <ele>1327.29</ele>
        <time>2014-10-30T14:34:00Z</time>
      </trkpt>
      <trkpt lat="44.65303" lon="6.05997">
        <ele>1326.92</ele>
        <time>2014-10-30T14:34:09Z</time>
      </trkpt>
      <trkpt lat="44.653" lon="6.05996">
        <ele>1326.95</ele>
        <time>2014-10-30T14:34:13Z</time>
      </trkpt>
      <trkpt lat="44.65275" lon="6.05988">
        <ele>1327.06</ele>
        <time>2014-10-30T14:34:31Z</time>
      </trkpt>
      <trkpt lat="44.65273" lon="6.05986">
        <ele>1327.32</ele>
        <time>2014-10-30T14:34:34Z</time>
      </trkpt>
      <trkpt lat="44.6526" lon="6.05986">
        <ele>1327.47</ele>
        <time>2014-10-30T14:34:50Z</time>
      </trkpt>
      <trkpt lat="44.65256" lon="6.05987">
        <ele>1327.56</ele>
        <time>2014-10-30T14:34:57Z</time>
      </trkpt>
      <trkpt lat="44.6523" lon="6.05982">
        <ele>1328.01</ele>
        <time>2014-10-30T14:35:19Z</time>
      </trkpt>
      <trkpt lat="44.65229" lon="6.05983">
        <ele>1328.07</ele>
        <time>2014-10-30T14:35:21Z</time>
      </trkpt>
      <trkpt lat="44.65213" lon="6.05982">
        <ele>1328.4</ele>
        <time>2014-10-30T14:35:36Z</time>
      </trkpt>
      <trkpt lat="44.65198" lon="6.05981">
        <ele>1329.05</ele>
        <time>2014-10-30T14:35:53Z</time>
      </trkpt>
      <trkpt lat="44.65195" lon="6.05981">
        <ele>1329.26</ele>
        <time>2014-10-30T14:35:58Z</time>
      </trkpt>
      <trkpt lat="44.65178" lon="6.05986">
        <ele>1330.06</ele>
        <time>2014-10-30T14:36:13Z</time>
      </trkpt>
      <trkpt lat="44.65152" lon="6.05991">
        <ele>1331.32</ele>
        <time>2014-10-30T14:36:39Z</time>
      </trkpt>
      <trkpt lat="44.65134" lon="6.05998">
        <ele>1332.25</ele>
        <time>2014-10-30T14:37:00Z</time>
      </trkpt>
      <trkpt lat="44.65117" lon="6.06">
        <ele>1332.75</ele>
        <time>2014-10-30T14:37:14Z</time>
      </trkpt>
      <trkpt lat="44.651" lon="6.05999">
        <ele>1333.35</ele>
        <time>2014-10-30T14:37:28Z</time>
      </trkpt>
      <trkpt lat="44.65086" lon="6.05999">
        <ele>1333.99</ele>
        <time>2014-10-30T14:37:40Z</time>
      </trkpt>
      <trkpt lat="44.65074" lon="6.05996">
        <ele>1334.6</ele>
        <time>2014-10-30T14:37:54Z</time>
      </trkpt>
      <trkpt lat="44.65062" lon="6.0599">
        <ele>1334.97</ele>
        <time>2014-10-30T14:38:07Z</time>
      </trkpt>
      <trkpt lat="44.65042" lon="6.05981">
        <ele>1335.43</ele>
        <time>2014-10-30T14:38:32Z</time>
      </trkpt>
      <trkpt lat="44.65035" lon="6.05969">
        <ele>1335.44</ele>
        <time>2014-10-30T14:38:45Z</time>
      </trkpt>
      <trkpt lat="44.65021" lon="6.05962">
        <ele>1335.64</ele>
        <time>2014-10-30T14:39:02Z</time>
      </trkpt>
      <trkpt lat="44.65002" lon="6.05965">
        <ele>1336.1</ele>
        <time>2014-10-30T14:39:22Z</time>
      </trkpt>
      <trkpt lat="44.64991" lon="6.05962">
        <ele>1336.81</ele>
        <time>2014-10-30T14:39:33Z</time>
      </trkpt>
      <trkpt lat="44.64983" lon="6.05964">
        <ele>1337.52</ele>
        <time>2014-10-30T14:39:43Z</time>
      </trkpt>
      <trkpt lat="44.64969" lon="6.05966">
        <ele>1336.88</ele>
        <time>2014-10-30T14:39:54Z</time>
      </trkpt>
      <trkpt lat="44.64957" lon="6.05964">
        <ele>1336.92</ele>
        <time>2014-10-30T14:40:06Z</time>
      </trkpt>
      <trkpt lat="44.64946" lon="6.0596">
        <ele>1336.52</ele>
        <time>2014-10-30T14:40:17Z</time>
      </trkpt>
      <trkpt lat="44.64929" lon="6.05955">
        <ele>1335.51</ele>
        <time>2014-10-30T14:40:33Z</time>
      </trkpt>
      <trkpt lat="44.64915" lon="6.05954">
        <ele>1334.85</ele>
        <time>2014-10-30T14:40:45Z</time>
      </trkpt>
      <trkpt lat="44.64901" lon="6.05945">
        <ele>1334.96</ele>
        <time>2014-10-30T14:40:59Z</time>
      </trkpt>
      <trkpt lat="44.64899" lon="6.05943">
        <ele>1334.9</ele>
        <time>2014-10-30T14:41:01Z</time>
      </trkpt>
      <trkpt lat="44.64886" lon="6.05932">
        <ele>1335.38</ele>
        <time>2014-10-30T14:41:15Z</time>
      </trkpt>
      <trkpt lat="44.64862" lon="6.05914">
        <ele>1337.45</ele>
        <time>2014-10-30T14:41:39Z</time>
      </trkpt>
      <trkpt lat="44.64844" lon="6.05909">
        <ele>1337.34</ele>
        <time>2014-10-30T14:41:59Z</time>
      </trkpt>
      <trkpt lat="44.64837" lon="6.05934">
        <ele>1336.67</ele>
        <time>2014-10-30T14:42:20Z</time>
      </trkpt>
      <trkpt lat="44.64837" lon="6.05955">
        <ele>1337.81</ele>
        <time>2014-10-30T14:42:33Z</time>
      </trkpt>
      <trkpt lat="44.64837" lon="6.05984">
        <ele>1340.57</ele>
        <time>2014-10-30T14:42:58Z</time>
      </trkpt>
      <trkpt lat="44.64839" lon="6.06015">
        <ele>1343.39</ele>
        <time>2014-10-30T14:43:22Z</time>
      </trkpt>
      <trkpt lat="44.64832" lon="6.06038">
        <ele>1345.82</ele>
        <time>2014-10-30T14:43:46Z</time>
      </trkpt>
      <trkpt lat="44.64819" lon="6.06045">
        <ele>1348.3</ele>
        <time>2014-10-30T14:44:05Z</time>
      </trkpt>
      <trkpt lat="44.64811" lon="6.06053">
        <ele>1349.87</ele>
        <time>2014-10-30T14:44:18Z</time>
      </trkpt>
      <trkpt lat="44.6481" lon="6.06055">
        <ele>1350.02</ele>
        <time>2014-10-30T14:44:21Z</time>
      </trkpt>
      <trkpt lat="44.64809" lon="6.06057">
        <ele>1350.12</ele>
        <time>2014-10-30T14:44:23Z</time>
      </trkpt>
      <trkpt lat="44.64805" lon="6.06072">
        <ele>1349.65</ele>
        <time>2014-10-30T14:44:39Z</time>
      </trkpt>
      <trkpt lat="44.64799" lon="6.06093">
        <ele>1346.59</ele>
        <time>2014-10-30T14:44:56Z</time>
      </trkpt>
      <trkpt lat="44.64795" lon="6.06112">
        <ele>1343.53</ele>
        <time>2014-10-30T14:45:13Z</time>
      </trkpt>
      <trkpt lat="44.64791" lon="6.0613">
        <ele>1340.85</ele>
        <time>2014-10-30T14:45:27Z</time>
      </trkpt>
      <trkpt lat="44.64784" lon="6.06153">
        <ele>1337.84</ele>
        <time>2014-10-30T14:45:43Z</time>
      </trkpt>
      <trkpt lat="44.64783" lon="6.06167">
        <ele>1334.65</ele>
        <time>2014-10-30T14:45:58Z</time>
      </trkpt>
      <trkpt lat="44.6478" lon="6.06193">
        <ele>1331.59</ele>
        <time>2014-10-30T14:46:13Z</time>
      </trkpt>
      <trkpt lat="44.64778" lon="6.062">
        <ele>1330.97</ele>
        <time>2014-10-30T14:46:17Z</time>
      </trkpt>
      <trkpt lat="44.64778" lon="6.06218">
        <ele>1329.03</ele>
        <time>2014-10-30T14:46:27Z</time>
      </trkpt>
      <trkpt lat="44.64778" lon="6.06234">
        <ele>1327.06</ele>
        <time>2014-10-30T14:46:40Z</time>
      </trkpt>
      <trkpt lat="44.64771" lon="6.06253">
        <ele>1325.77</ele>
        <time>2014-10-30T14:46:54Z</time>
      </trkpt>
      <trkpt lat="44.64762" lon="6.06281">
        <ele>1323.59</ele>
        <time>2014-10-30T14:47:14Z</time>
      </trkpt>
      <trkpt lat="44.64757" lon="6.0632">
        <ele>1320.43</ele>
        <time>2014-10-30T14:47:37Z</time>
      </trkpt>
      <trkpt lat="44.64754" lon="6.06358">
        <ele>1317.45</ele>
        <time>2014-10-30T14:47:59Z</time>
      </trkpt>
      <trkpt lat="44.64753" lon="6.06392">
        <ele>1314.73</ele>
        <time>2014-10-30T14:48:25Z</time>
      </trkpt>
      <trkpt lat="44.64756" lon="6.06415">
        <ele>1312.5</ele>
        <time>2014-10-30T14:48:45Z</time>
      </trkpt>
      <trkpt lat="44.64771" lon="6.06433">
        <ele>1309.49</ele>
        <time>2014-10-30T14:49:07Z</time>
      </trkpt>
      <trkpt lat="44.64791" lon="6.06458">
        <ele>1306.8</ele>
        <time>2014-10-30T14:49:32Z</time>
      </trkpt>
      <trkpt lat="44.64797" lon="6.0647">
        <ele>1304.87</ele>
        <time>2014-10-30T14:49:44Z</time>
      </trkpt>
      <trkpt lat="44.64802" lon="6.06472">
        <ele>1304.53</ele>
        <time>2014-10-30T14:49:47Z</time>
      </trkpt>
      <trkpt lat="44.64799" lon="6.06475">
        <ele>1303.39</ele>
        <time>2014-10-30T14:49:59Z</time>
      </trkpt>
      <trkpt lat="44.64779" lon="6.06478">
        <ele>1302.26</ele>
        <time>2014-10-30T14:50:19Z</time>
      </trkpt>
      <trkpt lat="44.64763" lon="6.06494">
        <ele>1301.65</ele>
        <time>2014-10-30T14:50:36Z</time>
      </trkpt>
      <trkpt lat="44.64759" lon="6.065">
        <ele>1300.97</ele>
        <time>2014-10-30T14:50:47Z</time>
      </trkpt>
      <trkpt lat="44.64758" lon="6.06497">
        <ele>1300.4</ele>
        <time>2014-10-30T14:51:00Z</time>
      </trkpt>
      <trkpt lat="44.64754" lon="6.065">
        <ele>1300.31</ele>
        <time>2014-10-30T14:51:05Z</time>
      </trkpt>
      <trkpt lat="44.64749" lon="6.06505">
        <ele>1299.83</ele>
        <time>2014-10-30T14:51:16Z</time>
      </trkpt>
      <trkpt lat="44.64745" lon="6.06513">
        <ele>1299.17</ele>
        <time>2014-10-30T14:51:29Z</time>
      </trkpt>
      <trkpt lat="44.64745" lon="6.06516">
        <ele>1299.06</ele>
        <time>2014-10-30T14:51:33Z</time>
      </trkpt>
      <trkpt lat="44.64741" lon="6.0652">
        <ele>1298.76</ele>
        <time>2014-10-30T14:51:39Z</time>
      </trkpt>
      <trkpt lat="44.64738" lon="6.06521">
        <ele>1298.58</ele>
        <time>2014-10-30T14:51:42Z</time>
      </trkpt>
      <trkpt lat="44.64735" lon="6.06527">
        <ele>1297.96</ele>
        <time>2014-10-30T14:51:47Z</time>
      </trkpt>
      <trkpt lat="44.64735" lon="6.06535">
        <ele>1297.33</ele>
        <time>2014-10-30T14:51:59Z</time>
      </trkpt>
      <trkpt lat="44.64737" lon="6.06537">
        <ele>1297.45</ele>
        <time>2014-10-30T14:52:02Z</time>
      </trkpt>
      <trkpt lat="44.64742" lon="6.06552">
        <ele>1299.05</ele>
        <time>2014-10-30T14:52:16Z</time>
      </trkpt>
      <trkpt lat="44.64744" lon="6.06561">
        <ele>1300.11</ele>
        <time>2014-10-30T14:52:28Z</time>
      </trkpt>
      <trkpt lat="44.64744" lon="6.06576">
        <ele>1302.56</ele>
        <time>2014-10-30T14:52:44Z</time>
      </trkpt>
      <trkpt lat="44.64742" lon="6.06578">
        <ele>1303.07</ele>
        <time>2014-10-30T14:52:48Z</time>
      </trkpt>
      <trkpt lat="44.64743" lon="6.06614">
        <ele>1305.58</ele>
        <time>2014-10-30T14:53:13Z</time>
      </trkpt>
      <trkpt lat="44.64741" lon="6.06628">
        <ele>1307.3</ele>
        <time>2014-10-30T14:53:28Z</time>
      </trkpt>
      <trkpt lat="44.64741" lon="6.06648">
        <ele>1309.04</ele>
        <time>2014-10-30T14:53:44Z</time>
      </trkpt>
      <trkpt lat="44.64745" lon="6.06675">
        <ele>1310.15</ele>
        <time>2014-10-30T14:54:10Z</time>
      </trkpt>
      <trkpt lat="44.64747" lon="6.0669">
        <ele>1310.85</ele>
        <time>2014-10-30T14:54:22Z</time>
      </trkpt>
      <trkpt lat="44.64749" lon="6.06711">
        <ele>1311.27</ele>
        <time>2014-10-30T14:54:37Z</time>
      </trkpt>
      <trkpt lat="44.64752" lon="6.06739">
        <ele>1311.6</ele>
        <time>2014-10-30T14:54:55Z</time>
      </trkpt>
      <trkpt lat="44.64752" lon="6.06751">
        <ele>1311.57</ele>
        <time>2014-10-30T14:55:04Z</time>
      </trkpt>
      <trkpt lat="44.64753" lon="6.06772">
        <ele>1311.95</ele>
        <time>2014-10-30T14:55:19Z</time>
      </trkpt>
      <trkpt lat="44.64751" lon="6.06801">
        <ele>1312.5</ele>
        <time>2014-10-30T14:55:39Z</time>
      </trkpt>
      <trkpt lat="44.64749" lon="6.06827">
        <ele>1313.39</ele>
        <time>2014-10-30T14:55:59Z</time>
      </trkpt>
      <trkpt lat="44.64738" lon="6.06865">
        <ele>1314.32</ele>
        <time>2014-10-30T14:56:25Z</time>
      </trkpt>
      <trkpt lat="44.6473" lon="6.06895">
        <ele>1314.67</ele>
        <time>2014-10-30T14:56:49Z</time>
      </trkpt>
      <trkpt lat="44.64723" lon="6.0692">
        <ele>1315.24</ele>
        <time>2014-10-30T14:57:10Z</time>
      </trkpt>
      <trkpt lat="44.64717" lon="6.06937">
        <ele>1315.33</ele>
        <time>2014-10-30T14:57:24Z</time>
      </trkpt>
      <trkpt lat="44.64714" lon="6.06949">
        <ele>1315.3</ele>
        <time>2014-10-30T14:57:35Z</time>
      </trkpt>
      <trkpt lat="44.64712" lon="6.06952">
        <ele>1315.23</ele>
        <time>2014-10-30T14:57:37Z</time>
      </trkpt>
      <trkpt lat="44.6471" lon="6.06961">
        <ele>1315.09</ele>
        <time>2014-10-30T14:57:41Z</time>
      </trkpt>
      <trkpt lat="44.64705" lon="6.0697">
        <ele>1315.05</ele>
        <time>2014-10-30T14:57:47Z</time>
      </trkpt>
      <trkpt lat="44.64699" lon="6.06982">
        <ele>1314.89</ele>
        <time>2014-10-30T14:57:58Z</time>
      </trkpt>
      <trkpt lat="44.64688" lon="6.06999">
        <ele>1314.82</ele>
        <time>2014-10-30T14:58:14Z</time>
      </trkpt>
      <trkpt lat="44.64682" lon="6.07009">
        <ele>1314.86</ele>
        <time>2014-10-30T14:58:21Z</time>
      </trkpt>
      <trkpt lat="44.64664" lon="6.07039">
        <ele>1314.32</ele>
        <time>2014-10-30T14:58:43Z</time>
      </trkpt>
      <trkpt lat="44.64656" lon="6.07058">
        <ele>1314.2</ele>
        <time>2014-10-30T14:58:59Z</time>
      </trkpt>
      <trkpt lat="44.64656" lon="6.07061">
        <ele>1314.23</ele>
        <time>2014-10-30T14:59:01Z</time>
      </trkpt>
      <trkpt lat="44.64646" lon="6.07096">
        <ele>1314.47</ele>
        <time>2014-10-30T14:59:26Z</time>
      </trkpt>
      <trkpt lat="44.64646" lon="6.07102">
        <ele>1314.26</ele>
        <time>2014-10-30T14:59:30Z</time>
      </trkpt>
      <trkpt lat="44.64647" lon="6.07136">
        <ele>1314.48</ele>
        <time>2014-10-30T14:59:49Z</time>
      </trkpt>
      <trkpt lat="44.64641" lon="6.07159">
        <ele>1314.62</ele>
        <time>2014-10-30T15:00:10Z</time>
      </trkpt>
      <trkpt lat="44.64635" lon="6.07166">
        <ele>1314.33</ele>
        <time>2014-10-30T15:00:16Z</time>
      </trkpt>
      <trkpt lat="44.64614" lon="6.07182">
        <ele>1314.5</ele>
        <time>2014-10-30T15:00:36Z</time>
      </trkpt>
      <trkpt lat="44.64603" lon="6.07194">
        <ele>1314.95</ele>
        <time>2014-10-30T15:00:53Z</time>
      </trkpt>
      <trkpt lat="44.64591" lon="6.07199">
        <ele>1315.55</ele>
        <time>2014-10-30T15:01:03Z</time>
      </trkpt>
      <trkpt lat="44.6458" lon="6.07204">
        <ele>1315.88</ele>
        <time>2014-10-30T15:01:14Z</time>
      </trkpt>
      <trkpt lat="44.64558" lon="6.07196">
        <ele>1315.87</ele>
        <time>2014-10-30T15:01:33Z</time>
      </trkpt>
      <trkpt lat="44.64545" lon="6.07182">
        <ele>1316.91</ele>
        <time>2014-10-30T15:01:47Z</time>
      </trkpt>
      <trkpt lat="44.64524" lon="6.07169">
        <ele>1319.36</ele>
        <time>2014-10-30T15:02:09Z</time>
      </trkpt>
      <trkpt lat="44.64506" lon="6.07176">
        <ele>1320.09</ele>
        <time>2014-10-30T15:02:29Z</time>
      </trkpt>
      <trkpt lat="44.645" lon="6.07178">
        <ele>1320.5</ele>
        <time>2014-10-30T15:02:48Z</time>
      </trkpt>
      <trkpt lat="44.64493" lon="6.07179">
        <ele>1320.51</ele>
        <time>2014-10-30T15:03:10Z</time>
      </trkpt>
      <trkpt lat="44.6448" lon="6.07179">
        <ele>1320.18</ele>
        <time>2014-10-30T15:03:33Z</time>
      </trkpt>
      <trkpt lat="44.64464" lon="6.07185">
        <ele>1318.43</ele>
        <time>2014-10-30T15:03:54Z</time>
      </trkpt>
      <trkpt lat="44.64464" lon="6.07185">
        <ele>1317.95</ele>
        <time>2014-10-30T15:04:16Z</time>
      </trkpt>
      <trkpt lat="44.64462" lon="6.0718">
        <ele>1317.47</ele>
        <time>2014-10-30T15:04:35Z</time>
      </trkpt>
      <trkpt lat="44.64434" lon="6.07187">
        <ele>1316.07</ele>
        <time>2014-10-30T15:04:59Z</time>
      </trkpt>
      <trkpt lat="44.64424" lon="6.07193">
        <ele>1454.9</ele>
        <time>2014-10-30T15:05:09Z</time>
      </trkpt>
    </trkseg>
  </trk>
</gpx>